[[{"header":{"parameterUnit":"m.s-1","parameterCategory":1,"la1":30.6,"la2":29.2853,"lo1":-89.7004,"lo2":-87.6739,"dx":0.0162,"dy":0.0183,"nx":112,"ny":82,"refTime":"2023-02-01T06:00:00:Z","depth":0,"parameterNumber":2,"parameterNumberName":"U-component_of_WINDS"},"data":[0.0,0.0,0.0,0.0,0.0,0.0,0.0,0.0,0.0,0.0,0.0,0.0,0.0,0.0,0.0,0.0,0.0,0.0,0.0,0.0,0.0,0.0,0.0,0.0,0.0,0.0,0.0,0.0,0.0,0.0,0.0,0.0,0.0,0.0,0.0,0.0,0.0,0.0,0.0,0.0,0.0,0.0,0.0,0.0,0.0,0.0,0.0,0.0,0.0,0.0,0.0,0.0,0.0,0.0,0.0,0.0,0.0,0.0,0.0,0.0,0.0,0.0,0.0,0.0,0.0,0.0,0.0,0.0,0.0,0.0,0.0,0.0,0.0,0.0,0.0,0.0,0.0,0.0,0.0,0.0,0.0,0.0,0.0,0.0,0.0,0.0,0.0,0.0,0.0,0.0,1.8499,1.8272,1.8787,1.9054,1.878,1.8706,1.8806,1.9107,0.0,0.0,0.0,0.0,0.0,0.0,0.0,0.0,0.0,0.0,0.0,0.0,0.0,0.0,0.0,0.0,0.0,0.0,0.0,0.0,0.0,0.0,0.0,0.0,0.0,0.0,0.0,0.0,0.0,0.0,0.0,0.0,0.0,0.0,0.0,0.0,0.0,0.0,0.0,0.0,0.0,0.0,0.0,0.0,0.0,0.0,0.0,0.0,0.0,0.0,0.0,0.0,0.0,0.0,0.0,0.0,0.0,0.0,0.0,0.0,0.0,0.0,0.0,0.0,0.0,0.0,0.0,0.0,0.0,0.0,0.0,0.0,0.0,0.0,0.0,0.0,0.0,0.0,0.0,0.0,0.0,0.0,0.0,0.0,0.0,0.0,0.0,0.0,0.0,0.0,0.0,0.0,0.0,0.0,0.0,0.0,0.0,0.0,0.0,0.0,0.0,0.0,0.0,0.0,1.9106,1.9332,1.9644,1.9747,1.9477,1.9193,1.9202,1.9646,0.0,0.0,0.0,0.0,0.0,0.0,0.0,0.0,0.0,0.0,0.0,0.0,0.0,0.0,0.0,0.0,0.0,0.0,0.0,0.0,0.0,0.0,0.0,0.0,0.0,0.0,0.0,0.0,0.0,0.0,0.0,0.0,0.0,0.0,0.0,0.0,0.0,0.0,0.0,0.0,0.0,0.0,0.0,0.0,0.0,0.0,0.0,0.0,0.0,0.0,0.0,0.0,0.0,0.0,0.0,0.0,0.0,0.0,0.0,0.0,0.0,0.0,0.0,0.0,0.0,0.0,0.0,0.0,0.0,0.0,0.0,0.0,0.0,0.0,0.0,0.0,0.0,0.0,0.0,0.0,0.0,0.0,0.0,0.0,0.0,0.0,0.0,0.0,0.0,0.0,0.0,0.0,0.0,0.0,0.0,0.0,0.0,0.0,0.0,0.0,0.0,0.0,0.0,1.9191,1.9472,2.0174,2.0191,2.0108,1.9994,1.9846,1.9837,2.006,1.9615,0.0,0.0,0.0,0.0,0.0,0.0,0.0,0.0,0.0,0.0,0.0,0.0,0.0,0.0,0.0,0.0,0.0,0.0,0.0,0.0,0.0,0.0,0.0,0.0,0.0,0.0,0.0,0.0,0.0,0.0,0.0,0.0,0.0,0.0,0.0,0.0,0.0,0.0,0.0,0.0,0.0,0.0,0.0,0.0,0.0,0.0,0.0,0.0,0.0,0.0,0.0,0.0,0.0,0.0,0.0,0.0,0.0,0.0,0.0,0.0,0.0,0.0,0.0,0.0,0.0,0.0,0.0,0.0,0.0,0.0,0.0,0.0,0.0,0.0,0.0,0.0,0.0,0.0,0.0,0.0,0.0,0.0,0.0,0.0,0.0,0.0,0.0,0.0,0.0,0.0,0.0,0.0,0.0,0.0,0.0,0.0,0.0,0.0,0.0,0.0,0.0,0.0,1.9812,1.9983,2.0829,2.0687,2.0544,2.0544,2.046,2.0424,2.0424,2.0347,0.0,0.0,0.0,0.0,0.0,0.0,0.0,0.0,0.0,0.0,0.0,0.0,0.0,0.0,0.0,0.0,0.0,0.0,0.0,0.0,0.0,0.0,0.0,0.0,0.0,0.0,0.0,0.0,0.0,0.0,0.0,0.0,0.0,0.0,0.0,0.0,0.0,0.0,0.0,0.0,0.0,0.0,0.0,0.0,0.0,0.0,0.0,0.0,0.0,0.0,0.0,0.0,0.0,0.0,0.0,0.0,0.0,0.0,0.0,0.0,0.0,0.0,0.0,0.0,0.0,0.0,0.0,0.0,0.0,0.0,0.0,0.0,0.0,0.0,0.0,0.0,0.0,0.0,0.0,0.0,0.0,0.0,0.0,0.0,0.0,0.0,0.0,0.0,0.0,0.0,0.0,0.0,0.0,0.0,0.0,0.0,0.0,0.0,0.0,0.0,0.0,0.0,2.0707,2.0845,2.1213,2.1245,2.1237,2.1237,2.0942,2.0761,2.0761,2.046,0.0,0.0,0.0,0.0,0.0,0.0,0.0,0.0,0.0,0.0,0.0,0.0,0.0,0.0,0.0,0.0,0.0,0.0,0.0,0.0,0.0,0.0,0.0,0.0,0.0,0.0,0.0,0.0,0.0,0.0,0.0,0.0,0.0,0.0,0.0,0.0,0.0,0.0,0.0,0.0,0.0,0.0,0.0,0.0,0.0,0.0,0.0,0.0,0.0,0.0,0.0,0.0,0.0,0.0,0.0,0.0,0.0,0.0,0.0,0.0,0.0,0.0,0.0,0.0,0.0,0.0,0.0,0.0,0.0,0.0,0.0,0.0,0.0,0.0,0.0,0.0,0.0,0.0,0.0,0.0,0.0,0.0,0.0,0.0,0.0,0.0,0.0,0.0,0.0,0.0,0.0,0.0,0.0,0.0,0.0,0.0,0.0,0.0,0.0,0.0,0.0,0.0,2.0492,2.0536,2.0663,2.0679,2.0679,2.0679,2.0561,2.0492,2.0492,0.0,0.0,0.0,0.0,0.0,0.0,0.0,0.0,0.0,0.0,0.0,0.0,0.0,0.0,0.0,0.0,0.0,0.0,0.0,0.0,0.0,0.0,0.0,0.0,0.0,0.0,0.0,0.0,0.0,0.0,0.0,0.0,0.0,0.0,0.0,0.0,0.0,0.0,0.0,0.0,0.0,0.0,0.0,0.0,0.0,0.0,0.0,0.0,0.0,0.0,0.0,0.0,0.0,0.0,0.0,0.0,0.0,0.0,0.0,0.0,0.0,0.0,0.0,0.0,0.0,0.0,0.0,0.0,0.0,0.0,0.0,0.0,0.0,0.0,0.0,0.0,0.0,0.0,0.0,0.0,0.0,0.0,0.0,0.0,0.0,0.0,0.0,0.0,0.0,0.0,0.0,0.0,0.0,0.0,0.0,0.0,0.0,0.0,0.0,0.0,0.0,0.0,2.0588,2.0619,2.0696,2.0912,2.0934,2.0934,2.0934,2.0934,2.0934,2.0934,0.0,0.0,0.0,0.0,0.0,0.0,0.0,0.0,0.0,0.0,0.0,0.0,0.0,0.0,0.0,0.0,0.0,0.0,0.0,0.0,0.0,0.0,0.0,0.0,0.0,0.0,0.0,0.0,0.0,0.0,0.0,0.0,0.0,0.0,0.0,0.0,0.0,0.0,0.0,0.0,0.0,0.0,0.0,0.0,0.0,0.0,0.0,0.0,0.0,0.0,0.0,0.0,0.0,0.0,0.0,0.0,0.0,0.0,0.0,0.0,0.0,0.0,0.0,0.0,0.0,0.0,0.0,0.0,0.0,0.0,0.0,0.0,0.0,0.0,0.0,0.0,0.0,0.0,0.0,0.0,0.0,0.0,0.0,0.0,0.0,0.0,0.0,0.0,0.0,0.0,0.0,0.0,0.0,0.0,0.0,0.0,0.0,0.0,0.0,0.0,0.0,0.0,2.1236,2.1304,2.1565,2.2218,2.2295,2.2295,2.2295,2.2295,2.2295,0.0,0.0,0.0,0.0,0.0,0.0,0.0,0.0,0.0,0.0,0.0,0.0,0.0,0.0,0.0,0.0,0.0,0.0,0.0,0.0,0.0,0.0,0.0,0.0,0.0,0.0,0.0,0.0,0.0,0.0,0.0,0.0,0.0,0.0,0.0,0.0,0.0,0.0,0.0,0.0,0.0,0.0,0.0,0.0,0.0,0.0,0.0,0.0,0.0,0.0,0.0,0.0,0.0,0.0,0.0,0.0,0.0,0.0,0.0,0.0,0.0,0.0,0.0,0.0,0.0,0.0,0.0,0.0,0.0,0.0,0.0,0.0,0.0,0.0,0.0,0.0,0.0,0.0,0.0,0.0,0.0,0.0,0.0,0.0,0.0,0.0,0.0,0.0,0.0,0.0,0.0,0.0,0.0,0.0,0.0,0.0,0.0,0.0,0.0,0.0,0.0,0.0,0.0,2.191,2.2012,2.2089,2.228,2.2295,2.2295,2.2295,2.2295,2.2295,2.2295,0.0,0.0,0.0,0.0,0.0,0.0,0.0,0.0,0.0,0.0,0.0,0.0,0.0,0.0,0.0,0.0,0.0,0.0,0.0,0.0,0.0,0.0,0.0,0.0,0.0,0.0,0.0,0.0,0.0,0.0,0.0,0.0,0.0,0.0,0.0,0.0,0.0,0.0,0.0,0.0,0.0,0.0,0.0,0.0,0.0,0.0,0.0,0.0,0.0,0.0,0.0,0.0,0.0,0.0,0.0,0.0,0.0,0.0,0.0,0.0,0.0,0.0,0.0,0.0,0.0,0.0,0.0,0.0,0.0,0.0,0.0,0.0,0.0,0.0,0.0,0.0,0.0,0.0,0.0,0.0,0.0,0.0,0.0,0.0,0.0,0.0,0.0,0.0,0.0,0.0,0.0,0.0,0.0,0.0,0.0,0.0,0.0,0.0,0.0,0.0,0.0,0.0,2.2619,2.2696,2.2803,2.3071,2.3102,2.3102,2.3102,2.3102,2.3102,2.3102,0.0,0.0,0.0,0.0,0.0,0.0,0.0,0.0,0.0,0.0,0.0,0.0,0.0,0.0,0.0,0.0,0.0,0.0,0.0,0.0,0.0,0.0,0.0,0.0,0.0,0.0,0.0,0.0,0.0,0.0,0.0,0.0,0.0,0.0,0.0,0.0,0.0,0.0,0.0,0.0,0.0,0.0,0.0,0.0,0.0,0.0,0.0,0.0,0.0,0.0,0.0,0.0,0.0,0.0,0.0,0.0,0.0,0.0,0.0,0.0,0.0,0.0,0.0,0.0,0.0,0.0,0.0,0.0,0.0,0.0,0.0,0.0,0.0,0.0,0.0,0.0,0.0,0.0,0.0,0.0,0.0,0.0,0.0,0.0,0.0,0.0,0.0,0.0,0.0,0.0,0.0,0.0,0.0,0.0,0.0,0.0,0.0,0.0,0.0,0.0,0.0,0.0,2.3302,2.3394,2.3625,2.423,2.4292,2.4292,2.4292,2.4292,2.4292,2.4292,0.0,0.0,0.0,0.0,0.0,0.0,0.0,0.0,0.0,0.0,0.0,0.0,0.0,0.0,0.0,0.0,0.0,0.0,0.0,0.0,0.0,0.0,0.0,0.0,0.0,0.0,0.0,0.0,0.0,0.0,0.0,0.0,0.0,0.0,0.0,0.0,0.0,0.0,0.0,0.0,0.0,0.0,0.0,0.0,0.0,0.0,0.0,0.0,0.0,0.0,0.0,0.0,0.0,0.0,0.0,0.0,0.0,0.0,0.0,0.0,1.7333,1.6988,0.0,0.0,0.0,0.0,0.0,0.0,0.0,0.0,0.0,0.0,0.0,0.0,0.0,0.0,0.0,0.0,0.0,0.0,0.0,0.0,0.0,0.0,0.0,0.0,0.0,0.0,0.0,0.0,0.0,0.0,0.0,0.0,0.0,0.0,0.0,0.0,0.0,0.0,0.0,0.0,2.401,2.4087,2.4148,2.4276,2.4292,2.4292,2.4292,2.4292,2.4292,2.4292,2.4179,0.0,0.0,0.0,0.0,0.0,0.0,0.0,0.0,0.0,0.0,0.0,0.0,0.0,0.0,0.0,0.0,0.0,0.0,0.0,0.0,0.0,0.0,0.0,0.0,0.0,0.0,0.0,0.0,0.0,0.0,0.0,0.0,0.0,0.0,0.0,0.0,0.0,0.0,0.0,0.0,0.0,0.0,0.0,0.0,0.0,0.0,0.0,0.0,0.0,0.0,0.0,0.0,0.0,0.0,0.0,0.0,0.0,0.0,0.0,1.7554,1.7309,0.0,0.0,0.0,0.0,0.0,0.0,0.0,0.0,0.0,0.0,0.0,0.0,0.0,0.0,0.0,0.0,0.0,0.0,0.0,0.0,0.0,0.0,0.0,0.0,0.0,0.0,0.0,0.0,0.0,0.0,0.0,0.0,0.0,0.0,0.0,0.0,0.0,0.0,0.0,0.0,2.4738,2.5087,2.5302,2.5302,2.5302,2.5302,2.5302,2.5276,2.5276,2.5302,2.4969,0.0,0.0,0.0,0.0,0.0,0.0,0.0,0.0,0.0,0.0,0.0,0.0,0.0,0.0,0.0,0.0,0.0,0.0,0.0,0.0,0.0,0.0,0.0,0.0,0.0,0.0,0.0,0.0,0.0,0.0,0.0,0.0,0.0,0.0,0.0,0.0,0.0,0.0,0.0,0.0,0.0,0.0,0.0,0.0,0.0,0.0,0.0,0.0,0.0,0.0,0.0,0.0,0.0,1.7641,1.7868,1.8229,1.8238,1.8384,1.8579,1.7749,1.7547,1.7819,1.7789,0.0,0.0,0.0,0.0,0.0,0.0,0.0,0.0,0.0,0.0,0.0,0.0,0.0,0.0,0.0,0.0,0.0,0.0,0.0,0.0,0.0,0.0,2.2003,2.2008,2.2244,2.2279,2.1557,0.0,0.0,0.0,0.0,0.0,0.0,0.0,0.0,0.0,0.0,0.0,2.5492,2.6026,2.6391,2.638,2.6391,2.6391,2.6391,2.6338,2.6338,2.6391,2.5826,2.5492,0.0,0.0,0.0,0.0,0.0,0.0,0.0,0.0,0.0,0.0,0.0,0.0,0.0,0.0,0.0,0.0,0.0,0.0,0.0,0.0,0.0,0.0,0.0,0.0,0.0,0.0,0.0,0.0,0.0,0.0,0.0,0.0,1.3804,1.3813,0.0,0.0,0.0,0.0,0.0,0.0,0.0,0.0,0.0,0.0,0.0,0.0,0.0,1.6683,1.7977,1.8029,1.8627,1.9779,2.0186,2.0208,1.9894,1.9947,1.9957,1.9922,1.9441,0.0,1.8759,1.9148,0.0,0.0,0.0,0.0,0.0,0.0,0.0,0.0,0.0,0.0,0.0,0.0,0.0,0.0,0.0,0.0,0.0,0.0,0.0,0.0,0.0,0.0,2.2008,2.207,2.2645,2.3148,2.3026,2.2558,2.2173,2.2208,2.2657,2.3045,0.0,0.0,0.0,0.0,0.0,0.0,2.6252,2.6345,2.638,2.6311,2.6364,2.6391,2.6391,2.6338,2.6338,2.6391,2.6314,2.6252,2.6252,2.6107,0.0,0.0,0.0,0.0,0.0,0.0,0.0,0.0,0.0,0.0,0.0,0.0,0.0,0.0,0.0,0.0,0.0,0.0,0.0,0.0,0.0,0.0,0.0,0.0,0.0,0.0,0.0,0.0,0.0,1.3611,1.382,1.4206,1.4254,1.4385,0.0,0.0,0.0,0.0,0.0,0.0,0.0,0.0,0.0,1.7182,1.7726,1.8212,1.8626,1.8639,1.906,1.9875,2.0071,2.0057,1.985,1.9883,1.9751,1.9472,1.9554,1.9475,1.9346,2.0001,2.0372,2.0504,0.0,0.0,0.0,0.0,2.0031,2.0095,2.048,2.0425,2.0284,2.0911,0.0,0.0,0.0,0.0,0.0,0.0,0.0,2.2343,0.0,0.0,2.3711,2.4187,2.4625,2.4951,2.503,2.4789,2.4434,2.4025,2.4501,2.5003,2.5003,2.5512,0.0,0.0,0.0,2.6934,2.6961,2.7288,2.7519,2.7476,2.7519,2.7519,2.7519,2.7492,2.7492,2.7519,2.7165,2.6961,2.6961,2.6565,2.6226,0.0,0.0,0.0,0.0,0.0,0.0,0.0,0.0,0.0,0.0,0.0,0.0,0.0,0.0,0.0,0.0,0.0,0.0,0.0,0.0,0.0,0.0,0.0,0.0,0.0,0.0,0.0,0.0,1.3676,1.3999,1.4466,1.4702,1.4994,0.0,0.0,0.0,0.0,0.0,0.0,1.7013,1.7701,1.8148,1.8308,1.9028,1.9332,1.9133,1.9121,1.9385,1.9879,2.0165,2.0211,2.0037,2.0313,2.018,1.9751,2.0086,2.0347,2.0489,2.0601,2.0833,2.1075,2.062,2.0686,2.0972,2.0592,2.0451,2.049,2.0798,2.0641,2.0405,2.1005,2.1359,2.1668,2.2351,0.0,0.0,0.0,0.0,2.3278,2.3592,2.4252,2.4944,2.538,2.5616,2.5806,2.6066,2.6283,2.6252,2.5685,2.6026,2.6391,2.6391,2.6545,0.0,2.6653,2.7238,2.7657,2.7657,2.8088,2.8473,2.863,2.8658,2.8658,2.8658,2.8658,2.8584,2.8399,2.7934,2.7657,2.7657,2.7192,2.6838,2.6668,0.0,0.0,0.0,0.0,0.0,0.0,0.0,0.0,0.0,0.0,0.0,0.0,0.0,0.0,0.0,0.0,0.0,0.0,0.0,0.0,0.0,0.0,0.0,0.0,0.0,0.0,0.0,0.0,0.0,1.4335,1.4988,0.0,0.0,0.0,0.0,1.7081,1.7643,1.8205,1.8754,1.8818,1.8855,1.8858,1.8907,1.9197,1.9747,1.9748,2.0059,2.0671,2.1688,2.183,2.1251,2.2273,2.2445,2.1947,2.1961,2.2352,2.2782,2.0978,2.0173,2.0076,2.0043,2.0014,1.9987,2.0025,2.0032,2.0148,2.0915,2.1159,2.1232,2.185,2.2731,2.378,2.5025,2.4943,0.0,0.0,2.4568,2.4488,2.4011,2.4388,2.4759,2.423,2.4307,2.464,2.5233,2.5962,2.6474,2.6366,2.6376,2.6391,2.6391,0.0,2.7349,2.7349,2.7919,2.835,2.835,2.8381,2.8645,2.9292,2.9353,2.9353,2.9353,2.9353,2.9076,2.8442,2.8365,2.835,2.835,2.8319,2.7996,2.7349,2.7349,0.0,0.0,0.0,0.0,0.0,0.0,0.0,0.0,0.0,0.0,0.0,0.0,0.0,0.0,0.0,0.0,0.0,0.0,0.0,0.0,0.0,0.0,0.0,0.0,0.0,0.0,0.0,0.0,1.5482,1.6166,0.0,1.7071,1.765,1.8087,1.8283,1.8493,1.8702,1.8898,1.9277,1.9668,2.0046,2.0388,2.0795,2.1277,2.1407,2.1511,2.1614,2.1982,2.2047,2.1831,2.2202,2.228,2.2102,2.2238,2.2361,2.2417,2.1846,2.1973,2.2486,2.2133,2.2194,2.2439,2.2109,2.1984,2.2038,2.2318,2.2212,2.2063,2.2569,2.3242,2.3915,2.4365,2.4337,2.4149,2.4173,2.4185,2.4247,2.4476,2.473,2.4969,2.5235,2.536,2.5616,2.6307,2.6686,2.7022,2.7464,2.7625,2.7688,2.7688,2.8242,2.8692,2.8692,2.9261,2.9692,2.9692,2.9692,2.9784,3.003,3.0033,3.0033,3.0033,3.0033,2.9953,2.9707,2.9692,2.9692,2.9692,2.9276,2.8922,2.8692,2.8273,2.7934,0.0,0.0,0.0,0.0,0.0,0.0,0.0,0.0,0.0,0.0,0.0,0.0,0.0,0.0,0.0,0.0,0.0,0.0,0.0,0.0,0.0,0.0,0.0,0.0,0.0,1.5192,1.586,1.6383,1.7063,1.7724,1.8278,1.8679,1.8989,1.9198,1.9381,1.9589,1.9761,2.0287,2.0756,2.116,2.1524,2.1822,2.2102,2.2238,2.2238,2.2102,2.2254,2.2302,2.2233,2.2452,2.2542,2.2542,2.2726,2.2768,2.2711,2.2851,2.3322,2.3891,2.3151,2.3082,2.3357,2.299,2.2857,2.2858,2.2858,2.2657,2.2509,2.3205,2.3684,2.4038,2.4416,2.4407,2.4263,2.4263,2.4263,2.4375,2.4819,2.508,2.5328,2.5825,2.5977,2.6187,2.6876,2.706,2.7329,2.8068,2.8264,2.8344,2.8426,2.8968,2.9308,2.9045,2.9794,3.0295,3.0031,3.023,3.0492,3.0707,3.0738,3.0738,3.0738,3.0738,3.0645,3.0402,3.0402,3.0402,3.0402,2.9971,2.963,2.9399,2.8953,2.8845,2.9076,0.0,0.0,0.0,0.0,0.0,0.0,0.0,0.0,0.0,0.0,0.0,0.0,0.0,0.0,0.0,0.0,0.0,0.0,0.0,0.0,0.0,0.0,0.0,1.5344,1.584,1.6431,1.6905,1.7668,1.833,1.8787,1.892,1.9213,1.9812,2.0412,2.0975,2.1498,2.1899,2.2115,2.2127,2.2127,2.2127,2.2152,2.2152,2.214,2.2152,2.2594,2.2722,2.255,2.3122,2.3403,2.3418,2.3539,2.3715,2.3891,2.3891,2.3992,2.4006,2.2884,2.244,2.2454,2.2454,2.2453,2.2452,2.2452,2.2439,2.2641,2.3757,2.4137,2.4327,2.5452,2.5439,2.5017,2.5017,2.5017,2.5024,2.5024,2.5412,2.5801,2.5805,2.5902,2.6155,2.6755,2.7011,2.7309,2.8039,2.8183,2.824,2.8467,2.8998,2.915,2.8368,2.9467,0.0,2.9333,2.9917,3.0641,3.1324,3.1386,3.1399,3.1428,3.1413,3.1151,3.0494,3.0463,3.0463,3.0463,3.0432,3.0122,2.9433,2.943,2.9753,3.0402,0.0,0.0,0.0,0.0,0.0,0.0,0.0,0.0,0.0,0.0,0.0,0.0,0.0,0.0,0.0,0.0,0.0,0.0,0.0,0.0,0.0,1.6269,1.6788,1.6599,1.7154,1.7772,1.8297,1.8929,1.9371,1.9504,2.0284,2.0845,2.1015,2.159,2.1929,2.1924,2.2174,2.2447,2.2738,2.2751,2.2887,2.3183,2.3196,2.3138,2.3036,2.3159,2.3206,2.3162,2.3312,2.3403,2.3418,2.3539,2.3628,2.3688,2.3846,2.4153,2.447,2.3756,2.3556,2.3629,2.3629,2.3627,2.3627,2.3627,2.3627,2.3762,2.4515,2.4759,2.4879,2.5583,2.5694,2.5585,2.5585,2.5585,2.5579,2.5581,2.5684,2.5801,2.5801,2.584,2.6023,2.6622,2.6778,2.704,2.7759,2.7904,2.8042,2.8426,2.9028,2.9391,2.9175,2.9784,3.0178,2.9958,3.0031,3.0367,3.1036,3.1109,3.1309,3.1792,3.1916,3.1908,3.1711,3.1805,3.1859,3.1859,3.1382,3.0812,3.014,3.0125,3.023,0.0,0.0,0.0,0.0,0.0,0.0,0.0,0.0,0.0,0.0,0.0,0.0,0.0,0.0,0.0,0.0,0.0,0.0,0.0,0.0,0.0,0.0,1.7005,1.7594,1.8076,1.8308,1.8649,1.9211,1.9799,2.0269,2.048,2.1328,2.1878,2.1878,2.2359,2.2617,2.2561,2.2781,2.301,2.3232,2.3244,2.3339,2.3509,2.3524,2.348,2.3403,2.33,2.3271,2.3271,2.3538,2.3652,2.368,2.4124,2.4318,2.432,2.444,2.4755,0.0,0.0,0.0,0.0,0.0,2.4801,2.4801,2.4801,2.4801,2.4868,2.521,2.5343,2.538,2.5704,2.5809,2.5809,2.5809,2.5809,2.5861,2.6112,2.6177,2.6227,2.6462,2.6511,2.6618,2.6961,2.704,2.7197,2.7693,2.7792,0.0,2.8271,2.8865,2.9182,2.8831,2.9555,2.9983,2.9659,2.989,3.024,3.063,3.0748,3.0955,3.135,3.1436,0.0,0.0,0.0,3.1737,3.2006,3.1614,0.0,0.0,0.0,3.0966,3.123,0.0,0.0,0.0,3.0492,3.0186,0.0,0.0,0.0,0.0,0.0,0.0,0.0,0.0,0.0,0.0,0.0,0.0,0.0,0.0,0.0,0.0,1.7663,1.8431,1.9465,1.9353,1.9371,1.9919,2.0465,2.1001,2.1551,2.2139,2.248,2.2466,2.2862,2.3144,2.3216,2.3463,0.0,0.0,0.0,2.3524,2.3403,2.3388,2.3398,2.3474,2.3284,2.3233,2.3308,2.3838,2.4092,2.4133,2.4912,2.5259,2.5262,2.5278,2.5536,2.5848,2.5304,2.538,2.5809,2.5809,2.5809,2.5809,2.5809,0.0,0.0,2.5887,2.59,2.5913,2.5978,2.5991,2.5991,2.5991,2.5991,2.6109,2.6651,2.6781,2.6912,2.7389,2.749,2.749,2.749,2.749,2.754,2.7739,2.7759,2.7822,2.7997,2.85,2.8664,2.7941,2.8935,2.9487,2.8773,2.9395,2.9923,2.9999,0.0,0.0,3.0374,3.0404,3.0419,3.0419,3.045,3.0733,3.132,3.1387,3.1701,3.2299,3.177,3.1811,3.2398,3.2398,3.2398,3.2367,3.1168,3.063,0.0,0.0,0.0,0.0,0.0,0.0,0.0,0.0,0.0,0.0,0.0,0.0,0.0,0.0,0.0,1.7564,1.8435,1.9228,1.9545,2.0306,2.0875,2.0992,2.1199,2.1577,2.2165,2.2713,2.2998,2.2886,2.3415,2.3607,2.3359,2.3505,2.3554,2.3448,2.3448,2.3433,2.3403,2.3241,2.3407,2.3887,2.3844,0.0,2.449,2.4591,2.4653,2.4653,2.4818,2.4952,2.5081,2.5227,2.5771,2.6468,2.589,2.5717,2.5809,2.5809,2.5809,2.5809,2.5809,2.5809,2.5887,2.6376,2.6533,2.6611,2.7049,2.7163,0.0,2.7163,2.7163,2.719,2.7324,2.735,2.7376,2.7477,2.749,2.749,2.749,2.749,2.7506,2.754,2.7556,2.7573,2.762,2.797,2.8229,2.8079,2.8151,2.8173,2.8009,2.8009,2.8225,2.8776,2.8855,2.9109,2.9658,2.9843,2.9935,2.9935,3.0149,3.0316,3.0451,3.1114,3.1531,3.1666,3.2024,3.2259,3.2398,3.2398,3.2398,3.2382,3.2136,3.2013,0.0,0.0,0.0,0.0,0.0,0.0,0.0,0.0,0.0,0.0,0.0,1.5961,1.6494,0.0,1.7857,1.8453,1.9028,1.9617,2.0257,2.0836,2.1197,2.1197,2.1874,2.2438,2.2682,2.3228,2.351,2.3465,2.3576,2.3611,2.3507,2.3495,2.3465,2.3403,2.3403,2.3512,2.37,2.3608,2.3838,2.439,2.439,2.454,2.4816,2.508,2.5193,2.5222,2.5593,2.5802,2.5873,2.6185,2.6517,2.6832,2.671,2.6641,2.6641,2.6641,2.6641,2.6641,2.6641,2.6641,2.671,2.7,2.7105,2.7157,2.7428,2.749,2.749,2.749,2.749,2.749,2.749,2.749,2.749,2.749,2.749,2.749,2.749,2.749,2.749,2.749,2.749,2.749,2.749,2.7669,2.7802,2.7802,2.7706,2.7656,2.7656,2.7656,2.7776,2.8121,2.8303,2.8532,2.8871,2.9091,2.9186,2.9186,2.9611,2.9845,2.9845,3.0585,3.0999,3.0999,3.1637,3.1779,3.145,3.209,3.223,3.195,3.2258,3.2398,0.0,0.0,0.0,0.0,0.0,0.0,0.0,1.4752,1.5211,1.5743,1.5965,1.6346,1.7341,1.773,1.8245,1.9234,1.9542,1.9978,2.0924,2.1243,2.137,2.1343,2.2413,2.315,2.311,2.3591,2.3876,2.3817,2.3552,2.342,2.3509,2.3405,2.3409,2.351,2.3523,2.3712,2.4155,2.4155,2.4415,2.4954,2.4954,2.5017,2.5143,2.5573,2.5778,2.5804,2.6405,2.6692,2.6714,2.7015,2.7113,2.7079,2.7302,2.7436,2.749,2.749,2.749,2.749,2.749,2.749,2.749,2.749,2.749,2.749,2.749,2.749,2.749,2.749,2.749,2.749,2.749,2.749,2.749,2.749,2.749,2.749,2.749,2.749,2.749,2.749,2.749,2.749,2.749,2.749,2.7506,2.754,2.7523,2.7536,2.762,2.7689,2.7772,2.7792,2.8006,2.814,2.814,2.8298,2.8392,2.8392,2.8885,2.919,2.9221,2.9903,3.0284,3.0299,3.097,3.1028,3.0509,3.1665,3.1908,3.1321,3.2062,3.2398,1.0802,1.1937,1.3181,1.3832,1.4393,1.4924,0.0,1.5565,1.5756,1.6298,1.6887,1.7354,1.7551,1.8378,1.9101,1.9362,2.0054,2.0633,2.0891,2.1782,2.2361,2.2191,2.2664,2.3162,2.3489,2.3763,2.3787,2.3478,2.3418,2.333,2.3168,2.3138,2.3376,2.3922,2.3935,2.4183,2.4704,2.4716,2.498,2.5511,2.5511,2.5791,2.6311,2.6373,2.6399,2.6399,2.6479,2.6589,2.6679,2.6624,2.6846,2.7251,2.7113,2.7248,2.749,2.749,2.749,2.749,2.749,2.749,2.749,2.749,2.749,2.749,2.749,2.749,2.749,2.749,2.749,2.749,2.749,2.749,2.749,2.749,2.749,2.749,2.749,2.749,2.749,2.749,2.749,2.749,2.749,2.749,2.7556,2.7739,2.7606,2.7636,2.7997,2.7736,2.7606,2.7776,2.7673,2.759,2.759,2.7606,2.7623,2.7623,2.7858,2.8072,2.8246,2.901,2.9485,2.9613,3.0269,3.0569,3.0509,3.1233,3.1262,3.0629,3.1836,3.2398,1.1973,1.2771,1.3526,1.436,1.4975,1.5427,1.5653,1.5944,1.6333,1.6909,1.7244,1.7631,1.8299,1.8852,1.9408,2.0054,2.0534,2.1078,2.1792,2.2203,2.2551,2.2894,2.3121,2.3299,2.3482,2.3552,2.3552,2.3418,2.3285,2.3183,2.3108,2.3421,2.3738,2.3991,2.429,2.4716,2.5272,2.5272,2.5548,2.6118,2.6118,2.626,2.6499,2.6499,2.6499,2.6499,2.6499,2.6521,2.6589,2.6607,2.6743,2.6964,2.713,2.7197,2.7231,2.7436,2.749,2.749,2.749,2.749,2.749,2.749,2.749,2.749,2.749,2.749,2.749,2.749,2.749,2.749,2.749,2.749,2.749,2.749,2.749,2.749,2.749,2.749,2.749,2.749,2.749,2.7611,2.7968,2.802,2.8188,2.8714,2.8039,2.757,2.7736,2.759,2.7573,2.7776,2.7723,2.7756,2.7957,2.7973,2.802,2.8118,2.8229,2.8311,2.839,2.8702,2.8912,2.8978,2.961,2.9749,2.9389,3.0419,3.0968,3.1106,3.2033,3.2884,1.2922,1.3442,1.3873,1.4896,1.5536,1.5919,1.5919,1.6358,1.6873,1.7311,1.7638,1.809,1.8919,1.922,1.9674,2.0594,2.0937,2.142,2.2383,2.252,2.2715,2.325,2.3328,2.3328,2.3328,2.3373,2.3373,2.3315,2.3168,2.317,2.3333,2.375,2.413,2.4431,2.4816,2.5297,2.5841,2.5854,2.6067,2.6499,2.6499,2.6499,2.6499,2.6499,2.6499,2.6499,2.6499,2.6499,2.6516,2.6607,2.6709,2.6811,2.7049,2.7146,2.7163,2.7369,2.7436,2.7453,2.749,2.749,2.749,2.749,2.749,2.749,2.749,2.749,2.749,2.749,2.749,2.749,2.749,2.749,2.7529,2.7715,2.7755,2.7794,2.7951,2.799,2.799,2.799,2.799,2.8137,2.8573,2.869,2.8886,2.9368,2.8676,2.8108,2.821,2.8176,2.8176,2.8281,2.8247,2.8314,2.8565,2.8582,2.8632,2.8792,2.8792,2.8808,2.8858,2.8858,2.8874,2.8927,2.9361,2.9377,2.8927,3.0022,3.0753,3.113,3.1977,3.2718,0.0,1.3828,1.443,1.551,1.6137,1.6486,1.6486,1.6936,1.7374,1.741,1.8229,1.8995,1.9168,1.9523,2.0026,2.0775,2.1225,2.1683,2.2234,2.2744,2.3083,2.3108,2.3108,2.3108,2.3108,2.3285,2.3315,2.3123,2.3108,2.3361,2.3941,2.3991,2.4481,2.5511,2.5561,2.5866,2.6461,2.6461,2.6474,2.6499,2.6499,2.6499,2.6499,2.6499,2.6499,2.6499,2.6499,2.6499,2.6499,2.6499,2.6705,2.696,2.6794,2.7019,2.7469,2.7352,2.7302,2.7319,2.7453,2.749,2.749,2.749,2.749,2.749,2.749,2.749,2.749,2.749,2.749,2.749,2.749,2.749,2.765,2.8233,2.8364,2.8534,2.9122,2.924,2.924,2.924,2.924,2.9253,2.9266,2.9443,2.9495,2.9328,2.9443,2.9649,2.9983,2.9858,2.9684,2.9561,2.9363,2.9258,2.9258,2.9258,2.9258,2.9275,2.9275,2.9346,2.9469,2.9469,2.9561,2.9771,2.9788,2.9775,2.9771,3.0395,3.0497,3.0169,3.1427,3.1472,0.0,1.4372,1.4956,1.563,1.6151,1.66,1.701,1.7248,1.76,1.8305,1.8744,1.912,1.9522,1.9711,2.0125,2.1135,2.1409,2.1807,2.2706,2.2995,2.3108,2.3108,2.3108,2.3108,2.3108,2.3153,2.3331,2.3662,2.3703,2.3938,2.4503,2.487,2.5222,2.5586,2.5979,2.6298,2.6499,2.6499,2.6499,2.6499,2.6499,2.6499,2.6499,2.6499,2.6499,2.6499,2.6499,2.6499,2.6499,2.6499,2.6568,2.6688,2.6841,2.693,2.7002,2.7319,2.7386,2.7319,2.7453,2.749,2.749,2.749,2.749,2.749,2.749,2.7781,2.8098,2.8098,2.8386,2.8686,2.8686,2.8686,2.8756,2.8952,2.8991,2.9057,2.9253,2.9292,2.9292,2.9292,2.9292,2.941,2.9766,2.9886,3.004,3.0378,2.983,2.9434,2.9557,2.9522,2.9451,2.9416,2.9345,2.9345,2.9434,2.9434,2.9487,2.9614,2.9632,2.9649,2.9702,2.9702,2.9737,2.9807,2.9807,2.9876,3.0002,3.02,3.0764,3.1639,3.1935,3.2331,1.3882,1.4524,1.5176,1.5467,1.6034,1.6668,1.7254,1.7538,1.7917,1.882,1.9146,1.9397,1.9748,1.9798,2.0175,2.1319,2.1507,2.187,2.2945,2.3108,2.3108,2.3108,2.3108,2.3108,2.3108,2.3296,2.3587,2.3966,2.4004,2.4318,2.5042,2.541,2.5703,2.5917,2.6298,2.6499,2.6499,2.6499,2.6499,2.6499,2.6499,2.6499,2.6499,2.6499,2.6499,2.6499,2.6499,2.6499,2.6499,2.6499,2.6568,2.6688,2.6773,2.7024,2.7332,2.7549,2.7811,2.8001,2.7868,2.782,2.7846,2.8068,2.8133,2.8133,2.8133,2.8412,2.8717,2.8717,2.9004,2.9292,2.9292,2.9292,2.9344,2.9536,2.9588,2.964,2.9868,2.9907,2.9907,2.9907,2.9907,3.0024,3.0354,3.0419,3.0587,3.1046,3.0414,2.9925,3.0015,3.0002,3.0002,3.0002,2.9943,2.9943,3.0033,3.0051,3.0087,3.0218,3.0236,3.0236,3.0236,3.0236,3.0236,3.0236,3.0236,3.0289,3.0419,3.0419,3.0962,3.2001,3.1944,3.2401,1.3573,1.4327,1.5097,1.5097,1.5799,1.6652,1.729,1.7787,1.8283,1.8909,1.9447,1.9798,1.9798,1.9798,2.0175,2.1319,2.1507,2.187,2.2945,2.3108,2.3108,2.3108,2.3108,2.3108,2.3108,2.365,2.4004,2.4042,2.4067,2.4531,2.5603,2.5653,2.5904,2.6474,2.6499,2.6499,2.6499,2.6499,2.6499,2.6499,2.6499,2.6499,2.6499,2.6499,2.6499,2.6499,2.6499,2.6499,2.6499,2.6499,2.67,2.6977,2.6674,2.7314,2.8356,2.807,2.8524,2.9209,2.8678,2.8468,2.8534,2.9109,2.9292,2.9292,2.9292,2.9318,2.9344,2.9344,2.9358,2.9384,2.9384,2.9384,2.9528,3.0027,3.014,3.0302,3.0869,3.1005,3.1005,3.1005,3.1005,3.1005,3.1005,3.1005,3.1061,3.1254,3.1104,3.108,3.1254,3.1272,3.1272,3.1272,3.1118,3.1005,3.1005,3.1005,3.1005,3.1005,3.1005,3.1005,3.1005,3.1005,3.1005,3.1005,3.1005,3.1005,3.1024,3.1024,3.1104,3.1328,3.1503,3.1688,1.3586,1.4327,1.5097,1.5048,1.5775,1.6751,1.7702,1.8014,1.8379,1.9382,1.971,1.9798,1.9798,1.9798,2.0175,2.1319,2.1507,2.187,2.2945,2.3108,2.3108,2.3108,2.3108,2.3108,2.3108,2.365,2.4167,2.4566,2.4971,2.5515,2.6235,2.6273,2.6336,2.6504,2.6499,2.6499,2.6499,2.6499,2.6499,2.6499,2.6499,2.6499,2.6499,2.6499,2.6499,2.6499,2.6499,2.6499,2.6499,2.6499,2.679,2.7238,2.7303,2.7756,2.8431,2.864,2.8855,2.9131,2.9529,2.9405,2.9096,2.924,2.9292,2.9292,2.9292,2.9575,2.9897,2.9897,3.0228,3.0574,3.0574,3.0574,3.06,3.0738,3.0764,3.0803,3.0979,3.1005,3.1005,3.1005,3.1005,3.1005,3.1005,3.1005,3.1024,3.108,3.1024,3.1024,3.108,3.108,3.108,3.108,3.1024,3.1005,3.1005,3.1005,3.1005,3.1005,3.1005,3.1005,3.1005,3.1005,3.1005,3.1005,3.1005,3.108,3.1216,3.1216,3.1402,3.173,3.149,3.1471,1.3609,1.4327,1.5143,1.5349,1.5932,1.6738,1.7851,1.7899,1.8028,1.9205,1.9448,1.9526,1.9772,1.9798,2.0175,2.1319,2.1507,2.187,2.2945,2.3108,2.3108,2.3108,2.3108,2.3208,2.3474,2.4014,2.4566,2.5105,2.5435,2.5866,2.6461,2.6499,2.6499,2.6499,2.6499,2.6499,2.6499,2.6499,2.6499,2.6499,2.6499,2.6499,2.6499,2.6499,2.6499,2.6499,2.6499,2.6637,2.6851,2.6851,2.7226,2.7783,2.7819,2.8323,2.9025,2.9165,2.9497,2.9939,3.0343,3.0294,3.0051,3.0051,3.0051,3.0051,3.0051,3.0255,3.0484,3.0484,3.0738,3.1005,3.1005,3.1005,3.1005,3.1005,3.1005,3.1005,3.1005,3.1005,3.1005,3.1005,3.1005,3.1005,3.1005,3.1005,3.1005,3.1005,3.1005,3.1005,3.1005,3.1005,3.1005,3.1005,3.1005,3.1005,3.1005,3.1005,3.1005,3.1005,3.1005,3.1005,3.1005,3.1005,3.1005,3.1005,3.1005,3.1061,3.1161,3.1161,3.1272,3.149,3.1365,3.1347,1.3692,1.4385,1.5211,1.5678,1.6098,1.6703,1.7841,1.7705,1.7658,1.8869,1.9106,1.9239,1.9708,1.9798,2.0175,2.1319,2.1507,2.187,2.2945,2.3108,2.3108,2.3108,2.3108,2.3349,2.3941,2.449,2.5017,2.5548,2.5661,2.5954,2.6461,2.6499,2.6499,2.6499,2.6499,2.6499,2.6499,2.6499,2.6499,2.6499,2.6499,2.6499,2.6499,2.6499,2.6537,2.66,2.66,2.6914,2.7412,2.7412,2.7841,2.8455,2.8296,2.89,2.9829,2.9694,3.0221,3.0968,3.0986,3.0917,3.0842,3.0968,3.1005,3.1005,3.1005,3.1005,3.1005,3.1005,3.1005,3.1005,3.1005,3.1005,3.1005,3.1005,3.1005,3.1005,3.1005,3.1071,3.1123,3.1123,3.1156,3.1227,3.1227,3.1227,3.1227,3.1227,3.1227,3.1227,3.1227,3.1097,3.1005,3.1005,3.1005,3.1005,3.1005,3.1005,3.1005,3.1005,3.1005,3.1005,3.1005,3.1005,3.1005,3.1005,3.1005,3.1005,3.1005,3.1005,3.1005,3.1043,3.1258,3.1391,1.414,1.4674,1.5107,1.5151,1.578,1.6706,1.7841,1.801,1.8271,1.9423,1.9656,1.9695,1.9773,1.9798,2.0175,2.1319,2.1507,2.187,2.2945,2.3108,2.3108,2.3108,2.3108,2.3349,2.3941,2.449,2.5017,2.5548,2.6055,2.6386,2.6487,2.6499,2.6499,2.6499,2.6499,2.6499,2.6499,2.6499,2.6499,2.6499,2.6499,2.6499,2.6499,2.6499,2.6738,2.716,2.716,2.7474,2.7959,2.7959,2.8298,2.8825,2.8961,2.9434,3.0075,3.0373,3.0588,3.0773,3.093,3.0527,3.0043,3.0766,3.1005,3.1005,3.1005,3.1005,3.1005,3.1005,3.1005,3.1005,3.1005,3.1005,3.1005,3.1005,3.1005,3.1005,3.1005,3.1346,3.1654,3.1654,3.2052,3.2417,3.2417,3.2417,3.2417,3.2417,3.2417,3.2417,3.2417,3.1594,3.1005,3.1005,3.1005,3.1005,3.1005,3.1005,3.1005,3.1005,3.1005,3.1005,3.1005,3.1005,3.1005,3.1005,3.1005,3.1005,3.1005,3.1005,3.1099,3.1267,3.1565,3.1807,1.4245,1.4743,1.5154,1.5408,1.5938,1.6635,1.7491,1.7446,1.7529,1.8685,1.8924,1.9096,1.9695,1.9798,2.0075,2.0942,2.1319,2.1782,2.2571,2.292,2.3108,2.3108,2.3108,2.3446,2.4327,2.4653,2.5143,2.6005,2.6336,2.6499,2.6499,2.6499,2.6499,2.6499,2.6499,2.6499,2.6499,2.6499,2.6499,2.6499,2.6499,2.6499,2.6499,2.6788,2.7047,2.7324,2.7613,2.8076,2.8672,2.8555,2.8975,2.9656,2.9555,2.9872,3.0362,2.9992,2.9999,3.0133,2.9762,2.9665,2.9762,3.0177,3.0324,3.0413,3.0861,3.1005,3.1005,3.1005,3.1005,3.1052,3.1333,3.1412,3.1509,3.1797,3.1875,3.1875,3.1875,3.2084,3.2261,3.2261,3.2502,3.2685,3.2685,3.2685,3.2685,3.2685,3.2685,3.2685,3.2685,3.2215,3.1875,3.1875,3.1614,3.1412,3.1412,3.1156,3.1005,3.1005,3.1005,3.1005,3.1005,3.1005,3.1005,3.1005,3.1005,3.1005,3.1005,3.1005,3.1187,3.1564,3.1737,3.2012,1.4245,1.4743,1.5165,1.5481,1.598,1.652,1.7031,1.6759,1.6784,1.8026,1.8212,1.8488,1.9593,1.9798,2.0,2.0591,2.1157,2.1696,2.2219,2.2757,2.3108,2.3108,2.3108,2.3547,2.4691,2.4804,2.5272,2.6411,2.6499,2.6499,2.6499,2.6499,2.6499,2.6499,2.6499,2.6516,2.6538,2.6516,2.6516,2.6538,2.6516,2.6562,2.6688,2.7097,2.7437,2.7657,2.8121,2.8698,2.9315,2.9252,2.965,3.0235,3.0068,3.026,3.0514,2.9581,2.9549,2.9839,2.8978,2.9128,2.9723,2.9928,2.9986,3.0101,3.0785,3.1065,3.1169,3.1169,3.1261,3.1457,3.1882,3.198,3.2117,3.2594,3.2685,3.2685,3.2685,3.279,3.2881,3.2881,3.2986,3.3051,3.3051,3.3051,3.3051,3.3051,3.3051,3.3051,3.3051,3.3051,3.3051,3.3051,3.2417,3.198,3.198,3.1614,3.1352,3.1352,3.1235,3.1169,3.1169,3.1052,3.1005,3.1005,3.1005,3.1071,3.1169,3.1169,3.1438,3.1993,3.2143,3.243,1.4245,1.4743,1.4993,1.4561,1.5434,1.6453,1.6622,1.6571,1.6953,1.857,1.857,1.8602,1.9608,1.9798,2.0,2.0591,2.1157,2.1696,2.2219,2.2757,2.3108,2.3108,2.3108,2.3547,2.4691,2.4804,2.5272,2.6411,2.6499,2.6499,2.6499,2.6499,2.6499,2.6499,2.6499,2.6555,2.6692,2.6555,2.6555,2.6692,2.6555,2.6763,2.7223,2.7273,2.7821,2.8769,2.8999,2.9334,2.9762,3.0133,3.0101,2.9908,3.0413,3.0533,3.0368,2.9832,3.0158,3.0766,2.9877,2.9626,2.9819,3.0621,3.0879,3.0911,3.0986,3.1333,3.1732,3.1732,3.2117,3.2574,3.2594,3.262,3.262,3.2685,3.2685,3.2685,3.2685,3.3117,3.3509,3.3509,3.3901,3.4241,3.4241,3.4241,3.4241,3.4241,3.4241,3.4241,3.4241,3.4241,3.4241,3.4241,3.326,3.262,3.262,3.2568,3.2542,3.2542,3.2026,3.1732,3.1732,3.1261,3.1005,3.1005,3.1005,3.1248,3.1732,3.1732,3.2039,3.262,3.3169,3.3456,1.4245,1.4743,1.4983,1.4483,1.5417,1.6395,1.6178,1.6069,1.6387,1.77,1.7574,1.765,1.9057,1.9316,1.9496,2.0073,0.0,2.157,2.1782,2.2558,2.3108,2.3108,2.3108,2.3547,2.4691,2.4804,2.5272,2.6411,2.6572,2.6589,2.6499,2.6499,2.6499,2.6499,2.6499,2.6555,2.6696,2.6658,2.6658,2.6709,2.7138,2.7343,2.7324,2.8086,2.861,2.8932,2.9366,2.9796,3.0152,3.0056,3.0228,3.0495,3.0394,3.0514,3.0653,2.9825,2.9813,3.0082,2.9225,2.9507,3.031,3.0654,3.1332,3.1954,3.1582,3.1882,3.2326,3.2326,3.2515,3.2777,3.3143,3.347,3.3718,3.3718,3.3718,3.3718,3.3718,3.3901,3.4071,3.4071,3.4254,3.4397,3.4397,3.4397,3.4397,3.4397,3.4397,3.4397,3.4397,3.4397,3.4397,3.4397,3.3705,3.3234,3.3234,3.2914,3.2685,3.2685,3.2476,3.2326,3.2326,3.2136,3.2025,3.2025,3.2025,3.2123,3.2326,3.2326,3.2659,3.3247,3.3483,3.3757,1.4058,1.4628,1.4994,1.4512,1.5464,1.6384,1.5905,1.5641,1.5838,1.7075,1.6785,1.6875,1.8672,1.9,1.9234,0.0,0.0,2.1557,2.1707,2.2521,2.3108,2.3108,2.3258,2.3766,2.4784,2.5174,2.569,2.6505,2.6607,2.6641,2.6653,2.6589,2.6538,2.6499,2.6602,2.6658,2.6696,2.6696,2.6819,2.7066,2.7513,2.7794,2.7976,2.8747,2.9201,2.9359,2.9795,3.0094,3.0292,3.0203,3.0381,3.0704,3.0457,3.059,3.0798,2.9845,2.9736,2.9992,2.9293,2.9891,3.0991,3.1156,3.2008,3.2881,3.2457,3.2626,3.296,3.296,3.3064,3.33,3.3738,3.411,3.4397,3.4397,3.4397,3.4397,3.4397,3.4397,3.4397,3.4397,3.4397,3.4397,3.4397,3.4397,3.4397,3.4397,3.4397,3.4397,3.4397,3.4397,3.4397,3.4397,3.4058,3.3835,3.3835,3.3443,3.3195,3.3195,3.3038,3.296,3.296,3.279,3.2685,3.2685,3.2685,3.2777,3.296,3.296,3.326,3.3835,3.3835,3.4031,1.3609,1.4339,1.4994,1.4512,1.5464,1.6381,1.5909,1.5394,1.546,1.708,1.6595,1.6544,1.8623,1.9,1.9368,2.0511,2.1157,0.0,2.2219,2.2757,2.3108,2.3108,2.3625,2.4283,2.5017,2.6054,2.6696,2.6696,2.6572,2.6653,2.699,2.6811,2.6641,2.6499,2.6824,2.6892,2.6696,2.6696,2.7109,2.7879,2.7493,2.8075,2.9454,2.9076,2.9454,3.0375,3.0394,3.0273,0.0,3.0742,3.0647,3.0171,3.0761,3.0855,3.0609,2.9947,3.0235,3.0952,3.0664,3.1103,3.1902,3.2483,3.3091,3.3587,3.3574,3.3594,3.3587,3.3587,3.3966,3.4384,3.4384,3.4397,3.4397,3.4397,3.4397,3.4397,3.4397,3.4397,3.4397,3.4397,3.4397,3.4397,3.4397,3.4397,3.4397,3.4397,3.4397,3.4397,3.4397,3.4397,3.4397,3.4397,3.4397,3.4384,3.4384,3.4384,3.4384,3.4384,3.3875,3.3587,3.3587,3.3032,3.2685,3.2685,3.2685,3.2986,3.3587,3.3587,3.3862,3.4384,3.4384,3.4384,1.3609,1.4105,1.4501,1.3987,1.4959,1.5904,1.5436,1.5188,1.551,1.7073,1.6268,1.6049,1.8536,1.8653,1.8888,2.0444,2.1157,2.1696,2.2219,2.2757,2.3108,2.3108,2.3963,2.4834,2.5572,2.6295,2.6696,2.6696,2.6914,2.6964,2.6794,2.707,2.7117,2.6841,2.6943,2.7045,2.7117,2.7456,2.7786,2.8049,2.8836,2.9231,2.93,2.9876,3.0082,3.0011,3.0273,3.0368,3.0311,3.0501,3.0647,3.0723,3.0761,3.0849,3.0874,3.0672,3.0994,3.153,3.1442,3.2123,3.3064,3.3247,3.3692,3.4149,3.4149,3.4149,3.4149,3.4149,3.4267,3.4397,3.4397,3.4397,3.4397,3.4397,3.4397,3.4397,3.4397,3.4397,3.4397,3.4397,3.4397,3.4397,3.4397,3.4397,3.4397,3.4397,3.4397,3.4397,3.4397,3.4397,3.4397,3.4397,3.4397,3.4397,3.4397,3.4397,3.4397,3.4397,3.4241,3.4149,3.4149,3.3953,3.3862,3.3862,3.3862,3.3953,3.4149,3.4149,3.4228,3.4397,3.4397,3.4397,0.0,1.4117,1.4547,1.4034,1.4858,1.5711,1.5434,1.5085,1.5314,1.706,1.611,1.5817,1.8511,1.851,1.8732,2.0691,2.1281,2.1757,2.2508,2.2895,2.3258,2.3684,2.4551,2.5385,2.613,2.6629,2.693,2.693,2.7083,2.7134,2.7002,2.7268,2.7352,2.7197,2.7197,2.73,2.7524,2.7907,2.8312,2.8752,2.95,2.9879,2.9899,3.0366,3.0457,3.026,3.0438,3.0501,0.0,3.0596,3.0729,3.0874,3.083,3.0892,3.1031,3.1222,3.1516,3.1863,3.2326,3.2966,3.3626,3.3835,3.4123,3.4397,3.4397,3.4397,3.4397,3.4397,3.4397,3.4397,3.4397,3.4397,3.4397,3.4397,3.4397,3.4397,3.4397,3.4397,3.4397,3.4397,3.4397,3.4397,3.4397,3.4397,3.4397,3.4397,3.4397,3.4397,3.4397,3.4397,3.4397,3.4397,3.4397,3.4397,3.4397,3.4397,3.4397,3.4397,3.4397,3.4397,3.4397,3.4397,3.4397,3.4397,3.4397,3.4397,3.4397,3.4397,3.4397,3.4397,3.4397,3.4397,0.0,0.0,0.0,0.0,0.0,0.0,1.5711,1.5108,0.0,1.7018,1.6179,1.5923,1.856,1.8558,1.8899,2.1138,2.1532,2.192,2.2957,2.3108,2.3521,2.4682,2.5256,2.5865,2.6646,2.7066,2.7302,2.7302,2.7146,2.718,2.7469,2.7386,2.7369,2.749,2.749,2.7642,2.7931,2.8092,2.8731,2.9818,2.9685,3.0093,3.0968,3.0615,3.0634,3.0949,3.0792,3.0717,3.0717,3.0911,3.0892,3.0736,3.093,3.1031,3.1117,3.1621,3.185,3.2084,3.3208,3.3613,3.3731,3.4241,3.4397,3.4397,3.4397,3.4397,3.4397,3.4397,3.4397,3.4397,3.4397,3.4397,3.4397,3.4397,3.4397,3.4397,3.4397,3.4397,3.4397,3.4397,3.4397,3.4397,3.4397,3.4397,3.4397,3.4397,3.4397,3.4397,3.4397,3.4397,3.4397,3.4397,3.4397,3.4397,3.4397,3.4397,3.4397,3.4397,3.4397,3.4397,3.4397,3.4397,3.4397,3.4397,3.4397,3.4397,3.4397,3.4397,3.4397,3.4397,3.4397,3.4397,0.0,0.0,0.0,0.0,0.0,0.0,0.0,0.0,0.0,0.0,0.0,1.6852,1.9178,1.9123,1.9324,2.12,2.1845,2.2332,2.3007,2.3108,2.3555,2.4804,2.5116,2.5671,2.6824,2.7163,2.7302,2.7302,2.7352,2.7369,2.7352,2.7419,2.7469,2.749,2.749,2.776,2.8282,2.8773,2.936,3.0033,3.0457,3.0687,3.0773,3.0836,3.0748,3.0558,3.0817,3.0849,3.0717,3.0911,3.0968,3.093,3.0986,3.1248,3.1634,3.1745,3.2391,3.3221,3.3496,3.3862,3.4228,3.4358,3.4397,3.4397,3.4397,3.4397,3.4397,3.4397,3.4397,3.4397,3.4397,3.4397,3.4397,3.4397,3.4397,3.4397,3.4397,3.4397,3.4397,3.4397,3.4397,3.4397,3.4397,3.4397,3.4397,3.4397,3.4397,3.4397,3.4397,3.4397,3.4397,3.4397,3.4397,3.4397,3.4397,3.4397,3.4397,3.4397,3.4397,3.4397,3.4397,3.4397,3.4397,3.4397,3.4397,3.4397,3.4397,3.4397,3.4397,3.4397,3.4397,3.4397,0.0,0.0,0.0,0.0,0.0,0.0,0.0,0.0,0.0,0.0,0.0,1.7591,1.9815,1.9714,1.9869,2.159,2.2193,2.2612,2.3152,2.3518,2.406,2.4941,2.5509,2.6168,2.7056,2.7285,2.7386,2.7386,2.7469,2.7469,2.7403,2.7469,2.749,2.749,2.7768,2.8203,2.8808,2.9135,2.9706,3.0511,3.083,3.093,3.0849,3.0949,3.0892,3.0691,3.0911,3.093,3.0849,3.0968,3.1005,3.1005,3.1005,3.1339,3.1836,3.2117,3.2803,3.3647,3.3875,3.4162,3.4397,3.4397,3.4397,3.4397,3.4397,3.4397,3.4397,3.4397,3.4397,3.4397,3.4397,3.4397,3.4397,3.4397,3.4397,3.4397,3.4397,3.4397,3.4397,3.4397,3.4397,3.4397,3.4397,3.4397,3.4397,3.4397,3.4397,3.4397,3.4397,3.4397,3.4397,3.4397,3.4397,3.4397,3.4397,3.4397,3.4397,3.4397,3.4397,3.4397,3.4397,3.4397,3.4397,3.4397,3.4397,3.4397,3.4397,3.4397,3.4397,3.4397,3.4397,3.4397,0.0,0.0,0.0,0.0,0.0,0.0,0.0,0.0,0.0,0.0,0.0,1.8278,2.0357,2.0293,2.0452,2.2074,2.2557,2.2887,2.3357,2.4055,2.4666,2.5116,2.6049,2.6814,2.7267,2.7419,2.749,2.749,2.749,2.749,2.749,2.749,2.749,2.749,2.8085,2.8691,2.9292,2.9384,2.9959,3.1005,3.1005,3.1005,3.1005,3.1005,3.1005,3.1005,3.1005,0.0,3.1005,3.1005,3.1005,3.1018,3.1097,3.1451,3.2006,3.262,3.3208,3.3783,3.4241,3.4397,3.4397,3.4397,3.4397,3.4397,3.4397,3.4397,3.4397,3.4397,3.4397,3.4397,3.4397,3.4397,3.4397,3.4397,3.4397,3.4397,3.4397,3.4397,3.4397,3.4397,3.4397,3.4397,3.4397,3.4397,3.4397,3.4397,3.4397,3.4397,3.4397,3.4397,3.4397,3.4397,3.4397,3.4397,3.4397,3.4397,3.4397,3.4397,3.4397,3.4397,3.4397,3.4397,3.4397,3.4397,3.4397,3.4397,3.4397,3.4397,3.4397,3.4397,3.4397,3.4397,1.4145,1.4685,1.5017,1.5085,0.0,0.0,0.0,0.0,0.0,0.0,0.0,1.9193,2.0619,2.0646,2.0937,2.2337,2.2959,2.3346,2.3541,2.4102,2.4728,2.5359,2.6023,2.667,2.725,2.7419,2.749,2.749,2.749,2.749,2.749,2.749,2.749,2.749,2.8085,2.8691,2.9292,2.974,3.0315,3.1005,3.1005,3.1005,3.1005,3.1005,3.1005,3.1005,0.0,3.1005,3.1005,3.1005,3.1005,3.1057,3.1503,3.2039,3.2633,3.3234,3.3796,3.4293,3.4371,3.4397,3.4397,3.4397,3.4397,3.4397,3.4397,3.4397,3.4397,3.4397,3.4397,3.4397,3.4397,3.4397,3.4397,3.4397,3.4397,3.4397,3.4397,3.4397,3.4397,3.4397,3.4397,3.4397,3.4397,3.4397,3.4397,3.4397,3.4397,3.4397,3.4397,3.4397,3.4397,3.4397,3.4397,3.4397,3.4397,3.4397,3.4397,3.4397,3.4397,3.4397,3.4397,3.4397,3.4397,3.4397,3.4397,3.4397,3.4397,3.4397,3.4397,3.4397,3.4397,3.4397,1.421,1.4926,1.5493,1.5522,0.0,0.0,0.0,0.0,0.0,0.0,0.0,0.0,2.1154,2.1515,2.2036,2.3138,2.343,2.3671,2.4131,2.4702,2.5316,2.5919,2.6586,2.709,2.7377,2.7469,2.749,2.749,2.749,2.749,2.749,2.749,2.749,2.749,2.8399,2.9018,2.9292,3.0163,3.0725,3.1005,3.1005,3.1005,3.1005,3.1005,3.1005,3.1005,0.0,3.1005,3.1005,3.1005,3.1005,3.1039,3.1595,3.2169,3.2803,3.3692,3.4188,3.4397,3.4397,3.4397,3.4397,3.4397,3.4397,3.4397,3.4397,3.4397,3.4397,3.4397,3.4397,3.4397,3.4397,3.4397,3.4397,3.4397,3.4397,3.4397,3.4397,3.4397,3.4397,3.4397,3.4397,3.4397,3.4397,3.4397,3.4397,3.4397,3.4397,3.4397,3.4397,3.4397,3.4397,3.4397,3.4397,3.4397,3.4397,3.4397,3.4397,3.4397,3.4397,3.4397,3.4397,3.4397,3.4397,3.4397,3.4397,3.4397,3.4397,3.4397,3.4397,3.4397,3.4397,3.4397,1.4471,1.5254,1.5987,1.6056,0.0,0.0,0.0,0.0,0.0,0.0,0.0,2.1,2.185,2.2504,2.3112,2.3725,2.3848,2.4052,2.4613,2.5361,2.6015,2.6418,2.7088,2.749,2.749,2.749,2.749,2.749,2.749,2.749,2.749,2.749,2.749,2.749,2.8673,2.9292,2.9292,3.043,3.1005,3.1005,3.1005,3.1005,3.1005,3.1005,3.1005,3.1005,3.1005,3.1005,3.1005,3.1005,3.1065,3.1248,3.1804,3.2457,3.3195,3.4071,3.4397,3.4397,3.4397,3.4397,3.4397,3.4397,3.4397,3.4397,3.4397,3.4397,3.4397,3.4397,3.4397,3.4397,3.4397,3.4397,3.4397,3.4397,3.4397,3.4397,3.4397,3.4397,3.4397,3.4397,3.4397,3.4397,3.4397,3.4397,3.4397,3.4397,3.4397,3.4397,3.4397,3.4397,3.4397,3.4397,3.4397,3.4397,3.4397,3.4397,3.4397,3.4397,3.4397,3.4397,3.4397,3.4397,3.4397,3.4397,3.4397,3.4397,3.4397,3.4397,3.4397,3.4397,3.4397,3.4397,1.5037,1.5735,1.6473,1.653,1.6952,0.0,1.8646,1.9032,0.0,2.0547,0.0,2.1302,2.2654,2.3396,2.3765,2.3643,2.4172,2.4641,2.4693,2.5808,2.6651,2.6661,2.7167,2.749,2.749,2.749,2.749,2.749,2.749,2.749,2.749,2.749,2.749,2.749,2.8673,2.9292,2.9292,3.043,3.1005,3.1005,3.1005,3.1005,3.1005,3.1005,3.1005,3.1005,3.1005,3.1005,3.1005,3.1005,3.13,3.1797,3.2411,3.33,3.428,3.4371,3.4397,3.4397,3.4397,3.4397,3.4397,3.4397,3.4397,3.4397,3.4397,3.4397,3.4397,3.4397,3.4397,3.4397,3.4397,3.4397,3.4397,3.4397,3.4397,3.4397,3.4397,3.4397,3.4397,3.4397,3.4397,3.4397,3.4397,3.4397,3.4397,3.4397,3.4397,3.4397,3.4397,3.4397,3.4397,3.4397,3.4397,3.4397,3.4397,3.4397,3.4397,3.4397,3.4397,3.4397,3.4397,3.4397,3.4397,3.4397,3.4397,3.4397,3.4397,3.4397,3.4397,3.4397,3.4397,3.4397,1.5096,1.5884,1.6754,1.7085,1.7844,0.0,0.0,1.9421,1.9953,2.0833,2.1226,0.0,2.3289,2.3808,2.3995,2.3922,2.4463,2.5003,2.534,2.6132,2.6821,2.7157,2.7389,2.749,2.749,2.749,2.749,2.749,2.749,2.749,2.749,2.749,2.749,2.749,2.8673,2.9292,2.9292,3.043,3.1005,3.1005,3.1005,3.1005,3.1005,3.1005,3.1005,3.1005,3.1005,3.1005,3.1005,3.1005,3.1326,3.1902,3.2881,3.3731,3.4397,3.4397,3.4397,3.4397,3.4397,3.4397,3.4397,3.4397,3.4397,3.4397,3.4397,3.4397,3.4397,3.4397,3.4397,3.4397,3.4397,3.4397,3.4397,3.4397,3.4397,3.4397,3.4397,3.4397,3.4397,3.4397,3.4397,3.4397,3.4397,3.4397,3.4397,3.4397,3.4397,3.4397,3.4397,3.4397,3.4397,3.4397,3.4397,3.4397,3.4397,3.4397,3.4397,3.4397,3.4397,3.4397,3.4397,3.4397,3.4397,3.4397,3.4397,3.4397,3.4397,3.4397,3.4397,3.4397,3.4397,3.4397,1.5558,1.6287,1.7131,1.771,0.0,0.0,1.9544,1.9991,2.0564,2.1299,2.1992,2.2748,2.3719,2.4008,2.4163,2.4347,2.487,2.5448,2.6007,2.6582,2.7092,2.7451,2.749,2.749,2.749,2.749,2.749,2.749,2.749,2.749,2.749,2.749,2.749,2.749,2.8673,2.9292,2.9292,3.043,3.1005,3.1005,3.1005,3.1005,3.1005,3.1005,3.1005,3.1005,3.1005,3.1005,3.1018,3.1182,3.1686,3.247,3.347,3.4071,3.4397,3.4397,3.4397,3.4397,3.4397,3.4397,3.4397,3.4397,3.4397,3.4397,3.4397,3.4397,3.4397,3.4397,3.4397,3.4397,3.4397,3.4397,3.4397,3.4397,3.4397,3.4397,3.4397,3.4397,3.4397,3.4397,3.4397,3.4397,3.4397,3.4397,3.4397,3.4397,3.4397,3.4397,3.4397,3.4397,3.4397,3.4397,3.4397,3.4397,3.4397,3.4397,3.4397,3.4397,3.4397,3.4397,3.4397,3.4397,3.4397,3.4397,3.4397,3.4397,3.4397,3.4397,3.4397,3.4397,3.4397,3.4397,1.6523,1.7038,1.7606,1.8406,0.0,0.0,2.0307,2.0811,2.1312,2.2053,2.3217,2.4067,2.3935,2.4023,2.4308,2.49,2.5458,2.6018,2.6611,2.717,2.749,2.749,2.749,2.749,2.749,2.749,2.749,2.749,2.749,2.749,2.749,2.749,2.749,2.749,2.8673,2.9292,2.9292,3.043,3.1005,3.1005,3.1005,3.1005,3.1005,3.1005,3.1005,3.1005,3.1005,3.1005,3.1044,3.1595,3.2522,3.3639,3.4188,3.4397,3.4397,3.4397,3.4397,3.4397,3.4397,3.4397,3.4397,3.4397,3.4397,3.4397,3.4397,3.4397,3.4397,3.4397,3.4397,3.4397,3.4397,3.4397,3.4397,3.4397,3.4397,3.4397,3.4397,3.4397,3.4397,3.4397,3.4397,3.4397,3.4397,3.4397,3.4397,3.4397,3.4397,3.4397,3.4397,3.4397,3.4397,3.4397,3.4397,3.4397,3.4397,3.4397,3.4397,3.4397,3.4397,3.4397,3.4397,3.4397,3.4397,3.4397,3.4397,3.4397,3.4397,3.4397,3.4397,3.4397,3.4397,3.4397,1.5921,1.6884,1.7871,1.8342,1.9297,2.0282,0.0,2.1081,0.0,0.0,2.3489,2.4083,2.4052,2.4409,2.4781,2.4966,2.5801,2.6507,2.668,2.717,2.749,2.749,2.749,2.749,2.749,2.749,2.749,2.749,2.749,2.749,2.749,2.749,2.749,2.749,2.8673,2.9292,2.9292,3.043,3.1005,3.1005,3.1005,3.1005,3.1005,3.1005,3.1005,3.1005,3.1005,3.1005,3.1071,3.2032,3.2894,3.3639,3.4188,3.4397,3.4397,3.4397,3.4397,3.4397,3.4397,3.4397,3.4397,3.4397,3.4397,3.4397,3.4397,3.4397,3.4397,3.4397,3.4397,3.4397,3.4397,3.4397,3.4397,3.4397,3.4397,3.4397,3.4397,3.4397,3.4397,3.4397,3.4397,3.4397,3.4397,3.4397,3.4397,3.4397,3.4397,3.4397,3.4397,3.4397,3.4397,3.4397,3.4397,3.4397,3.4397,3.4397,3.4397,3.4397,3.4397,3.4397,3.4397,3.4397,3.4397,3.4397,3.4397,3.4397,3.4397,3.4397,3.4397,3.4397,3.4397,3.4397,1.6298,1.7352,1.8299,1.8837,1.9739,2.0719,2.1549,2.1834,2.2221,2.3224,2.3791,2.4098,2.4098,2.4598,2.507,2.5278,2.6088,2.6768,2.6987,2.7298,2.749,2.749,2.749,2.749,2.749,2.749,2.749,2.749,2.749,2.749,2.749,2.749,2.749,2.749,2.8673,2.9292,2.9292,3.043,3.1005,3.1005,3.1005,3.1005,3.1005,3.1005,3.1005,3.1005,3.1005,3.1267,3.1737,3.2431,3.3169,3.394,3.4267,3.4397,3.4397,3.4397,3.4397,3.4397,3.4397,3.4397,3.4397,3.4397,3.4397,3.4397,3.4397,3.4397,3.4397,3.4397,3.4397,3.4397,3.4397,3.4397,3.4397,3.4397,3.4397,3.4397,3.4397,3.4397,3.4397,3.4397,3.4397,3.4397,3.4397,3.4397,3.4397,3.4397,3.4397,3.4397,3.4397,3.4397,3.4397,3.4397,3.4397,3.4397,3.4397,3.4397,3.4397,3.4397,3.4397,3.4397,3.4397,3.4397,3.4397,3.4397,3.4397,3.4397,3.4397,3.4397,3.4397,3.4397,3.4397,3.4397,1.7176,1.8076,1.8744,1.9572,2.0236,2.0978,2.2138,2.2857,2.3445,2.3993,2.4098,2.4124,2.4163,2.4676,2.5251,2.5782,2.6373,2.6951,2.7441,2.749,2.749,2.749,2.749,2.749,2.749,2.749,2.749,2.749,2.749,2.749,2.749,2.749,2.749,2.749,2.8673,2.9292,2.9292,3.043,3.1005,3.1005,3.1005,3.1005,3.1005,3.1005,3.1005,3.1005,3.1005,3.1659,3.2685,3.2685,3.3365,3.4397,3.4397,3.4397,3.4397,3.4397,3.4397,3.4397,3.4397,3.4397,3.4397,3.4397,3.4397,3.4397,3.4397,3.4397,3.4397,3.4397,3.4397,3.4397,3.4397,3.4437,3.4476,3.4476,3.4476,3.4476,3.4476,3.4476,3.4463,3.441,3.4397,3.4397,3.4397,3.4397,3.4397,3.4397,3.4397,3.4397,3.4397,3.4397,3.4397,3.4397,3.4397,3.4397,3.4397,3.4397,3.4397,3.4397,3.4397,3.4397,3.4397,3.4397,3.4397,3.4397,3.4397,3.4397,3.4397,3.4397,3.4397,3.4397,3.4397,3.4397,1.6562,1.7553,1.8374,1.939,2.0834,2.206,2.2334,2.3183,2.3941,2.4071,2.4098,2.4228,2.4715,2.5249,2.5824,2.6415,2.6974,2.7376,2.7477,2.749,2.749,2.749,2.749,2.749,2.749,2.749,2.749,2.749,2.749,2.749,2.749,2.749,2.749,2.749,2.8673,2.9292,2.9292,3.043,3.1005,3.1005,3.1005,3.1005,3.1005,3.1005,3.1005,3.1005,3.1005,3.1659,3.2685,3.2685,3.3365,3.4397,3.4397,3.4397,3.4397,3.4397,3.4397,3.4397,3.4397,3.4397,3.4397,3.4397,3.4397,3.4397,3.4397,3.4397,3.4397,3.4397,3.4397,3.4397,3.4397,3.475,3.5103,3.5103,3.5103,3.5103,3.5103,3.5103,3.4959,3.4489,3.4397,3.4397,3.4397,3.4397,3.4397,3.4397,3.4397,3.4397,3.4397,3.4397,3.4397,3.4397,3.4397,3.4397,3.4397,3.4397,3.4397,3.4397,3.4397,3.4397,3.4397,3.4397,3.4397,3.4397,3.4397,3.4397,3.4397,3.4397,3.4397,3.4397,3.4397,3.4397,1.6807,1.7657,1.8341,1.9775,2.1276,2.2401,2.24,2.3288,2.4098,2.4098,2.4098,2.4282,2.4887,2.5432,2.5991,2.6598,2.7157,2.749,2.749,2.749,2.749,2.749,2.749,2.749,2.749,2.749,2.749,2.749,2.749,2.749,2.749,2.749,2.749,2.749,2.8673,2.9292,2.9292,3.043,3.1005,3.1005,3.1005,3.1005,3.1005,3.1005,3.1005,3.1005,3.1005,3.1659,3.2685,3.2685,3.3365,3.4397,3.4397,3.4397,3.4397,3.4397,3.4397,3.4397,3.4397,3.4397,3.4397,3.4397,3.4397,3.4397,3.4397,3.4397,3.4397,3.4397,3.4397,3.4397,3.4397,3.4842,3.5365,3.5626,3.5678,3.5678,3.5678,3.5482,3.5208,3.4894,3.4593,3.4397,3.4397,3.4397,3.4397,3.4397,3.4397,3.4397,3.4397,3.4397,3.4397,3.4397,3.4397,3.4397,3.4397,3.4397,3.4397,3.4397,3.4397,3.4397,3.4397,3.4397,3.4397,3.4397,3.4397,3.4397,3.4397,3.4397,3.4397,3.4397,3.4397,3.4397,1.7027,1.7932,1.8667,2.0289,2.1564,2.2401,2.24,2.3288,2.4098,2.4098,2.4176,2.4439,2.5029,2.5589,2.6148,2.6742,2.7206,2.749,2.749,2.749,2.749,2.749,2.749,2.749,2.749,2.749,2.749,2.749,2.749,2.749,2.749,2.749,2.749,2.749,2.8673,2.9292,2.9292,3.043,3.1005,3.1005,3.1005,3.1005,3.1005,3.1005,3.1005,3.1018,3.111,3.1731,3.2698,3.2803,3.347,3.4397,3.4397,3.4397,3.4397,3.4397,3.4397,3.4397,3.4397,3.4397,3.4397,3.4397,3.4397,3.4397,3.4397,3.4397,3.4397,3.4397,3.4397,3.4397,3.4397,3.492,3.5547,3.5992,3.6266,3.6384,3.6279,3.5822,3.5404,3.5312,3.4816,3.4397,3.4397,3.4397,3.4397,3.4397,3.4397,3.4397,3.4397,3.4397,3.4397,3.4397,3.4397,3.4397,3.4397,3.4397,3.4397,3.4397,3.4397,3.4397,3.4397,3.4397,3.4397,3.4397,3.4397,3.4397,3.4397,3.4397,3.4397,3.4397,3.4397,3.445,1.6018,1.7836,1.9597,2.0472,2.1564,2.24,2.24,2.3288,2.4098,2.4098,2.4517,2.5042,2.5587,2.6177,2.6768,2.7298,2.7438,2.749,2.749,2.749,2.749,2.749,2.749,2.749,2.749,2.749,2.749,2.749,2.749,2.749,2.749,2.749,2.749,2.749,2.8673,2.9292,2.9292,3.043,3.1005,3.1005,3.1005,3.1005,3.1005,3.1005,3.1005,3.1031,3.149,3.2078,3.2738,3.326,3.3835,3.4397,3.4397,3.4397,3.4397,3.4397,3.4397,3.4397,3.4397,3.4397,3.4397,3.4397,3.4397,3.4397,3.4397,3.4397,3.4397,3.4397,3.4397,3.4397,3.4397,3.5195,3.6018,3.6083,3.6907,3.7521,3.6998,3.641,3.5861,3.5391,3.4816,3.4397,3.4397,3.4397,3.4397,3.4397,3.4397,3.4397,3.4397,3.4397,3.4397,3.4397,3.4397,3.4397,3.4397,3.4397,3.4397,3.4397,3.4397,3.4397,3.4397,3.4397,3.4397,3.4397,3.4397,3.4397,3.4397,3.4397,3.4397,3.4397,3.4397,3.4672,1.6179,1.8096,1.9773,2.0511,2.1551,2.2401,2.2401,2.3289,2.4098,2.4098,2.4584,2.516,2.5704,2.6282,2.6886,2.7415,2.749,2.749,2.749,2.749,2.749,2.749,2.749,2.749,2.749,2.749,2.749,2.749,2.749,2.749,2.749,2.749,2.749,2.749,2.8673,2.9292,2.9292,3.043,3.1005,3.1005,3.1005,3.1005,3.1005,3.1005,3.1005,3.1031,3.1568,3.2143,3.2757,3.3339,3.3914,3.4397,3.4397,3.4397,3.4397,3.4397,3.4397,3.4397,3.4397,3.4397,3.4397,3.4397,3.4397,3.4397,3.4397,3.4397,3.4397,3.4397,3.4397,3.4397,3.4397,3.5247,3.6109,3.6109,3.7024,3.7743,3.7129,3.6528,3.5848,3.4959,3.458,3.4397,3.4397,3.4397,3.4397,3.4397,3.4397,3.4397,3.4397,3.4397,3.4397,3.4397,3.4397,3.4397,3.4397,3.4397,3.4397,3.4397,3.4397,3.4397,3.4397,3.4397,3.4397,3.4397,3.4397,3.4397,3.4397,3.4397,3.4567,3.4894,3.4894,3.5208,1.6482,1.8134,1.9489,2.041,2.1511,2.236,2.2388,2.3276,2.4098,2.4098,2.4584,2.516,2.5704,2.6282,2.6886,2.7415,2.749,2.749,2.749,2.749,2.749,2.749,2.749,2.749,2.749,2.749,2.749,2.749,2.749,2.749,2.749,2.749,2.749,2.749,2.8673,2.9292,2.9292,3.043,3.1005,3.1005,3.1005,3.1005,3.1005,3.1005,3.1005,3.1044,3.1725,3.2274,3.2771,3.3496,3.4031,3.4397,3.4397,3.4397,3.4397,3.4397,3.4397,3.4397,3.4397,3.4397,3.4397,3.4397,3.4397,3.4397,3.4397,3.4397,3.4397,3.4397,3.4397,3.4397,3.4397,3.5247,3.607,3.5926,3.6815,3.7508,3.6907,3.6305,3.56,3.4593,3.4397,3.4397,3.4397,3.4397,3.4397,3.4397,3.4397,3.4397,3.4397,3.4397,3.4397,3.4397,3.4397,3.4397,3.4397,3.4397,3.4397,3.4397,3.4397,3.4397,3.4397,3.4397,3.4397,3.4397,3.4554,3.4554,3.4397,3.4554,3.4855,3.5299,3.5443,3.5796,1.6552,1.7622,1.8701,2.0144,2.1368,2.2238,2.2373,2.3275,2.4098,2.4098,2.4584,2.516,2.5704,2.6282,2.6886,2.7415,2.749,2.749,2.749,2.749,2.749,2.749,2.749,2.749,2.749,2.749,2.749,2.749,2.749,2.749,2.749,2.749,2.749,2.749,2.8673,2.9292,2.9292,3.043,3.1005,3.1005,3.1005,3.1005,3.1005,3.1005,3.1005,3.1071,3.2163,3.2659,3.2777,3.3901,3.4371,3.4397,3.4397,3.4397,3.4397,3.4397,3.4397,3.4397,3.4397,3.4397,3.4397,3.4397,3.4397,3.4397,3.4397,3.4397,3.4397,3.4397,3.4397,3.4397,3.4397,3.5247,3.5979,3.5456,3.6214,3.6881,3.6279,3.573,3.5155,3.4515,3.4397,3.4397,3.4397,3.4397,3.4397,3.4397,3.4397,3.4397,3.4397,3.4397,3.4397,3.4397,3.4397,3.4397,3.4397,3.4397,3.4397,3.4397,3.4397,3.4397,3.4397,3.4397,3.4397,3.4397,3.4959,3.4972,3.4397,3.4972,3.5273,3.5312,3.5822,3.6384,1.7497,1.8397,1.9109,2.0067,2.1263,2.2211,2.2265,2.3218,2.4098,2.4098,2.4267,2.4698,2.5639,2.6282,2.6886,2.7415,2.749,2.749,2.749,2.749,2.749,2.749,2.749,2.749,2.749,2.749,2.749,2.749,2.749,2.749,2.749,2.749,2.749,2.749,2.8673,2.9645,3.0378,3.0796,3.1005,3.1005,3.1005,3.1005,3.1005,3.1005,3.1005,3.1071,3.2221,3.2685,3.2777,3.3927,3.4397,3.4397,3.4397,3.4397,3.4397,3.4397,3.4397,3.4397,3.4397,3.4397,3.4397,3.4397,3.4397,3.4397,3.4397,3.4397,3.4397,3.4397,3.4397,3.4397,3.4397,3.4986,3.5626,3.5783,3.5861,3.5848,3.5626,3.5129,3.4659,3.4437,3.4397,3.4397,3.4397,3.4397,3.4397,3.4397,3.4397,3.4397,3.4397,3.4397,3.4397,3.4397,3.4397,3.4397,3.4397,3.4397,3.4397,3.4397,3.4397,3.4397,3.4397,3.4763,3.4972,3.4972,3.5534,3.5534,3.4972,3.5534,3.6018,3.6397,3.6593,3.6998,1.7718,0.0,0.0,1.9914,2.099,2.1897,2.2132,2.3035,2.3862,2.4058,2.4098,2.4385,2.5338,2.6007,2.6634,2.7372,2.749,2.749,2.749,2.749,2.749,2.749,2.749,2.749,2.749,2.749,2.749,2.749,2.749,2.749,2.749,2.749,2.7702,2.8081,2.8869,2.9841,3.0992,3.1005,3.1005,3.1005,3.1005,3.1005,3.1005,3.1005,3.1005,3.1071,3.2221,3.2685,3.2777,3.3927,3.4397,3.4397,3.4397,3.4397,3.4397,3.4397,3.4397,3.4397,3.4397,3.4397,3.4397,3.4397,3.4397,3.4397,3.4397,3.4397,3.4397,3.4397,3.4397,3.4397,3.4397,3.4698,3.5142,3.5704,3.5404,3.4999,3.4999,3.4672,3.4397,3.4397,3.4397,3.4397,3.4397,3.4397,3.4397,3.4397,3.4397,3.4397,3.4397,3.4397,3.4397,3.4397,3.4397,3.4397,3.4397,3.4397,3.4397,3.4397,3.458,3.4698,3.4698,3.526,3.5574,3.5574,3.6123,3.6227,3.5874,3.6227,3.6606,3.7011,3.7207,3.7521,0.0,0.0,0.0,0.0,2.0564,2.1299,2.2027,2.2734,2.3378,2.398,2.4098,2.4282,2.4887,2.5432,2.6174,2.7281,2.749,2.749,2.749,2.749,2.749,2.749,2.749,2.749,2.749,2.749,2.749,2.749,2.749,2.749,2.749,2.749,2.8042,2.9266,2.9292,2.9841,3.0992,3.1005,3.1005,3.1005,3.1005,3.1005,3.1005,3.1005,3.1005,3.1071,3.2221,3.2685,3.2777,3.3927,3.4397,3.4397,3.4397,3.4397,3.4397,3.4397,3.4397,3.4397,3.4397,3.4397,3.4397,3.4397,3.4397,3.4397,3.4397,3.4397,3.4397,3.4397,3.4397,3.4397,3.4397,3.4397,3.4541,3.5129,3.4829,3.4397,3.4397,3.4397,3.4397,3.4397,3.4397,3.4397,3.4397,3.4397,3.4397,3.4397,3.4397,3.4397,3.4397,3.4397,3.4397,3.4397,3.4397,3.4397,3.4397,3.4397,3.441,3.4424,3.4972,3.5312,3.5325,3.5848,3.6136,3.6136,3.6724,3.7037,3.7037,3.7037,3.7037,3.705,3.7639,3.79,1.827,0.0,0.0,0.0,0.0,0.0,2.1981,2.2919,2.3771,2.4057,2.4098,2.4282,2.4887,2.5432,2.6044,2.6791,2.7262,2.749,2.749,2.749,2.749,2.749,2.749,2.749,2.749,2.749,2.749,0.0,2.749,2.749,2.749,2.749,2.8042,2.9266,2.9292,2.9841,3.0992,3.1005,3.1005,3.1005,3.1005,3.1005,3.1005,3.1005,3.1005,3.1071,3.2221,3.2685,3.2777,3.3927,3.4397,3.4397,3.4397,3.4397,3.4397,3.4397,3.4397,3.4397,3.4397,3.4397,3.4397,3.4397,3.4397,3.4397,3.4397,3.4397,3.4397,3.4397,3.4397,3.4397,3.4397,3.4397,3.4437,3.4607,3.4515,3.4397,3.4397,3.4397,3.4397,3.4397,3.4397,3.4397,3.4397,3.4397,3.4397,3.4397,3.4397,3.4397,3.4397,3.4397,3.4397,3.4397,3.4397,3.4397,3.4397,3.4397,3.458,3.5012,3.5208,3.5469,3.5861,3.6449,3.675,3.675,3.7351,3.7652,3.7652,3.7652,3.7652,3.7665,3.7821,3.79,0.0,0.0,0.0,0.0,0.0,0.0,2.1995,2.2869,2.3709,2.4031,2.4098,2.4202,2.4571,2.5275,2.5926,2.6269,2.6984,2.749,2.749,2.749,2.749,2.749,2.749,2.749,2.749,2.749,2.749,2.749,2.749,2.749,2.749,2.749,2.8042,2.9266,2.9292,2.9841,3.0992,3.1005,3.1005,3.1005,3.1005,3.1005,3.1005,3.1005,3.1117,3.1392,3.2293,3.2829,3.313,3.4031,3.4397,3.4397,3.4397,3.4397,3.4397,3.4397,3.4397,3.4397,3.4397,3.4397,3.4397,3.4397,3.4397,3.4397,3.4397,3.4397,3.4397,3.4397,3.4397,3.4397,3.4397,3.4397,3.4397,3.4397,3.4397,3.4397,3.4397,3.4397,3.4397,3.4397,3.4397,3.4397,3.4397,3.4397,3.4397,3.4397,3.4397,3.4397,3.4397,3.4397,3.4397,3.4397,3.4397,3.4502,3.475,3.4776,3.5012,3.56,3.5874,3.6149,3.6462,3.705,3.7377,3.7377,3.773,3.79,3.79,3.79,3.79,3.79,3.79,3.79,0.0,0.0,0.0,0.0,2.0324,0.0,2.2117,2.2785,2.3429,2.3993,2.4098,2.4098,2.4098,2.4986,2.573,2.578,2.6723,2.7441,2.749,2.749,2.749,2.749,2.749,2.749,2.749,2.749,2.749,2.749,2.749,2.749,2.749,2.749,2.8042,2.9266,2.9292,2.9841,3.0992,3.1005,3.1005,3.1005,3.1005,3.1005,3.1005,3.1005,3.13,3.1836,3.245,3.3038,3.3639,3.4175,3.4397,3.4397,3.4397,3.4397,3.4397,3.4397,3.4397,3.4397,3.4397,3.4397,3.4397,3.4397,3.4397,3.4397,3.4397,3.4397,3.4397,3.4397,3.4397,3.4397,3.4397,3.4397,3.4397,3.4397,3.4397,3.4397,3.4397,3.4397,3.4397,3.4397,3.4397,3.4397,3.4397,3.4397,3.4397,3.4397,3.4397,3.4397,3.4397,3.4397,3.4397,3.4397,3.4463,3.4711,3.5247,3.5351,3.5626,3.6175,3.6711,3.7037,3.7103,3.7625,3.79,3.79,3.79,3.79,3.79,3.79,3.79,3.79,3.79,3.79,0.0,0.0,0.0,0.0,2.1365,0.0,2.2632,2.3238,2.3836,2.4055,2.4098,2.4098,2.4098,2.4674,2.5304,2.573,2.6399,2.7017,2.7441,2.749,2.749,2.749,2.749,2.749,2.749,2.749,2.749,2.749,2.749,2.749,2.749,2.749,2.8042,2.9266,2.9292,2.9841,3.0992,3.1005,3.1005,3.1005,3.1005,3.1005,3.1005,3.1005,3.13,3.1836,3.245,3.3038,3.3639,3.4175,3.4397,3.4397,3.4397,3.4397,3.4397,3.4397,3.4397,3.4397,3.4397,3.4397,3.4397,3.4397,3.4397,3.4397,3.4397,3.4397,3.4397,3.4397,3.4397,3.4397,3.4397,3.4397,3.4397,3.4397,3.4397,3.4397,3.4397,3.4397,3.4397,3.4397,3.4397,3.4397,3.4397,3.4397,3.4397,3.4397,3.4397,3.4397,3.4397,3.4397,3.4397,3.4397,3.4829,3.5168,3.5286,3.5704,3.6201,3.6789,3.6933,3.722,3.7704,3.7848,3.79,3.79,3.79,3.79,3.79,3.79,3.79,3.79,3.79,3.79,0.0,0.0,0.0,2.0779,0.0,0.0,0.0,2.3521,2.4023,2.4083,2.4098,2.4098,2.4098,2.4598,2.5173,2.5717,2.6308,2.6886,2.7411,2.749,2.749,2.749,2.749,2.749,2.749,2.749,2.749,2.749,2.749,2.749,2.749,2.749,2.8042,2.9266,2.9292,2.9841,3.0992,3.1005,3.1005,3.1005,3.1005,3.1005,3.1005,3.1005,3.1457,3.2261,3.2568,3.3182,3.4018,3.4293,3.4397,3.4397,3.4397,3.4397,3.4397,3.4397,3.4397,3.4397,3.4397,3.4397,3.4397,3.4397,3.4397,3.4397,3.4397,3.4397,3.4397,3.4397,3.4397,3.4397,3.4397,3.4397,3.4397,3.4397,3.4397,3.4397,3.4397,3.4397,3.4397,3.4397,3.4397,3.4397,3.4397,3.4397,3.4397,3.4397,3.4397,3.4397,3.4397,3.4397,3.4515,3.4816,3.5116,3.5534,3.6096,3.6397,3.6815,3.7416,3.7456,3.7586,3.79,3.79,3.79,3.79,3.79,3.79,3.79,3.79,3.79,3.79,3.79,3.79,0.0,0.0,0.0,0.0,0.0,2.3064,0.0,0.0,0.0,2.4098,2.4098,2.4098,2.4098,2.4491,2.4964,2.5404,2.6073,2.6674,2.7098,2.7359,2.749,2.749,2.749,2.749,2.749,2.749,2.749,2.749,2.749,2.749,2.749,2.749,2.8042,2.9266,2.9292,2.9841,3.0992,3.1005,3.1005,3.1005,3.1005,3.1005,3.1005,3.1123,3.1718,3.2698,3.2816,3.3443,3.4397,3.4397,3.4397,3.4397,3.4397,3.4397,3.4397,3.4397,3.4397,3.4397,3.4397,3.4397,3.4397,3.4397,3.4397,3.4397,3.4397,3.4397,3.4397,3.4397,3.4397,3.4397,3.4397,3.4397,3.4397,3.4397,3.4397,3.4397,3.4397,3.4397,3.4397,3.4397,3.4397,3.4397,3.4397,3.4397,3.4397,3.4397,3.4397,3.4397,3.4397,3.4502,3.4763,3.5247,3.5495,3.6005,3.692,3.7116,3.7377,3.7874,3.79,3.79,3.79,3.79,3.79,3.79,3.79,3.79,3.79,3.79,3.79,3.79,3.79,3.79,0.0,0.0,0.0,0.0,2.3201,0.0,2.3802,0.0,2.4098,2.4098,0.0,2.4098,2.4098,0.0,0.0,2.428,2.5195,2.5926,2.5976,2.685,2.749,2.749,2.749,2.749,2.749,2.749,2.749,2.749,2.749,2.749,2.749,2.749,2.8042,2.9266,2.9292,2.9841,3.0992,3.1005,3.1005,3.1005,3.1005,3.1005,3.1018,3.149,3.2078,3.2744,3.326,3.3835,3.4397,3.4397,3.4397,3.4397,3.4397,3.4397,3.4397,3.4397,3.4397,3.4397,3.4397,3.4397,3.4397,3.4397,3.4397,3.4397,3.4397,3.4397,3.4397,3.4397,3.4397,3.4397,3.4397,3.4397,3.4397,3.4397,3.4397,3.4397,3.4397,3.4397,3.4397,3.4397,3.4397,3.4397,3.4397,3.4397,3.4397,3.4397,3.4397,3.4397,3.4397,3.4868,3.5221,3.5286,3.6201,3.6867,3.6998,3.7495,3.7835,3.79,3.79,3.79,3.79,3.79,3.79,3.79,3.79,3.79,3.79,3.79,3.79,3.79,3.79,3.79,0.0,0.0,0.0,0.0,0.0,0.0,2.4008,0.0,2.4098,0.0,0.0,0.0,0.0,0.0,0.0,0.0,2.5495,2.6028,2.6681,2.719,2.749,2.749,2.749,2.749,2.749,2.749,2.749,2.749,2.749,2.749,2.749,2.749,2.8042,2.9266,2.9292,2.9841,3.0992,3.1005,3.1005,3.1005,3.1005,3.1005,3.1018,3.1555,3.213,3.2725,3.3326,3.3901,3.4397,3.4397,3.4397,3.4397,3.4397,3.4397,3.4397,3.4397,3.4397,3.4397,3.4397,3.4397,3.4397,3.4397,3.4397,3.4397,3.4397,3.4397,3.4397,3.4397,3.4397,3.4397,3.4397,3.4397,3.4397,3.4397,3.4397,3.4397,3.4397,3.4397,3.4397,3.4397,3.4397,3.4397,3.4397,3.4397,3.4397,3.4397,3.4698,3.492,3.492,3.5417,3.59,3.6253,3.6711,3.7142,3.7495,3.7756,3.79,3.79,3.79,3.79,3.79,3.79,3.79,3.79,3.79,3.79,3.79,3.79,3.79,3.79,3.79,3.79,2.2309,0.0,0.0,0.0,0.0,0.0,0.0,0.0,0.0,0.0,0.0,0.0,0.0,0.0,0.0,0.0,0.0,2.6279,2.6929,2.7294,2.749,2.749,2.749,2.749,2.749,2.749,2.749,2.749,2.749,2.749,2.749,2.749,2.8042,2.9266,2.9292,2.9841,3.0992,3.1005,3.1005,3.1005,3.1005,3.1005,3.1031,3.1725,3.2287,3.2738,3.3483,3.4031,3.4397,3.4397,3.4397,3.4397,3.4397,3.4397,3.4397,3.4397,3.4397,3.4397,3.4397,3.4397,3.4397,3.4397,3.4397,3.4397,3.4397,3.4397,3.4397,3.4397,3.4397,3.4397,3.4397,3.4397,3.4397,3.4397,3.4397,3.4397,3.4397,3.4397,3.4397,3.4397,3.4397,3.445,3.462,3.4502,3.445,3.462,3.5012,3.5351,3.5495,3.6005,3.6515,3.6959,3.7155,3.7429,3.7861,3.79,3.79,3.79,3.79,3.79,3.79,3.79,3.79,3.79,3.79,3.79,3.79,3.79,3.79,3.79,3.79,3.79,0.0,0.0,0.0,2.5262,0.0,0.0,0.0,0.0,2.5756,0.0,0.0,0.0,0.0,0.0,0.0,0.0,0.0,0.0,0.0,2.6798,2.749,2.749,2.749,2.749,2.749,2.749,2.749,2.749,2.749,2.749,2.749,2.749,2.8042,2.9266,2.9292,2.9841,3.0992,3.1005,3.1005,3.1005,3.1005,3.1005,3.1044,3.215,3.2672,3.2751,3.3888,3.4384,3.4397,3.4397,3.4397,3.4397,3.4397,3.4397,3.4397,3.4397,3.4397,3.4397,3.4397,3.4397,3.4397,3.4397,3.4397,3.4397,3.4397,3.4397,3.4397,3.4397,3.4397,3.4397,3.4397,3.4397,3.4397,3.4397,3.4397,3.4397,3.4397,3.4397,3.4397,3.4397,3.4397,3.458,3.5168,3.4789,3.4593,3.5182,3.5286,3.5482,3.6018,3.6606,3.6985,3.6998,3.7521,3.7887,3.79,3.79,3.79,3.79,3.79,3.79,3.79,3.79,3.79,3.79,3.79,3.79,3.79,3.79,3.79,3.79,3.79,3.79,0.0,0.0,2.5275,2.5607,0.0,0.0,0.0,0.0,0.0,0.0,0.0,0.0,0.0,0.0,0.0,0.0,0.0,0.0,0.0,2.7255,2.749,2.749,2.749,2.749,2.749,2.749,2.749,2.749,2.749,2.749,2.749,2.749,2.8042,2.9266,2.9292,2.9841,3.0992,3.1005,3.1005,3.1005,3.1005,3.1182,3.1555,3.2346,3.2927,3.3326,3.4071,3.4397,3.4397,3.4397,3.4397,3.4397,3.4397,3.4397,3.4397,3.4397,3.4397,3.4397,3.4397,3.4397,3.4397,3.4397,3.4397,3.4397,3.4397,3.4397,3.4397,3.4397,3.4397,3.4397,3.4397,3.4397,3.4397,3.4397,3.4397,3.4397,3.4397,3.4711,3.4999,3.4999,3.5273,3.5587,3.5796,3.5665,3.5587,3.5796,3.6175,3.6488,3.6671,3.722,3.7599,3.7599,3.7782,3.79,3.79,3.79,3.79,3.79,3.79,3.79,3.79,3.79,3.79,3.79,3.79,3.79,3.79,3.79,3.79,3.79,3.79,3.79,2.3496,2.4557,0.0,2.6184,2.6361,0.0,2.6393,0.0,2.6393,0.0,0.0,0.0,0.0,0.0,0.0,0.0,0.0,0.0,0.0,2.749,2.749,2.749,2.749,2.749,2.749,2.749,2.749,2.749,2.749,2.749,2.749,2.749,2.8042,2.9266,2.9292,2.9841,3.0992,3.1005,3.1005,3.1005,3.1005,3.1287,3.1823,3.2424,3.3025,3.3626,3.4162,3.4397,3.4397,3.4397,3.4397,3.4397,3.4397,3.4397,3.4397,3.4397,3.4397,3.4397,3.4397,3.4397,3.4397,3.4397,3.4397,3.4397,3.4397,3.4397,3.4437,3.4659,3.4567,3.445,3.4659,3.4554,3.4397,3.4397,3.4554,3.4724,3.4724,3.5168,3.5587,3.5587,3.5861,3.6175,3.6384,3.6423,3.6423,3.6423,3.675,3.709,3.7299,3.7665,3.79,3.79,3.79,3.79,3.79,3.79,3.79,3.79,3.79,3.79,3.79,3.79,3.79,3.79,3.79,3.79,3.79,3.79,3.79,3.79,3.79,3.79]},{"header":{"parameterUnit":"m.s-1","parameterCategory":1,"la1":30.6,"la2":29.2853,"lo1":-89.7004,"lo2":-87.6739,"dx":0.0162,"dy":0.0183,"nx":112,"ny":82,"refTime":"2023-02-01T06:00:00:Z","depth":0,"parameterNumber":3,"parameterNumberName":"V-component_of_WINDS"},"data":[0.0,0.0,0.0,0.0,0.0,0.0,0.0,0.0,0.0,0.0,0.0,0.0,0.0,0.0,0.0,0.0,0.0,0.0,0.0,0.0,0.0,0.0,0.0,0.0,0.0,0.0,0.0,0.0,0.0,0.0,0.0,0.0,0.0,0.0,0.0,0.0,0.0,0.0,0.0,0.0,0.0,0.0,0.0,0.0,0.0,0.0,0.0,0.0,0.0,0.0,0.0,0.0,0.0,0.0,0.0,0.0,0.0,0.0,0.0,0.0,0.0,0.0,0.0,0.0,0.0,0.0,0.0,0.0,0.0,0.0,0.0,0.0,0.0,0.0,0.0,0.0,0.0,0.0,0.0,0.0,0.0,0.0,0.0,0.0,0.0,0.0,0.0,0.0,0.0,0.0,1.1856,1.2238,1.2628,1.3034,1.3427,1.3529,1.3491,1.3301,0.0,0.0,0.0,0.0,0.0,0.0,0.0,0.0,0.0,0.0,0.0,0.0,0.0,0.0,0.0,0.0,0.0,0.0,0.0,0.0,0.0,0.0,0.0,0.0,0.0,0.0,0.0,0.0,0.0,0.0,0.0,0.0,0.0,0.0,0.0,0.0,0.0,0.0,0.0,0.0,0.0,0.0,0.0,0.0,0.0,0.0,0.0,0.0,0.0,0.0,0.0,0.0,0.0,0.0,0.0,0.0,0.0,0.0,0.0,0.0,0.0,0.0,0.0,0.0,0.0,0.0,0.0,0.0,0.0,0.0,0.0,0.0,0.0,0.0,0.0,0.0,0.0,0.0,0.0,0.0,0.0,0.0,0.0,0.0,0.0,0.0,0.0,0.0,0.0,0.0,0.0,0.0,0.0,0.0,0.0,0.0,0.0,0.0,0.0,0.0,0.0,0.0,0.0,0.0,1.2571,1.2257,1.1979,1.1997,1.2393,1.2794,1.3336,1.4062,0.0,0.0,0.0,0.0,0.0,0.0,0.0,0.0,0.0,0.0,0.0,0.0,0.0,0.0,0.0,0.0,0.0,0.0,0.0,0.0,0.0,0.0,0.0,0.0,0.0,0.0,0.0,0.0,0.0,0.0,0.0,0.0,0.0,0.0,0.0,0.0,0.0,0.0,0.0,0.0,0.0,0.0,0.0,0.0,0.0,0.0,0.0,0.0,0.0,0.0,0.0,0.0,0.0,0.0,0.0,0.0,0.0,0.0,0.0,0.0,0.0,0.0,0.0,0.0,0.0,0.0,0.0,0.0,0.0,0.0,0.0,0.0,0.0,0.0,0.0,0.0,0.0,0.0,0.0,0.0,0.0,0.0,0.0,0.0,0.0,0.0,0.0,0.0,0.0,0.0,0.0,0.0,0.0,0.0,0.0,0.0,0.0,0.0,0.0,0.0,0.0,0.0,0.0,1.3657,1.397,1.3784,1.3828,1.3949,1.4146,1.4353,1.4662,1.5082,1.5119,0.0,0.0,0.0,0.0,0.0,0.0,0.0,0.0,0.0,0.0,0.0,0.0,0.0,0.0,0.0,0.0,0.0,0.0,0.0,0.0,0.0,0.0,0.0,0.0,0.0,0.0,0.0,0.0,0.0,0.0,0.0,0.0,0.0,0.0,0.0,0.0,0.0,0.0,0.0,0.0,0.0,0.0,0.0,0.0,0.0,0.0,0.0,0.0,0.0,0.0,0.0,0.0,0.0,0.0,0.0,0.0,0.0,0.0,0.0,0.0,0.0,0.0,0.0,0.0,0.0,0.0,0.0,0.0,0.0,0.0,0.0,0.0,0.0,0.0,0.0,0.0,0.0,0.0,0.0,0.0,0.0,0.0,0.0,0.0,0.0,0.0,0.0,0.0,0.0,0.0,0.0,0.0,0.0,0.0,0.0,0.0,0.0,0.0,0.0,0.0,0.0,0.0,1.4794,1.499,1.4926,1.5221,1.5446,1.5446,1.5558,1.5637,1.5637,1.5737,0.0,0.0,0.0,0.0,0.0,0.0,0.0,0.0,0.0,0.0,0.0,0.0,0.0,0.0,0.0,0.0,0.0,0.0,0.0,0.0,0.0,0.0,0.0,0.0,0.0,0.0,0.0,0.0,0.0,0.0,0.0,0.0,0.0,0.0,0.0,0.0,0.0,0.0,0.0,0.0,0.0,0.0,0.0,0.0,0.0,0.0,0.0,0.0,0.0,0.0,0.0,0.0,0.0,0.0,0.0,0.0,0.0,0.0,0.0,0.0,0.0,0.0,0.0,0.0,0.0,0.0,0.0,0.0,0.0,0.0,0.0,0.0,0.0,0.0,0.0,0.0,0.0,0.0,0.0,0.0,0.0,0.0,0.0,0.0,0.0,0.0,0.0,0.0,0.0,0.0,0.0,0.0,0.0,0.0,0.0,0.0,0.0,0.0,0.0,0.0,0.0,0.0,1.5062,1.4903,1.441,1.4398,1.4409,1.4409,1.4869,1.5153,1.5153,1.5558,0.0,0.0,0.0,0.0,0.0,0.0,0.0,0.0,0.0,0.0,0.0,0.0,0.0,0.0,0.0,0.0,0.0,0.0,0.0,0.0,0.0,0.0,0.0,0.0,0.0,0.0,0.0,0.0,0.0,0.0,0.0,0.0,0.0,0.0,0.0,0.0,0.0,0.0,0.0,0.0,0.0,0.0,0.0,0.0,0.0,0.0,0.0,0.0,0.0,0.0,0.0,0.0,0.0,0.0,0.0,0.0,0.0,0.0,0.0,0.0,0.0,0.0,0.0,0.0,0.0,0.0,0.0,0.0,0.0,0.0,0.0,0.0,0.0,0.0,0.0,0.0,0.0,0.0,0.0,0.0,0.0,0.0,0.0,0.0,0.0,0.0,0.0,0.0,0.0,0.0,0.0,0.0,0.0,0.0,0.0,0.0,0.0,0.0,0.0,0.0,0.0,0.0,1.5547,1.5457,1.5255,1.5232,1.5232,1.5232,1.5424,1.5547,1.5547,0.0,0.0,0.0,0.0,0.0,0.0,0.0,0.0,0.0,0.0,0.0,0.0,0.0,0.0,0.0,0.0,0.0,0.0,0.0,0.0,0.0,0.0,0.0,0.0,0.0,0.0,0.0,0.0,0.0,0.0,0.0,0.0,0.0,0.0,0.0,0.0,0.0,0.0,0.0,0.0,0.0,0.0,0.0,0.0,0.0,0.0,0.0,0.0,0.0,0.0,0.0,0.0,0.0,0.0,0.0,0.0,0.0,0.0,0.0,0.0,0.0,0.0,0.0,0.0,0.0,0.0,0.0,0.0,0.0,0.0,0.0,0.0,0.0,0.0,0.0,0.0,0.0,0.0,0.0,0.0,0.0,0.0,0.0,0.0,0.0,0.0,0.0,0.0,0.0,0.0,0.0,0.0,0.0,0.0,0.0,0.0,0.0,0.0,0.0,0.0,0.0,0.0,1.6031,1.6055,1.6115,1.6283,1.6319,1.6319,1.6319,1.6319,1.6319,1.6319,0.0,0.0,0.0,0.0,0.0,0.0,0.0,0.0,0.0,0.0,0.0,0.0,0.0,0.0,0.0,0.0,0.0,0.0,0.0,0.0,0.0,0.0,0.0,0.0,0.0,0.0,0.0,0.0,0.0,0.0,0.0,0.0,0.0,0.0,0.0,0.0,0.0,0.0,0.0,0.0,0.0,0.0,0.0,0.0,0.0,0.0,0.0,0.0,0.0,0.0,0.0,0.0,0.0,0.0,0.0,0.0,0.0,0.0,0.0,0.0,0.0,0.0,0.0,0.0,0.0,0.0,0.0,0.0,0.0,0.0,0.0,0.0,0.0,0.0,0.0,0.0,0.0,0.0,0.0,0.0,0.0,0.0,0.0,0.0,0.0,0.0,0.0,0.0,0.0,0.0,0.0,0.0,0.0,0.0,0.0,0.0,0.0,0.0,0.0,0.0,0.0,0.0,1.6535,1.6607,1.6811,1.7339,1.7399,1.7399,1.7399,1.7399,1.7399,0.0,0.0,0.0,0.0,0.0,0.0,0.0,0.0,0.0,0.0,0.0,0.0,0.0,0.0,0.0,0.0,0.0,0.0,0.0,0.0,0.0,0.0,0.0,0.0,0.0,0.0,0.0,0.0,0.0,0.0,0.0,0.0,0.0,0.0,0.0,0.0,0.0,0.0,0.0,0.0,0.0,0.0,0.0,0.0,0.0,0.0,0.0,0.0,0.0,0.0,0.0,0.0,0.0,0.0,0.0,0.0,0.0,0.0,0.0,0.0,0.0,0.0,0.0,0.0,0.0,0.0,0.0,0.0,0.0,0.0,0.0,0.0,0.0,0.0,0.0,0.0,0.0,0.0,0.0,0.0,0.0,0.0,0.0,0.0,0.0,0.0,0.0,0.0,0.0,0.0,0.0,0.0,0.0,0.0,0.0,0.0,0.0,0.0,0.0,0.0,0.0,0.0,0.0,1.7099,1.7159,1.7219,1.7387,1.7399,1.7399,1.7399,1.7399,1.7399,1.7399,0.0,0.0,0.0,0.0,0.0,0.0,0.0,0.0,0.0,0.0,0.0,0.0,0.0,0.0,0.0,0.0,0.0,0.0,0.0,0.0,0.0,0.0,0.0,0.0,0.0,0.0,0.0,0.0,0.0,0.0,0.0,0.0,0.0,0.0,0.0,0.0,0.0,0.0,0.0,0.0,0.0,0.0,0.0,0.0,0.0,0.0,0.0,0.0,0.0,0.0,0.0,0.0,0.0,0.0,0.0,0.0,0.0,0.0,0.0,0.0,0.0,0.0,0.0,0.0,0.0,0.0,0.0,0.0,0.0,0.0,0.0,0.0,0.0,0.0,0.0,0.0,0.0,0.0,0.0,0.0,0.0,0.0,0.0,0.0,0.0,0.0,0.0,0.0,0.0,0.0,0.0,0.0,0.0,0.0,0.0,0.0,0.0,0.0,0.0,0.0,0.0,0.0,1.7652,1.7712,1.7796,1.8025,1.8049,1.8049,1.8049,1.8049,1.8049,1.8049,0.0,0.0,0.0,0.0,0.0,0.0,0.0,0.0,0.0,0.0,0.0,0.0,0.0,0.0,0.0,0.0,0.0,0.0,0.0,0.0,0.0,0.0,0.0,0.0,0.0,0.0,0.0,0.0,0.0,0.0,0.0,0.0,0.0,0.0,0.0,0.0,0.0,0.0,0.0,0.0,0.0,0.0,0.0,0.0,0.0,0.0,0.0,0.0,0.0,0.0,0.0,0.0,0.0,0.0,0.0,0.0,0.0,0.0,0.0,0.0,0.0,0.0,0.0,0.0,0.0,0.0,0.0,0.0,0.0,0.0,0.0,0.0,0.0,0.0,0.0,0.0,0.0,0.0,0.0,0.0,0.0,0.0,0.0,0.0,0.0,0.0,0.0,0.0,0.0,0.0,0.0,0.0,0.0,0.0,0.0,0.0,0.0,0.0,0.0,0.0,0.0,0.0,1.8205,1.8277,1.8458,1.8952,1.9,1.9,1.9,1.9,1.9,1.9,0.0,0.0,0.0,0.0,0.0,0.0,0.0,0.0,0.0,0.0,0.0,0.0,0.0,0.0,0.0,0.0,0.0,0.0,0.0,0.0,0.0,0.0,0.0,0.0,0.0,0.0,0.0,0.0,0.0,0.0,0.0,0.0,0.0,0.0,0.0,0.0,0.0,0.0,0.0,0.0,0.0,0.0,0.0,0.0,0.0,0.0,0.0,0.0,0.0,0.0,0.0,0.0,0.0,0.0,0.0,0.0,0.0,0.0,0.0,0.0,1.5101,1.4931,0.0,0.0,0.0,0.0,0.0,0.0,0.0,0.0,0.0,0.0,0.0,0.0,0.0,0.0,0.0,0.0,0.0,0.0,0.0,0.0,0.0,0.0,0.0,0.0,0.0,0.0,0.0,0.0,0.0,0.0,0.0,0.0,0.0,0.0,0.0,0.0,0.0,0.0,0.0,0.0,1.8758,1.8819,1.8867,1.8988,1.9,1.9,1.9,1.9,1.9,1.9,1.8891,0.0,0.0,0.0,0.0,0.0,0.0,0.0,0.0,0.0,0.0,0.0,0.0,0.0,0.0,0.0,0.0,0.0,0.0,0.0,0.0,0.0,0.0,0.0,0.0,0.0,0.0,0.0,0.0,0.0,0.0,0.0,0.0,0.0,0.0,0.0,0.0,0.0,0.0,0.0,0.0,0.0,0.0,0.0,0.0,0.0,0.0,0.0,0.0,0.0,0.0,0.0,0.0,0.0,0.0,0.0,0.0,0.0,0.0,0.0,1.591,1.5364,0.0,0.0,0.0,0.0,0.0,0.0,0.0,0.0,0.0,0.0,0.0,0.0,0.0,0.0,0.0,0.0,0.0,0.0,0.0,0.0,0.0,0.0,0.0,0.0,0.0,0.0,0.0,0.0,0.0,0.0,0.0,0.0,0.0,0.0,0.0,0.0,0.0,0.0,0.0,0.0,1.9349,1.96,1.9768,1.9768,1.9768,1.9768,1.9768,1.977,1.977,1.9768,1.953,0.0,0.0,0.0,0.0,0.0,0.0,0.0,0.0,0.0,0.0,0.0,0.0,0.0,0.0,0.0,0.0,0.0,0.0,0.0,0.0,0.0,0.0,0.0,0.0,0.0,0.0,0.0,0.0,0.0,0.0,0.0,0.0,0.0,0.0,0.0,0.0,0.0,0.0,0.0,0.0,0.0,0.0,0.0,0.0,0.0,0.0,0.0,0.0,0.0,0.0,0.0,0.0,0.0,1.6307,1.6608,1.7223,1.7213,1.7598,1.8238,1.7103,1.615,1.5405,1.5498,0.0,0.0,0.0,0.0,0.0,0.0,0.0,0.0,0.0,0.0,0.0,0.0,0.0,0.0,0.0,0.0,0.0,0.0,0.0,0.0,0.0,0.0,1.7798,1.7762,1.7654,1.7484,1.7263,0.0,0.0,0.0,0.0,0.0,0.0,0.0,0.0,0.0,0.0,0.0,1.9939,2.0334,2.0596,2.061,2.0596,2.0596,2.0596,2.0601,2.0601,2.0596,2.0177,1.9939,0.0,0.0,0.0,0.0,0.0,0.0,0.0,0.0,0.0,0.0,0.0,0.0,0.0,0.0,0.0,0.0,0.0,0.0,0.0,0.0,0.0,0.0,0.0,0.0,0.0,0.0,0.0,0.0,0.0,0.0,0.0,0.0,1.5298,1.529,0.0,0.0,0.0,0.0,0.0,0.0,0.0,0.0,0.0,0.0,0.0,0.0,0.0,1.7014,1.782,1.7795,1.8245,1.9163,1.8762,1.8824,1.9296,1.9241,1.9315,1.9492,1.9697,0.0,1.6965,1.6645,0.0,0.0,0.0,0.0,0.0,0.0,0.0,0.0,0.0,0.0,0.0,0.0,0.0,0.0,0.0,0.0,0.0,0.0,0.0,0.0,0.0,0.0,1.7762,1.7654,1.7872,1.8085,1.8051,1.7824,1.7618,1.7606,1.7982,1.831,0.0,0.0,0.0,0.0,0.0,0.0,2.0488,2.056,2.061,2.0603,2.0598,2.0596,2.0596,2.0601,2.0601,2.0596,2.0536,2.0488,2.0488,2.042,0.0,0.0,0.0,0.0,0.0,0.0,0.0,0.0,0.0,0.0,0.0,0.0,0.0,0.0,0.0,0.0,0.0,0.0,0.0,0.0,0.0,0.0,0.0,0.0,0.0,0.0,0.0,0.0,0.0,1.5418,1.5467,1.5777,1.5813,1.5958,0.0,0.0,0.0,0.0,0.0,0.0,0.0,0.0,0.0,1.8587,1.872,1.9067,1.9671,1.9685,1.9823,2.0093,1.9897,1.9883,2.009,2.0057,2.0187,2.043,2.0405,1.9883,1.8991,1.8328,1.7945,1.7824,0.0,0.0,0.0,0.0,1.8295,1.8313,1.844,1.8675,1.8915,1.8808,0.0,0.0,0.0,0.0,0.0,0.0,0.0,1.8707,0.0,0.0,1.9351,1.9477,1.9587,1.9647,1.9578,1.9411,1.9198,1.8897,1.9272,1.9644,1.9644,1.9977,0.0,0.0,0.0,2.1043,2.104,2.132,2.15,2.1491,2.15,2.15,2.15,2.1503,2.1503,2.15,2.1223,2.104,2.104,2.0754,2.049,0.0,0.0,0.0,0.0,0.0,0.0,0.0,0.0,0.0,0.0,0.0,0.0,0.0,0.0,0.0,0.0,0.0,0.0,0.0,0.0,0.0,0.0,0.0,0.0,0.0,0.0,0.0,0.0,1.5595,1.5805,1.6226,1.6382,1.6671,0.0,0.0,0.0,0.0,0.0,0.0,1.8874,1.9065,1.9503,2.031,2.0472,2.0776,2.1249,2.126,2.1178,2.104,2.1064,2.1182,2.1347,2.1382,2.1641,2.2033,2.1728,2.1511,2.124,1.9829,1.9069,1.883,1.927,1.9227,1.8945,1.9329,1.9449,1.9465,1.948,1.9759,2.003,1.9716,1.9679,1.966,1.9301,0.0,0.0,0.0,0.0,1.9991,2.0553,2.0805,2.1047,2.1438,2.14,2.1202,2.0943,2.0953,2.0835,2.0135,2.0334,2.0596,2.0596,2.0716,0.0,2.08,2.1257,2.1608,2.1608,2.1945,2.2246,2.2393,2.239,2.239,2.239,2.239,2.2357,2.2213,2.1825,2.1608,2.1608,2.1221,2.0944,2.0812,0.0,0.0,0.0,0.0,0.0,0.0,0.0,0.0,0.0,0.0,0.0,0.0,0.0,0.0,0.0,0.0,0.0,0.0,0.0,0.0,0.0,0.0,0.0,0.0,0.0,0.0,0.0,0.0,0.0,1.6472,1.6885,0.0,0.0,0.0,0.0,1.897,1.9595,2.0219,2.0828,2.0876,2.0895,2.0944,2.0953,2.1297,2.1931,2.1957,2.2229,2.2782,2.2904,2.3307,2.3914,2.4042,2.4388,2.4889,2.4877,2.45,2.3695,2.0841,1.9738,1.9836,1.9869,1.9927,2.0009,1.9916,1.988,1.993,2.0375,2.0545,2.0638,2.1123,2.1359,2.1459,2.1373,2.1826,0.0,0.0,2.2219,2.2365,2.2961,2.2618,2.2269,2.2844,2.2791,2.243,2.179,2.193,2.1896,2.0786,2.0584,2.0596,2.0596,0.0,2.1368,2.1368,2.1813,2.2149,2.2149,2.2173,2.2405,2.2911,2.2959,2.2959,2.2959,2.2959,2.2742,2.2221,2.2161,2.2149,2.2149,2.2125,2.1873,2.1368,2.1368,0.0,0.0,0.0,0.0,0.0,0.0,0.0,0.0,0.0,0.0,0.0,0.0,0.0,0.0,0.0,0.0,0.0,0.0,0.0,0.0,0.0,0.0,0.0,0.0,0.0,0.0,0.0,0.0,1.7596,1.8112,0.0,1.9084,1.9667,2.0088,2.0306,2.0538,2.077,2.0988,2.1409,2.1819,2.2214,2.2643,2.3222,2.3996,2.388,2.397,2.4323,2.436,2.4513,2.4757,2.4793,2.4907,2.5091,2.4971,2.4834,2.4652,2.3479,2.263,2.2121,2.2474,2.2413,2.2196,2.2498,2.2592,2.2622,2.2785,2.3051,2.3275,2.3168,2.294,2.2694,2.2671,2.2844,2.3042,2.2989,2.2976,2.311,2.3662,2.3622,2.354,2.4026,2.4065,2.3992,2.408,2.4187,2.4251,2.4165,2.2772,2.1632,2.1632,2.2065,2.2442,2.2442,2.2887,2.3224,2.3224,2.3224,2.3296,2.3488,2.3517,2.3517,2.3517,2.3517,2.3428,2.3236,2.3224,2.3224,2.3224,2.2899,2.2622,2.2442,2.2089,2.1825,0.0,0.0,0.0,0.0,0.0,0.0,0.0,0.0,0.0,0.0,0.0,0.0,0.0,0.0,0.0,0.0,0.0,0.0,0.0,0.0,0.0,0.0,0.0,0.0,0.0,1.7305,1.7887,1.8599,1.9118,1.9706,2.0389,2.0791,2.109,2.1322,2.1525,2.1732,2.1971,2.2655,2.323,2.3629,2.4063,2.4557,2.5091,2.4971,2.4971,2.5091,2.5348,2.5487,2.5548,2.5771,2.5874,2.5874,2.5687,2.565,2.5726,2.5602,2.512,2.4471,2.437,2.4112,2.3846,2.42,2.4351,2.4378,2.4378,2.4564,2.4753,2.4453,2.4127,2.3829,2.3863,2.4011,2.4184,2.4184,2.4184,2.4349,2.5119,2.5163,2.5191,2.5882,2.6006,2.6017,2.6096,2.6074,2.6048,2.6088,2.4705,2.3495,2.3458,2.3536,2.3706,2.3996,2.3912,2.391,2.421,2.3992,2.3849,2.4018,2.4042,2.4042,2.4042,2.4042,2.397,2.3806,2.3806,2.3806,2.3806,2.3469,2.3176,2.2995,2.2646,2.2562,2.2742,0.0,0.0,0.0,0.0,0.0,0.0,0.0,0.0,0.0,0.0,0.0,0.0,0.0,0.0,0.0,0.0,0.0,0.0,0.0,0.0,0.0,0.0,0.0,1.7535,1.7983,1.8634,1.9362,1.9861,2.0447,2.1165,2.1152,2.1361,2.2004,2.262,2.3244,2.3903,2.4671,2.5106,2.5121,2.5121,2.5147,2.5177,2.5177,2.5162,2.5177,2.5906,2.6312,2.6461,2.7102,2.7401,2.7389,2.7258,2.7131,2.7003,2.7003,2.694,2.6691,2.5388,2.4868,2.4856,2.4856,2.4909,2.4963,2.4963,2.4921,2.4871,2.4953,2.4994,2.5,2.5094,2.5522,2.5991,2.5991,2.5991,2.6254,2.7429,2.7311,2.7159,2.8409,2.861,2.8326,2.7706,2.7456,2.716,2.6377,2.6223,2.6162,2.5943,2.5319,2.5145,2.5994,2.4863,0.0,2.5081,2.4443,2.4102,2.4528,2.4576,2.4559,2.4554,2.4542,2.4338,2.3878,2.3854,2.3854,2.3854,2.383,2.3561,2.3047,2.3019,2.3272,2.3806,0.0,0.0,0.0,0.0,0.0,0.0,0.0,0.0,0.0,0.0,0.0,0.0,0.0,0.0,0.0,0.0,0.0,0.0,0.0,0.0,0.0,1.849,1.8892,1.872,1.922,1.9846,2.0477,2.1092,2.1561,2.1756,2.2578,2.3177,2.3365,2.3952,2.4408,2.4753,2.4844,2.515,2.5728,2.5743,2.604,2.6611,2.6625,2.6676,2.6764,2.6967,2.7081,2.7119,2.7325,2.7401,2.7389,2.7258,2.7181,2.713,2.7042,2.724,2.7507,2.6705,2.6334,2.6242,2.6242,2.627,2.627,2.627,2.627,2.6332,2.6783,2.6931,2.7032,2.7525,2.7795,2.7921,2.7921,2.7921,2.8007,2.8348,2.8307,2.828,2.8623,2.8667,2.8712,2.8958,2.9,2.8997,2.9124,2.9148,2.8442,2.6277,2.6051,2.6261,2.6501,2.6583,2.6699,2.6945,2.6892,2.669,2.6274,2.6248,2.604,2.5573,2.5387,2.5239,2.5111,2.496,2.4891,2.4891,2.4518,2.4073,2.3601,2.3589,2.3645,0.0,0.0,0.0,0.0,0.0,0.0,0.0,0.0,0.0,0.0,0.0,0.0,0.0,0.0,0.0,0.0,0.0,0.0,0.0,0.0,0.0,0.0,1.9221,1.9821,2.0386,2.0467,2.0712,2.1336,2.1989,2.2486,2.277,2.3688,2.4271,2.4271,2.4914,2.534,2.5389,2.5664,2.6009,2.6491,2.6505,2.676,2.7284,2.7271,2.731,2.7401,2.7463,2.7488,2.7488,2.7774,2.7908,2.791,2.7966,2.8005,2.7977,2.7899,2.8012,0.0,0.0,0.0,0.0,0.0,2.7605,2.7605,2.7605,2.7605,2.7649,2.7998,2.8115,2.8187,2.8579,2.8695,2.8695,2.8695,2.8695,2.8753,2.9,2.9073,2.9159,2.9421,2.9508,2.9595,2.9943,3.0031,3.0073,3.0255,3.0297,0.0,2.7965,2.7663,2.7784,2.8147,2.7986,2.7959,2.833,2.8087,2.771,2.7278,2.7174,2.6998,2.6598,2.6466,0.0,0.0,0.0,2.6074,2.5774,2.495,0.0,0.0,0.0,2.4194,2.4427,0.0,0.0,0.0,2.3849,2.3637,0.0,0.0,0.0,0.0,0.0,0.0,0.0,0.0,0.0,0.0,0.0,0.0,0.0,0.0,0.0,0.0,1.9943,2.0855,2.2026,2.1707,2.1561,2.2171,2.2704,2.3273,2.3961,2.4561,2.4911,2.4924,2.5671,2.6073,2.5983,2.6755,0.0,0.0,0.0,2.7271,2.7401,2.7414,2.7457,2.7546,2.7656,2.775,2.7839,2.844,2.8712,2.8728,2.904,2.9154,2.9125,2.9111,2.899,2.8738,2.8072,2.8187,2.8695,2.8695,2.8695,2.8695,2.8695,0.0,0.0,2.8782,2.8796,2.8811,2.8884,2.8898,2.8898,2.8898,2.8898,2.9029,2.9566,2.9711,2.9856,3.0452,3.0598,3.0598,3.0598,3.0598,3.0553,3.0372,3.0327,3.0296,3.0188,2.9577,2.9392,3.016,2.9125,2.8538,2.9312,2.8604,2.7995,2.7913,0.0,0.0,2.762,2.7587,2.7571,2.7571,2.7537,2.722,2.6573,2.536,2.4935,2.5406,2.4878,2.4825,2.5312,2.5312,2.5312,2.5288,2.4379,2.3958,0.0,0.0,0.0,0.0,0.0,0.0,0.0,0.0,0.0,0.0,0.0,0.0,0.0,0.0,0.0,2.016,2.1137,2.1974,2.2164,2.2951,2.3543,2.3674,2.3699,2.3963,2.4643,2.5253,2.5654,2.5754,2.6407,2.6889,2.7079,2.7159,2.7246,2.7363,2.7363,2.7376,2.7401,2.7514,2.7833,2.8373,2.8384,0.0,2.9219,2.9338,2.9413,2.9413,2.9479,2.9442,2.9333,2.9181,2.9225,2.9363,2.8753,2.8593,2.8695,2.8695,2.8695,2.8695,2.8695,2.8695,2.8782,2.9261,2.9435,2.9523,3.0074,3.0234,0.0,3.0234,3.0234,3.0263,3.0379,3.0408,3.0437,3.0583,3.0598,3.0598,3.0598,3.0598,3.0583,3.0553,3.0538,3.0522,3.0507,3.0159,2.9943,3.0111,2.9991,2.9916,3.0069,3.0069,2.984,2.9282,2.9204,2.8951,2.836,2.8165,2.8068,2.8068,2.7808,2.7597,2.7448,2.6544,2.6079,2.6191,2.5502,2.5204,2.5312,2.5312,2.5312,2.53,2.5107,2.5011,0.0,0.0,0.0,0.0,0.0,0.0,0.0,0.0,0.0,0.0,0.0,1.8834,1.9483,0.0,2.0656,2.1251,2.1889,2.2517,2.3124,2.3785,2.4197,2.4197,2.4589,2.5002,2.5413,2.6025,2.6427,2.6493,2.6942,2.7222,2.7312,2.7297,2.7323,2.7401,2.7401,2.759,2.7995,2.8072,2.844,2.9099,2.9099,2.9279,2.9608,2.9922,3.0057,3.0058,3.0333,3.0412,3.0326,3.0057,3.0104,3.0295,2.9828,2.9653,2.9653,2.9653,2.9653,2.9653,2.9653,2.9653,2.9697,2.9987,3.0103,3.0161,3.0495,3.0598,3.0598,3.0598,3.0598,3.0598,3.0598,3.0598,3.0598,3.0598,3.0598,3.0598,3.0598,3.0598,3.0598,3.0598,3.0598,3.0598,3.0598,3.0462,3.0341,3.0341,3.0402,3.0447,3.0447,3.0447,3.0312,2.9992,2.9793,2.9546,2.9188,2.8996,2.8901,2.8901,2.8409,2.8106,2.8106,2.7358,2.6947,2.6947,2.6225,2.6022,2.6389,2.5669,2.5494,2.5844,2.5458,2.5312,0.0,0.0,0.0,0.0,0.0,0.0,0.0,1.7503,1.8087,1.8762,1.8984,1.9352,2.0327,2.0714,2.1198,2.2151,2.2555,2.3109,2.4123,2.4519,2.4719,2.4742,2.5389,2.5937,2.6207,2.6694,2.7016,2.7068,2.7273,2.7361,2.7284,2.7374,2.7499,2.7618,2.7633,2.801,2.8786,2.8786,2.9129,2.9773,2.9773,2.9847,2.9997,3.0477,3.0687,3.0717,3.1156,3.1322,3.1278,3.1043,3.0984,3.1014,3.0791,3.0672,3.0598,3.0598,3.0598,3.0598,3.0598,3.0598,3.0598,3.0598,3.0598,3.0598,3.0598,3.0598,3.0598,3.0598,3.0598,3.0598,3.0598,3.0598,3.0598,3.0598,3.0598,3.0598,3.0598,3.0598,3.0598,3.0598,3.0598,3.0598,3.0598,3.0598,3.0583,3.0553,3.0568,3.0582,3.0507,3.0417,3.0341,3.0297,3.0099,2.9947,2.9947,2.9852,2.9789,2.9789,2.9202,2.8842,2.881,2.813,2.772,2.7703,2.6981,2.6913,2.7501,2.6161,2.5896,2.6603,2.5704,2.5312,1.7455,1.7368,1.7433,1.7845,1.7774,1.7766,0.0,1.8529,1.8777,1.9444,1.9969,2.0341,2.0481,2.147,2.2291,2.2298,2.3455,2.4373,2.4461,2.5447,2.6211,2.6329,2.613,2.6266,2.6992,2.7037,2.7094,2.7337,2.7389,2.7437,2.7549,2.7575,2.7859,2.8446,2.8461,2.8788,2.9473,2.9488,2.9803,3.0402,3.0402,3.0702,3.1286,3.1361,3.1391,3.1391,3.1451,3.1409,3.1307,3.138,3.119,3.0836,3.0984,3.0866,3.0598,3.0598,3.0598,3.0598,3.0598,3.0598,3.0598,3.0598,3.0598,3.0598,3.0598,3.0598,3.0598,3.0598,3.0598,3.0598,3.0598,3.0598,3.0598,3.0598,3.0598,3.0598,3.0598,3.0598,3.0598,3.0598,3.0598,3.0598,3.0598,3.0598,3.0538,3.0372,3.0492,3.0492,3.0188,3.0401,3.0492,3.0312,3.0432,3.0507,3.0507,3.0492,3.0477,3.0477,3.0236,3.0038,2.9928,2.9105,2.8567,2.8379,2.7706,2.7434,2.7501,2.6676,2.6671,2.7338,2.5953,2.5312,1.8284,1.8239,1.8176,1.7952,1.8106,1.8365,1.8634,1.9001,1.9465,2.0129,2.046,2.0849,2.164,2.217,2.2748,2.3506,2.4149,2.4789,2.5515,2.614,2.6639,2.7014,2.6922,2.695,2.7282,2.7273,2.7273,2.7389,2.7476,2.7537,2.76,2.7974,2.8321,2.8592,2.8979,2.9488,3.0118,3.0118,3.0447,3.1091,3.1091,3.1227,3.1511,3.1511,3.1511,3.1511,3.1511,3.1467,3.1409,3.1394,3.1278,3.1087,3.0969,3.091,3.088,3.0672,3.0598,3.0598,3.0598,3.0598,3.0598,3.0598,3.0598,3.0598,3.0598,3.0598,3.0598,3.0598,3.0598,3.0598,3.0598,3.0598,3.0598,3.0598,3.0598,3.0598,3.0598,3.0598,3.0598,3.0598,3.0598,3.0699,3.1061,3.1119,3.1204,3.1439,3.097,3.0552,3.0401,3.0507,3.0522,3.0312,3.0387,3.0357,3.0145,3.0129,3.0113,3.0021,2.9943,2.9866,2.9819,2.9463,2.923,2.9137,2.8438,2.8293,2.8723,2.76,2.7368,2.7947,2.6879,2.6334,1.9248,1.9176,1.8963,1.8498,1.868,1.8972,1.8972,1.9495,2.0109,2.0608,2.0997,2.1535,2.2472,2.2729,2.3189,2.438,2.4704,2.5191,2.6294,2.669,2.7011,2.7403,2.7465,2.7465,2.7465,2.7427,2.7427,2.745,2.7549,2.7675,2.7869,2.8336,2.8757,2.9116,2.9608,3.0148,3.0762,3.0777,3.1031,3.1511,3.1511,3.1511,3.1511,3.1511,3.1511,3.1511,3.1511,3.1511,3.1496,3.1394,3.1307,3.1219,3.1014,3.0955,3.094,3.0732,3.0672,3.0657,3.0598,3.0598,3.0598,3.0598,3.0598,3.0598,3.0598,3.0598,3.0598,3.0598,3.0598,3.0598,3.0598,3.0598,3.0641,3.0815,3.0858,3.0902,3.1076,3.112,3.112,3.112,3.112,3.125,3.1699,3.1724,3.1836,3.2296,3.1605,3.1013,3.0921,3.0951,3.0951,3.0829,3.086,3.0798,3.0566,3.055,3.0503,3.0406,3.0406,3.0391,3.0344,3.0344,3.0328,3.0251,2.9748,2.9732,3.0251,2.9024,2.8709,2.922,2.8291,2.7974,0.0,2.0026,1.9838,2.0054,1.9906,1.9669,1.9669,2.0183,2.0683,2.0703,2.1724,2.2612,2.2517,2.3086,2.3761,2.4406,2.51,2.5812,2.6497,2.7165,2.757,2.76,2.76,2.76,2.76,2.7476,2.745,2.7587,2.76,2.7872,2.8532,2.8592,2.9175,3.0402,3.0462,3.0792,3.1466,3.1466,3.1481,3.1511,3.1511,3.1511,3.1511,3.1511,3.1511,3.1511,3.1511,3.1511,3.1511,3.1511,3.1336,3.1117,3.1234,3.1014,3.0642,3.0747,3.0791,3.0777,3.0657,3.0598,3.0598,3.0598,3.0598,3.0598,3.0598,3.0598,3.0598,3.0598,3.0598,3.0598,3.0598,3.0598,3.0742,3.1321,3.1467,3.1655,3.2308,3.2439,3.2439,3.2439,3.2439,3.2453,3.2468,3.2307,3.2259,3.2465,3.2307,3.2039,3.1699,3.1844,3.2006,3.2119,3.2327,3.2423,3.2423,3.2423,3.2423,3.2407,3.2407,3.2343,3.223,3.223,3.2119,3.1925,3.1909,3.1895,3.1925,3.1168,3.1068,3.1549,3.0184,3.0193,0.0,2.0742,2.0421,2.0232,1.9945,1.9828,2.0249,2.0533,2.0952,2.1839,2.2388,2.2812,2.3163,2.3439,2.3958,2.5048,2.543,2.5989,2.7121,2.7465,2.76,2.76,2.76,2.76,2.76,2.7562,2.7744,2.8231,2.8248,2.856,2.9234,2.9639,3.0058,3.0492,3.0927,3.1271,3.1511,3.1511,3.1511,3.1511,3.1511,3.1511,3.1511,3.1511,3.1511,3.1511,3.1511,3.1511,3.1511,3.1511,3.1453,3.1351,3.122,3.1117,3.1029,3.0777,3.0717,3.0777,3.0657,3.0598,3.0598,3.0598,3.0598,3.0598,3.0598,3.0888,3.1206,3.1206,3.1526,3.1859,3.1859,3.1859,3.1902,3.2119,3.2163,3.2235,3.2453,3.2497,3.2497,3.2497,3.2497,3.2627,3.3095,3.3119,3.3216,3.3701,3.2985,3.2368,3.2256,3.2288,3.2352,3.2384,3.2449,3.2449,3.2368,3.2368,3.232,3.2177,3.2161,3.2145,3.2096,3.2096,3.2064,3.1999,3.1999,3.1934,3.1789,3.1547,3.1408,3.1364,3.1008,3.1018,2.1608,2.1182,2.0745,2.0479,2.0338,2.0355,2.0631,2.1181,2.1831,2.2554,2.2868,2.3141,2.3535,2.3595,2.4044,2.5379,2.5603,2.6063,2.7405,2.76,2.76,2.76,2.76,2.76,2.76,2.7824,2.8141,2.8562,2.8607,2.8981,2.9877,3.0283,3.0598,3.0852,3.1271,3.1511,3.1511,3.1511,3.1511,3.1511,3.1511,3.1511,3.1511,3.1511,3.1511,3.1511,3.1511,3.1511,3.1511,3.1511,3.1453,3.1351,3.1278,3.1294,3.1338,3.1173,3.1228,3.1372,3.1019,3.0931,3.096,3.1207,3.128,3.128,3.128,3.1555,3.1858,3.1858,3.2177,3.2497,3.2497,3.2497,3.2555,3.2803,3.2861,3.2919,3.3135,3.3178,3.3178,3.3178,3.3178,3.3309,3.3748,3.3821,3.3933,3.4254,3.3667,3.3162,3.308,3.3066,3.3066,3.3066,3.3146,3.3146,3.3064,3.3048,3.3015,3.2869,3.2852,3.2852,3.2852,3.2852,3.2852,3.2852,3.2852,3.2803,3.2656,3.2656,3.252,3.2246,3.233,3.226,2.1827,2.1316,2.0802,2.0875,2.1085,2.1218,2.0905,2.2113,2.3191,2.2811,2.3201,2.3595,2.3595,2.3595,2.4044,2.5379,2.5603,2.6063,2.7405,2.76,2.76,2.76,2.76,2.76,2.76,2.8216,2.8607,2.8652,2.8682,2.9235,3.0478,3.0538,3.0837,3.1481,3.1511,3.1511,3.1511,3.1511,3.1511,3.1511,3.1511,3.1511,3.1511,3.1511,3.1511,3.1511,3.1511,3.1511,3.1511,3.1511,3.1366,3.1205,3.1439,3.156,3.1631,3.1937,3.224,3.244,3.1815,3.1583,3.1655,3.2293,3.2497,3.2497,3.2497,3.2526,3.2555,3.2555,3.2569,3.2598,3.2598,3.2598,3.2758,3.3385,3.3547,3.369,3.4283,3.4397,3.4397,3.4397,3.4397,3.4397,3.4397,3.4397,3.4346,3.4145,3.4281,3.4329,3.4145,3.4128,3.4128,3.4128,3.4295,3.4397,3.4397,3.4397,3.4397,3.4397,3.4397,3.4397,3.4397,3.4397,3.4397,3.4397,3.4397,3.4397,3.438,3.438,3.4281,3.4077,3.3968,3.3796,2.1796,2.1316,2.0995,2.1794,2.1637,2.1538,2.243,2.298,2.3314,2.3357,2.349,2.3595,2.3595,2.3595,2.4044,2.5379,2.5603,2.6063,2.7405,2.76,2.76,2.76,2.76,2.76,2.76,2.8216,2.8801,2.9309,2.9759,3.0373,3.1197,3.1241,3.1316,3.1481,3.1511,3.1511,3.1511,3.1511,3.1511,3.1511,3.1511,3.1511,3.1511,3.1511,3.1511,3.1511,3.1511,3.1511,3.1511,3.1511,3.1751,3.2139,3.2109,3.2391,3.2814,3.2658,3.2651,3.2746,3.294,3.2658,3.2279,3.2439,3.2497,3.2497,3.2497,3.2846,3.324,3.324,3.3572,3.3918,3.3918,3.3918,3.3947,3.4138,3.4167,3.4211,3.4368,3.4397,3.4397,3.4397,3.4397,3.4397,3.4397,3.4397,3.438,3.4329,3.438,3.438,3.4329,3.4329,3.4329,3.4329,3.438,3.4397,3.4397,3.4397,3.4397,3.4397,3.4397,3.4397,3.4397,3.4397,3.4397,3.4397,3.4397,3.4329,3.4179,3.4179,3.4008,3.373,3.3954,3.3971,2.1805,2.1316,2.101,2.187,2.2054,2.2237,2.3107,2.3807,2.4198,2.3955,2.3909,2.3846,2.3642,2.3595,2.4044,2.5379,2.5603,2.6063,2.7405,2.76,2.76,2.76,2.76,2.772,2.8006,2.865,2.9309,2.9952,3.0313,3.0792,3.1466,3.1511,3.1511,3.1511,3.1511,3.1511,3.1511,3.1511,3.1511,3.1511,3.1511,3.1511,3.1511,3.1511,3.1511,3.1511,3.1511,3.1675,3.1929,3.1929,3.2303,3.2855,3.2825,3.3088,3.3463,3.3367,3.3413,3.3543,3.381,3.3645,3.3338,3.3338,3.3338,3.3338,3.3338,3.3601,3.3894,3.3894,3.4138,3.4397,3.4397,3.4397,3.4397,3.4397,3.4397,3.4397,3.4397,3.4397,3.4397,3.4397,3.4397,3.4397,3.4397,3.4397,3.4397,3.4397,3.4397,3.4397,3.4397,3.4397,3.4397,3.4397,3.4397,3.4397,3.4397,3.4397,3.4397,3.4397,3.4397,3.4397,3.4397,3.4397,3.4397,3.4397,3.4397,3.4346,3.423,3.423,3.4128,3.3954,3.4042,3.4059,2.1753,2.1277,2.0985,2.1804,2.2464,2.3015,2.341,2.4508,2.5189,2.4369,2.4209,2.4078,2.367,2.3595,2.4044,2.5379,2.5603,2.6063,2.7405,2.76,2.76,2.76,2.76,2.7857,2.8532,2.9219,2.9847,3.0447,3.0582,3.0897,3.1466,3.1511,3.1511,3.1511,3.1511,3.1511,3.1511,3.1511,3.1511,3.1511,3.1511,3.1511,3.1511,3.1511,3.1555,3.163,3.163,3.2004,3.2632,3.2632,3.296,3.3464,3.3572,3.3725,3.3901,3.4046,3.4233,3.4431,3.4414,3.445,3.4517,3.4431,3.4397,3.4397,3.4397,3.4397,3.4397,3.4397,3.4397,3.4397,3.4397,3.4397,3.4397,3.4397,3.4397,3.4397,3.4397,3.447,3.4528,3.4528,3.4603,3.4644,3.4644,3.4644,3.4644,3.4644,3.4644,3.4644,3.4644,3.4499,3.4397,3.4397,3.4397,3.4397,3.4397,3.4397,3.4397,3.4397,3.4397,3.4397,3.4397,3.4397,3.4397,3.4397,3.4397,3.4397,3.4397,3.4397,3.4397,3.4363,3.43,3.4257,2.1464,2.1103,2.1252,2.3137,2.3257,2.3206,2.4361,2.4818,2.4748,2.3905,2.3713,2.3707,2.3616,2.3595,2.4044,2.5379,2.5603,2.6063,2.7405,2.76,2.76,2.76,2.76,2.7857,2.8532,2.9219,2.9847,3.0447,3.1017,3.1376,3.1496,3.1511,3.1511,3.1511,3.1511,3.1511,3.1511,3.1511,3.1511,3.1511,3.1511,3.1511,3.1511,3.1511,3.1795,3.2333,3.2333,3.2706,3.332,3.332,3.3724,3.4276,3.4135,3.4425,3.4904,3.4672,3.4612,3.4631,3.4465,3.4771,3.5137,3.4585,3.4397,3.4397,3.4397,3.4397,3.4397,3.4397,3.4397,3.4397,3.4397,3.4397,3.4397,3.4397,3.4397,3.4397,3.4397,3.4852,3.5232,3.5232,3.5636,3.5964,3.5964,3.5964,3.5964,3.5964,3.5964,3.5964,3.5964,3.505,3.4397,3.4397,3.4397,3.4397,3.4397,3.4397,3.4397,3.4397,3.4397,3.4397,3.4397,3.4397,3.4397,3.4397,3.4397,3.4397,3.4397,3.4397,3.4312,3.4159,3.4865,3.5094,2.1395,2.1055,2.1123,2.2471,2.2841,2.3161,2.4157,2.5003,2.5326,2.4461,2.4277,2.4142,2.3681,2.3595,2.3924,2.493,2.5379,2.5959,2.6929,2.7375,2.76,2.76,2.76,2.8004,2.9024,2.9413,2.9997,3.0957,3.1316,3.1511,3.1511,3.1511,3.1511,3.1511,3.1511,3.1511,3.1511,3.1511,3.1511,3.1511,3.1511,3.1511,3.1511,3.1854,3.2198,3.2527,3.2871,3.3349,3.3868,3.3993,3.4302,3.4723,3.4835,3.4899,3.4966,3.5233,3.5201,3.5087,3.5351,3.5432,3.5351,3.5023,3.4922,3.487,3.4501,3.4397,3.4397,3.4397,3.4397,3.4486,3.4837,3.4925,3.4994,3.5314,3.5401,3.5401,3.5401,3.5633,3.5868,3.5868,3.6098,3.6301,3.6301,3.6301,3.6301,3.6301,3.6301,3.6301,3.6301,3.5778,3.5401,3.5401,3.5111,3.4925,3.4925,3.4603,3.4397,3.4397,3.4397,3.4397,3.4397,3.4397,3.4397,3.4397,3.4397,3.4397,3.4397,3.4397,3.4523,3.4787,3.5209,3.5514,2.1395,2.1055,2.0994,2.1753,2.2429,2.3027,2.3549,2.4788,2.5569,2.4613,2.45,2.4341,2.3715,2.3595,2.3808,2.4485,2.5158,2.5827,2.6509,2.718,2.76,2.76,2.76,2.8124,2.9458,2.9593,3.0118,3.1406,3.1511,3.1511,3.1511,3.1511,3.1511,3.1511,3.1511,3.1496,3.1452,3.1496,3.1496,3.1452,3.1496,3.1585,3.1735,3.2258,3.2662,3.2961,3.3439,3.3974,3.4475,3.4554,3.4754,3.505,3.5245,3.508,3.4833,3.5528,3.5529,3.5286,3.5946,3.585,3.5383,3.5236,3.5187,3.5088,3.4568,3.4501,3.4617,3.4617,3.4719,3.4936,3.5447,3.5595,3.5709,3.6199,3.6301,3.6301,3.6301,3.6417,3.6519,3.6519,3.6635,3.6707,3.6707,3.6707,3.6707,3.6707,3.6707,3.6707,3.6707,3.6707,3.6707,3.6707,3.6043,3.5595,3.5595,3.5111,3.482,3.482,3.469,3.4617,3.4617,3.4486,3.4397,3.4397,3.4397,3.447,3.4617,3.4617,3.4954,3.561,3.5738,3.6057,2.1395,2.1055,2.1117,2.2449,2.2855,2.2907,2.2905,2.3804,2.4324,2.3138,2.3138,2.3412,2.3576,2.3595,2.3808,2.4485,2.5158,2.5827,2.6509,2.718,2.76,2.76,2.76,2.8124,2.9458,2.9593,3.0118,3.1406,3.1511,3.1511,3.1511,3.1511,3.1511,3.1511,3.1511,3.1438,3.1322,3.1438,3.1438,3.1322,3.1438,3.1824,3.2407,3.2467,3.3155,3.4323,3.418,3.4613,3.5351,3.5009,3.5088,3.5407,3.4948,3.4817,3.4935,3.5317,3.5039,3.4585,3.5253,3.5464,3.5302,3.4687,3.4484,3.4481,3.4414,3.4837,3.5319,3.5319,3.5709,3.6138,3.6199,3.6228,3.6228,3.6301,3.6301,3.6301,3.6301,3.678,3.7215,3.7215,3.7651,3.8028,3.8028,3.8028,3.8028,3.8028,3.8028,3.8028,3.8028,3.8028,3.8028,3.8028,3.6939,3.6228,3.6228,3.617,3.6141,3.6141,3.5607,3.5319,3.5319,3.4719,3.4397,3.4397,3.4397,3.4704,3.5319,3.5319,3.5622,3.6228,3.6838,3.7157,2.1395,2.1055,2.0981,2.1752,2.1941,2.1981,2.2165,2.3083,2.3622,2.2655,2.3269,2.3798,2.3169,2.3589,2.4022,2.4002,0.0,2.5678,2.5959,2.6914,2.76,2.76,2.76,2.8124,2.9458,2.9593,3.0118,3.1406,3.1423,3.1409,3.1511,3.1511,3.1511,3.1511,3.1511,3.1438,3.1292,3.1351,3.1351,3.1307,3.1634,3.205,3.2527,3.3213,3.387,3.4518,3.4842,3.5041,3.5148,3.523,3.5082,3.485,3.4964,3.4833,3.4685,3.5348,3.5333,3.5105,3.577,3.5994,3.5962,3.5694,3.5571,3.5488,3.5113,3.5447,3.5941,3.5941,3.6112,3.6402,3.6809,3.7172,3.7447,3.7447,3.7447,3.7447,3.7447,3.7651,3.7839,3.7839,3.8043,3.8202,3.8202,3.8202,3.8202,3.8202,3.8202,3.8202,3.8202,3.8202,3.8202,3.8202,3.7433,3.691,3.691,3.6515,3.6301,3.6301,3.6069,3.5941,3.5941,3.5691,3.5529,3.5529,3.5529,3.5677,3.5941,3.5941,3.6272,3.6925,3.7186,3.7491,2.1518,2.1135,2.0876,2.1214,2.1308,2.1303,2.1323,2.2286,2.291,2.2003,2.3076,2.3877,2.2879,2.3568,2.4207,0.0,0.0,2.5663,2.5869,2.6869,2.76,2.76,2.7779,2.8323,2.9406,2.9869,3.0481,3.1378,3.1394,3.1365,3.138,3.1409,3.1452,3.1511,3.1424,3.1351,3.1292,3.1292,3.1367,3.1516,3.193,3.2435,3.2973,3.3882,3.4418,3.4642,3.5118,3.5197,3.5001,3.5129,3.4949,3.4666,3.4883,3.4767,3.4582,3.5332,3.5398,3.5233,3.6093,3.626,3.6126,3.6319,3.6458,3.6519,3.6086,3.6275,3.6606,3.6606,3.6722,3.6983,3.7429,3.7883,3.8202,3.8202,3.8202,3.8202,3.8202,3.8202,3.8202,3.8202,3.8202,3.8202,3.8202,3.8202,3.8202,3.8202,3.8202,3.8202,3.8202,3.8202,3.8202,3.8202,3.7825,3.7578,3.7578,3.7143,3.6867,3.6867,3.6693,3.6606,3.6606,3.6417,3.6301,3.6301,3.6301,3.6402,3.6606,3.6606,3.6939,3.7578,3.7578,3.7796,2.1805,2.1308,2.0876,2.1214,2.1308,2.1108,2.0386,2.1359,2.2079,2.0951,2.2148,2.3274,2.2793,2.3568,2.4349,2.4552,2.5158,0.0,2.6509,2.718,2.76,2.76,2.8186,2.878,2.9259,3.0505,3.1292,3.1292,3.1423,3.138,3.1117,3.1219,3.1365,3.1511,3.1234,3.1176,3.1292,3.1292,3.1531,3.2,3.2333,3.3017,3.3995,3.4345,3.4639,3.4903,3.4887,3.5017,0.0,3.4633,3.4716,3.5131,3.4616,3.4532,3.475,3.5219,3.4973,3.4602,3.5943,3.5978,3.5508,3.6115,3.6751,3.7302,3.7288,3.7269,3.7302,3.7302,3.7723,3.8188,3.8188,3.8202,3.8202,3.8202,3.8202,3.8202,3.8202,3.8202,3.8202,3.8202,3.8202,3.8202,3.8202,3.8202,3.8202,3.8202,3.8202,3.8202,3.8202,3.8202,3.8202,3.8202,3.8202,3.8188,3.8188,3.8188,3.8188,3.8188,3.7622,3.7302,3.7302,3.6646,3.6301,3.6301,3.6301,3.6635,3.7302,3.7302,3.7607,3.8188,3.8188,3.8188,2.1805,2.1487,2.1222,2.1564,2.1093,2.0563,2.0601,2.0977,2.1202,2.078,2.2365,2.3571,2.2839,2.3794,2.4699,2.4608,2.5158,2.5827,2.6509,2.718,2.76,2.76,2.859,2.9465,2.9941,3.0787,3.1292,3.1292,3.1132,3.1087,3.1234,3.097,3.0955,3.122,3.1132,3.1043,3.0955,3.1411,3.1719,3.1878,3.2772,3.3516,3.4154,3.4482,3.4873,3.5294,3.5017,3.4935,3.4984,3.4819,3.4716,3.465,3.4616,3.4563,3.4515,3.4668,3.4879,3.5133,3.5578,3.6149,3.6722,3.6925,3.7418,3.7926,3.7926,3.7926,3.7926,3.7926,3.8057,3.8202,3.8202,3.8202,3.8202,3.8202,3.8202,3.8202,3.8202,3.8202,3.8202,3.8202,3.8202,3.8202,3.8202,3.8202,3.8202,3.8202,3.8202,3.8202,3.8202,3.8202,3.8202,3.8202,3.8202,3.8202,3.8202,3.8202,3.8202,3.8202,3.8028,3.7926,3.7926,3.7709,3.7607,3.7607,3.7607,3.7709,3.7926,3.7926,3.8014,3.8202,3.8202,3.8202,0.0,2.1456,2.1191,2.1533,2.0902,2.0268,2.0529,2.0787,2.0934,2.0741,2.2456,2.3727,2.2859,2.3906,2.4915,2.4961,2.5334,2.5929,2.6854,2.7345,2.7779,2.8289,2.8937,2.9689,3.0594,3.0938,3.1117,3.1117,3.0984,3.094,3.1029,3.0821,3.0747,3.091,3.091,3.1027,3.1247,3.1612,3.2036,3.2534,3.3307,3.3884,3.4281,3.4626,3.4883,3.508,3.49,3.4819,0.0,3.4735,3.4618,3.4515,3.458,3.4498,3.4426,3.4675,3.5041,3.5465,3.5941,3.6653,3.7346,3.7578,3.7897,3.8202,3.8202,3.8202,3.8202,3.8202,3.8202,3.8202,3.8202,3.8202,3.8202,3.8202,3.8202,3.8202,3.8202,3.8202,3.8202,3.8202,3.8202,3.8202,3.8202,3.8202,3.8202,3.8202,3.8202,3.8202,3.8202,3.8202,3.8202,3.8202,3.8202,3.8202,3.8202,3.8202,3.8202,3.8202,3.8202,3.8202,3.8202,3.8202,3.8202,3.8202,3.8202,3.8202,3.8202,3.8202,3.8202,3.8202,3.8202,3.8202,0.0,0.0,0.0,0.0,0.0,0.0,2.0268,2.0794,0.0,2.0876,2.2526,2.3774,2.292,2.3968,2.5108,2.5529,2.5633,2.6123,2.742,2.76,2.8094,2.9415,2.9182,2.9558,3.113,3.0999,3.0791,3.0791,3.0955,3.0925,3.0642,3.0717,3.0732,3.0598,3.0598,3.1038,3.1955,3.1892,3.2474,3.3703,3.3924,3.4164,3.4431,3.4719,3.4702,3.4448,3.4614,3.4681,3.4681,3.4481,3.4498,3.4664,3.4465,3.4426,3.4559,3.5157,3.545,3.5712,3.6881,3.7331,3.7462,3.8028,3.8202,3.8202,3.8202,3.8202,3.8202,3.8202,3.8202,3.8202,3.8202,3.8202,3.8202,3.8202,3.8202,3.8202,3.8202,3.8202,3.8202,3.8202,3.8202,3.8202,3.8202,3.8202,3.8202,3.8202,3.8202,3.8202,3.8202,3.8202,3.8202,3.8202,3.8202,3.8202,3.8202,3.8202,3.8202,3.8202,3.8202,3.8202,3.8202,3.8202,3.8202,3.8202,3.8202,3.8202,3.8202,3.8202,3.8202,3.8202,3.8202,3.8202,0.0,0.0,0.0,0.0,0.0,0.0,0.0,0.0,0.0,0.0,0.0,2.4179,2.3499,2.4642,2.5644,2.5604,2.6033,2.6644,2.748,2.76,2.804,2.9235,2.9277,2.9727,3.1028,3.094,3.0791,3.0791,3.0747,3.0732,3.0747,3.0687,3.0642,3.0598,3.0598,3.0932,3.1618,3.2096,3.2751,3.3538,3.4049,3.442,3.4631,3.4549,3.4601,3.4769,3.4566,3.4563,3.4681,3.4481,3.4431,3.4465,3.4414,3.4704,3.5171,3.5334,3.6014,3.6896,3.7201,3.7607,3.8014,3.8159,3.8202,3.8202,3.8202,3.8202,3.8202,3.8202,3.8202,3.8202,3.8202,3.8202,3.8202,3.8202,3.8202,3.8202,3.8202,3.8202,3.8202,3.8202,3.8202,3.8202,3.8202,3.8202,3.8202,3.8202,3.8202,3.8202,3.8202,3.8202,3.8202,3.8202,3.8202,3.8202,3.8202,3.8202,3.8202,3.8202,3.8202,3.8202,3.8202,3.8202,3.8202,3.8202,3.8202,3.8202,3.8202,3.8202,3.8202,3.8202,3.8202,3.8202,0.0,0.0,0.0,0.0,0.0,0.0,0.0,0.0,0.0,0.0,0.0,2.4156,2.4064,2.4923,2.5719,2.6017,2.6302,2.674,2.7409,2.7688,2.8202,2.917,2.9377,2.9839,3.0852,3.0806,3.0717,3.0717,3.0642,3.0642,3.0702,3.0642,3.0598,3.0598,3.0873,3.1322,3.196,3.2322,3.2991,3.3923,3.424,3.4465,3.4563,3.4448,3.4498,3.4652,3.4481,3.4465,3.4563,3.4431,3.4397,3.4397,3.4397,3.4806,3.5436,3.5709,3.6431,3.7327,3.7622,3.7941,3.8202,3.8202,3.8202,3.8202,3.8202,3.8202,3.8202,3.8202,3.8202,3.8202,3.8202,3.8202,3.8202,3.8202,3.8202,3.8202,3.8202,3.8202,3.8202,3.8202,3.8202,3.8202,3.8202,3.8202,3.8202,3.8202,3.8202,3.8202,3.8202,3.8202,3.8202,3.8202,3.8202,3.8202,3.8202,3.8202,3.8202,3.8202,3.8202,3.8202,3.8202,3.8202,3.8202,3.8202,3.8202,3.8202,3.8202,3.8202,3.8202,3.8202,3.8202,3.8202,0.0,0.0,0.0,0.0,0.0,0.0,0.0,0.0,0.0,0.0,0.0,2.401,2.4477,2.506,2.5683,2.6453,2.6557,2.6738,2.7287,2.7794,2.8375,2.9148,2.9475,2.9944,3.0718,3.0687,3.0598,3.0598,3.0598,3.0598,3.0598,3.0598,3.0598,3.0598,3.1192,3.1829,3.2497,3.2598,3.3236,3.4397,3.4397,3.4397,3.4397,3.4397,3.4397,3.4397,3.4397,0.0,3.4397,3.4397,3.4397,3.4412,3.4499,3.4968,3.5625,3.6228,3.6881,3.752,3.8028,3.8202,3.8202,3.8202,3.8202,3.8202,3.8202,3.8202,3.8202,3.8202,3.8202,3.8202,3.8202,3.8202,3.8202,3.8202,3.8202,3.8202,3.8202,3.8202,3.8202,3.8202,3.8202,3.8202,3.8202,3.8202,3.8202,3.8202,3.8202,3.8202,3.8202,3.8202,3.8202,3.8202,3.8202,3.8202,3.8202,3.8202,3.8202,3.8202,3.8202,3.8202,3.8202,3.8202,3.8202,3.8202,3.8202,3.8202,3.8202,3.8202,3.8202,3.8202,3.8202,3.8202,2.0897,2.1095,2.086,2.0811,0.0,0.0,0.0,0.0,0.0,0.0,0.0,2.4264,2.441,2.5326,2.6146,2.6385,2.6881,2.7244,2.7231,2.7727,2.8321,2.8885,2.9446,3.0046,3.0733,3.0687,3.0598,3.0598,3.0598,3.0598,3.0598,3.0598,3.0598,3.0598,3.1192,3.1829,3.2497,3.3066,3.3705,3.4397,3.4397,3.4397,3.4397,3.4397,3.4397,3.4397,0.0,3.4397,3.4397,3.4397,3.4397,3.4455,3.5026,3.5622,3.6243,3.691,3.7535,3.8086,3.8173,3.8202,3.8202,3.8202,3.8202,3.8202,3.8202,3.8202,3.8202,3.8202,3.8202,3.8202,3.8202,3.8202,3.8202,3.8202,3.8202,3.8202,3.8202,3.8202,3.8202,3.8202,3.8202,3.8202,3.8202,3.8202,3.8202,3.8202,3.8202,3.8202,3.8202,3.8202,3.8202,3.8202,3.8202,3.8202,3.8202,3.8202,3.8202,3.8202,3.8202,3.8202,3.8202,3.8202,3.8202,3.8202,3.8202,3.8202,3.8202,3.8202,3.8202,3.8202,3.8202,3.8202,2.1018,2.0901,2.0607,2.1145,0.0,0.0,0.0,0.0,0.0,0.0,0.0,0.0,2.4878,2.5698,2.6408,2.6676,2.7043,2.7351,2.7546,2.8136,2.8741,2.9329,2.9886,3.0352,3.0673,3.0642,3.0598,3.0598,3.0598,3.0598,3.0598,3.0598,3.0598,3.0598,3.154,3.2192,3.2497,3.3499,3.4124,3.4397,3.4397,3.4397,3.4397,3.4397,3.4397,3.4397,0.0,3.4397,3.4397,3.4397,3.4397,3.4472,3.5128,3.5767,3.6431,3.7418,3.797,3.8202,3.8202,3.8202,3.8202,3.8202,3.8202,3.8202,3.8202,3.8202,3.8202,3.8202,3.8202,3.8202,3.8202,3.8202,3.8202,3.8202,3.8202,3.8202,3.8202,3.8202,3.8202,3.8202,3.8202,3.8202,3.8202,3.8202,3.8202,3.8202,3.8202,3.8202,3.8202,3.8202,3.8202,3.8202,3.8202,3.8202,3.8202,3.8202,3.8202,3.8202,3.8202,3.8202,3.8202,3.8202,3.8202,3.8202,3.8202,3.8202,3.8202,3.8202,3.8202,3.8202,3.8202,3.8202,2.0958,2.0639,2.0325,2.1332,0.0,0.0,0.0,0.0,0.0,0.0,0.0,2.4779,2.5414,2.6088,2.6646,2.6993,2.7223,2.7486,2.7851,2.8571,2.9244,2.9696,3.025,3.0598,3.0598,3.0598,3.0598,3.0598,3.0598,3.0598,3.0598,3.0598,3.0598,3.0598,3.1845,3.2497,3.2497,3.3759,3.4397,3.4397,3.4397,3.4397,3.4397,3.4397,3.4397,3.4397,3.4397,3.4397,3.4397,3.4397,3.4501,3.4704,3.536,3.6086,3.6867,3.7839,3.8202,3.8202,3.8202,3.8202,3.8202,3.8202,3.8202,3.8202,3.8202,3.8202,3.8202,3.8202,3.8202,3.8202,3.8202,3.8202,3.8202,3.8202,3.8202,3.8202,3.8202,3.8202,3.8202,3.8202,3.8202,3.8202,3.8202,3.8202,3.8202,3.8202,3.8202,3.8202,3.8202,3.8202,3.8202,3.8202,3.8202,3.8202,3.8202,3.8202,3.8202,3.8202,3.8202,3.8202,3.8202,3.8202,3.8202,3.8202,3.8202,3.8202,3.8202,3.8202,3.8202,3.8202,3.8202,3.8202,2.0532,2.0299,1.9984,2.0992,2.098,0.0,2.2369,2.2581,0.0,2.4138,0.0,2.4804,2.5776,2.6502,2.701,2.7168,2.7563,2.7852,2.791,2.8852,2.9566,2.961,3.0205,3.0598,3.0598,3.0598,3.0598,3.0598,3.0598,3.0598,3.0598,3.0598,3.0598,3.0598,3.1845,3.2497,3.2497,3.3759,3.4397,3.4397,3.4397,3.4397,3.4397,3.4397,3.4397,3.4397,3.4397,3.4397,3.4397,3.4397,3.4762,3.5392,3.5996,3.6983,3.8072,3.8173,3.8202,3.8202,3.8202,3.8202,3.8202,3.8202,3.8202,3.8202,3.8202,3.8202,3.8202,3.8202,3.8202,3.8202,3.8202,3.8202,3.8202,3.8202,3.8202,3.8202,3.8202,3.8202,3.8202,3.8202,3.8202,3.8202,3.8202,3.8202,3.8202,3.8202,3.8202,3.8202,3.8202,3.8202,3.8202,3.8202,3.8202,3.8202,3.8202,3.8202,3.8202,3.8202,3.8202,3.8202,3.8202,3.8202,3.8202,3.8202,3.8202,3.8202,3.8202,3.8202,3.8202,3.8202,3.8202,3.8202,2.0682,2.0653,2.0713,2.1599,2.1815,0.0,0.0,2.2865,2.3336,2.4125,2.4688,0.0,2.644,2.6763,2.6884,2.695,2.7409,2.7922,2.8328,2.9087,2.9755,3.0161,3.0452,3.0598,3.0598,3.0598,3.0598,3.0598,3.0598,3.0598,3.0598,3.0598,3.0598,3.0598,3.1845,3.2497,3.2497,3.3759,3.4397,3.4397,3.4397,3.4397,3.4397,3.4397,3.4397,3.4397,3.4397,3.4397,3.4397,3.4397,3.4791,3.5508,3.6519,3.7462,3.8202,3.8202,3.8202,3.8202,3.8202,3.8202,3.8202,3.8202,3.8202,3.8202,3.8202,3.8202,3.8202,3.8202,3.8202,3.8202,3.8202,3.8202,3.8202,3.8202,3.8202,3.8202,3.8202,3.8202,3.8202,3.8202,3.8202,3.8202,3.8202,3.8202,3.8202,3.8202,3.8202,3.8202,3.8202,3.8202,3.8202,3.8202,3.8202,3.8202,3.8202,3.8202,3.8202,3.8202,3.8202,3.8202,3.8202,3.8202,3.8202,3.8202,3.8202,3.8202,3.8202,3.8202,3.8202,3.8202,3.8202,3.8202,2.046,2.0661,2.1061,2.1773,0.0,0.0,2.2657,2.3226,2.3866,2.4341,2.5188,2.6083,2.6868,2.6899,2.6865,2.7041,2.7621,2.8231,2.8884,2.9523,3.0089,3.0554,3.0598,3.0598,3.0598,3.0598,3.0598,3.0598,3.0598,3.0598,3.0598,3.0598,3.0598,3.0598,3.1845,3.2497,3.2497,3.3759,3.4397,3.4397,3.4397,3.4397,3.4397,3.4397,3.4397,3.4397,3.4397,3.4397,3.4412,3.4632,3.5229,3.6101,3.7172,3.7839,3.8202,3.8202,3.8202,3.8202,3.8202,3.8202,3.8202,3.8202,3.8202,3.8202,3.8202,3.8202,3.8202,3.8202,3.8202,3.8202,3.8202,3.8202,3.8202,3.8202,3.8202,3.8202,3.8202,3.8202,3.8202,3.8202,3.8202,3.8202,3.8202,3.8202,3.8202,3.8202,3.8202,3.8202,3.8202,3.8202,3.8202,3.8202,3.8202,3.8202,3.8202,3.8202,3.8202,3.8202,3.8202,3.8202,3.8202,3.8202,3.8202,3.8202,3.8202,3.8202,3.8202,3.8202,3.8202,3.8202,3.8202,3.8202,1.9714,2.0148,2.082,2.1291,0.0,0.0,2.3028,2.3678,2.4355,2.4899,2.5955,2.6846,2.6964,2.6886,2.6997,2.7594,2.8274,2.8927,2.9523,3.0176,3.0598,3.0598,3.0598,3.0598,3.0598,3.0598,3.0598,3.0598,3.0598,3.0598,3.0598,3.0598,3.0598,3.0598,3.1845,3.2497,3.2497,3.3759,3.4397,3.4397,3.4397,3.4397,3.4397,3.4397,3.4397,3.4397,3.4397,3.4397,3.4441,3.5128,3.6159,3.736,3.797,3.8202,3.8202,3.8202,3.8202,3.8202,3.8202,3.8202,3.8202,3.8202,3.8202,3.8202,3.8202,3.8202,3.8202,3.8202,3.8202,3.8202,3.8202,3.8202,3.8202,3.8202,3.8202,3.8202,3.8202,3.8202,3.8202,3.8202,3.8202,3.8202,3.8202,3.8202,3.8202,3.8202,3.8202,3.8202,3.8202,3.8202,3.8202,3.8202,3.8202,3.8202,3.8202,3.8202,3.8202,3.8202,3.8202,3.8202,3.8202,3.8202,3.8202,3.8202,3.8202,3.8202,3.8202,3.8202,3.8202,3.8202,3.8202,3.8202,2.0128,2.0734,2.1464,2.1475,2.2199,2.3076,0.0,2.4012,0.0,0.0,2.6289,2.6806,2.6859,2.7169,2.7491,2.7666,2.8623,2.9406,2.9566,3.0176,3.0598,3.0598,3.0598,3.0598,3.0598,3.0598,3.0598,3.0598,3.0598,3.0598,3.0598,3.0598,3.0598,3.0598,3.1845,3.2497,3.2497,3.3759,3.4397,3.4397,3.4397,3.4397,3.4397,3.4397,3.4397,3.4397,3.4397,3.4397,3.447,3.5575,3.6533,3.736,3.797,3.8202,3.8202,3.8202,3.8202,3.8202,3.8202,3.8202,3.8202,3.8202,3.8202,3.8202,3.8202,3.8202,3.8202,3.8202,3.8202,3.8202,3.8202,3.8202,3.8202,3.8202,3.8202,3.8202,3.8202,3.8202,3.8202,3.8202,3.8202,3.8202,3.8202,3.8202,3.8202,3.8202,3.8202,3.8202,3.8202,3.8202,3.8202,3.8202,3.8202,3.8202,3.8202,3.8202,3.8202,3.8202,3.8202,3.8202,3.8202,3.8202,3.8202,3.8202,3.8202,3.8202,3.8202,3.8202,3.8202,3.8202,3.8202,3.8202,2.0353,2.0956,2.164,2.1693,2.2409,2.3342,2.4224,2.4624,2.5116,2.6106,2.6568,2.6792,2.6792,2.7288,2.7782,2.8043,2.8942,2.9697,2.9972,3.035,3.0598,3.0598,3.0598,3.0598,3.0598,3.0598,3.0598,3.0598,3.0598,3.0598,3.0598,3.0598,3.0598,3.0598,3.1845,3.2497,3.2497,3.3759,3.4397,3.4397,3.4397,3.4397,3.4397,3.4397,3.4397,3.4397,3.4397,3.4687,3.5209,3.5978,3.6838,3.7694,3.8057,3.8202,3.8202,3.8202,3.8202,3.8202,3.8202,3.8202,3.8202,3.8202,3.8202,3.8202,3.8202,3.8202,3.8202,3.8202,3.8202,3.8202,3.8202,3.8202,3.8202,3.8202,3.8202,3.8202,3.8202,3.8202,3.8202,3.8202,3.8202,3.8202,3.8202,3.8202,3.8202,3.8202,3.8202,3.8202,3.8202,3.8202,3.8202,3.8202,3.8202,3.8202,3.8202,3.8202,3.8202,3.8202,3.8202,3.8202,3.8202,3.8202,3.8202,3.8202,3.8202,3.8202,3.8202,3.8202,3.8202,3.8202,3.8202,3.8202,2.0492,2.0932,2.1515,2.1905,2.2647,2.353,2.4641,2.5413,2.6066,2.6676,2.6792,2.6821,2.6865,2.7375,2.8014,2.8666,2.929,2.99,3.051,3.0598,3.0598,3.0598,3.0598,3.0598,3.0598,3.0598,3.0598,3.0598,3.0598,3.0598,3.0598,3.0598,3.0598,3.0598,3.1845,3.2497,3.2497,3.3759,3.4397,3.4397,3.4397,3.4397,3.4397,3.4397,3.4397,3.4397,3.4397,3.5122,3.6301,3.6301,3.7056,3.8202,3.8202,3.8202,3.8202,3.8202,3.8202,3.8202,3.8202,3.8202,3.8202,3.8202,3.8202,3.8202,3.8202,3.8202,3.8202,3.8202,3.8202,3.8202,3.8202,3.8246,3.8289,3.8289,3.8289,3.8289,3.8289,3.8289,3.8275,3.8217,3.8202,3.8202,3.8202,3.8202,3.8202,3.8202,3.8202,3.8202,3.8202,3.8202,3.8202,3.8202,3.8202,3.8202,3.8202,3.8202,3.8202,3.8202,3.8202,3.8202,3.8202,3.8202,3.8202,3.8202,3.8202,3.8202,3.8202,3.8202,3.8202,3.8202,3.8202,3.8202,2.0892,2.1246,2.1704,2.1988,2.3266,2.4527,2.4832,2.5776,2.6618,2.6763,2.6792,2.6938,2.7419,2.8042,2.8681,2.9305,2.9958,3.0437,3.0583,3.0598,3.0598,3.0598,3.0598,3.0598,3.0598,3.0598,3.0598,3.0598,3.0598,3.0598,3.0598,3.0598,3.0598,3.0598,3.1845,3.2497,3.2497,3.3759,3.4397,3.4397,3.4397,3.4397,3.4397,3.4397,3.4397,3.4397,3.4397,3.5122,3.6301,3.6301,3.7056,3.8202,3.8202,3.8202,3.8202,3.8202,3.8202,3.8202,3.8202,3.8202,3.8202,3.8202,3.8202,3.8202,3.8202,3.8202,3.8202,3.8202,3.8202,3.8202,3.8202,3.8594,3.8986,3.8986,3.8986,3.8986,3.8986,3.8986,3.8826,3.8304,3.8202,3.8202,3.8202,3.8202,3.8202,3.8202,3.8202,3.8202,3.8202,3.8202,3.8202,3.8202,3.8202,3.8202,3.8202,3.8202,3.8202,3.8202,3.8202,3.8202,3.8202,3.8202,3.8202,3.8202,3.8202,3.8202,3.8202,3.8202,3.8202,3.8202,3.8202,3.8202,2.132,2.1539,2.1834,2.2352,2.3656,2.4824,2.4878,2.5892,2.6792,2.6792,2.6792,2.6968,2.7579,2.8245,2.8898,2.9508,3.0161,3.0598,3.0598,3.0598,3.0598,3.0598,3.0598,3.0598,3.0598,3.0598,3.0598,3.0598,3.0598,3.0598,3.0598,3.0598,3.0598,3.0598,3.1845,3.2497,3.2497,3.3759,3.4397,3.4397,3.4397,3.4397,3.4397,3.4397,3.4397,3.4397,3.4397,3.5122,3.6301,3.6301,3.7056,3.8202,3.8202,3.8202,3.8202,3.8202,3.8202,3.8202,3.8202,3.8202,3.8202,3.8202,3.8202,3.8202,3.8202,3.8202,3.8202,3.8202,3.8202,3.8202,3.8202,3.8696,3.9276,3.9567,3.9625,3.9625,3.9625,3.9407,3.9102,3.8754,3.842,3.8202,3.8202,3.8202,3.8202,3.8202,3.8202,3.8202,3.8202,3.8202,3.8202,3.8202,3.8202,3.8202,3.8202,3.8202,3.8202,3.8202,3.8202,3.8202,3.8202,3.8202,3.8202,3.8202,3.8202,3.8202,3.8202,3.8202,3.8202,3.8202,3.8202,3.8202,2.1867,2.2046,2.2173,2.2757,2.387,2.4824,2.4878,2.5892,2.6792,2.6792,2.688,2.7142,2.7767,2.8419,2.9072,2.9668,3.0249,3.0598,3.0598,3.0598,3.0598,3.0598,3.0598,3.0598,3.0598,3.0598,3.0598,3.0598,3.0598,3.0598,3.0598,3.0598,3.0598,3.0598,3.1845,3.2497,3.2497,3.3759,3.4397,3.4397,3.4397,3.4397,3.4397,3.4397,3.4397,3.4412,3.4513,3.5241,3.6315,3.6431,3.7172,3.8202,3.8202,3.8202,3.8202,3.8202,3.8202,3.8202,3.8202,3.8202,3.8202,3.8202,3.8202,3.8202,3.8202,3.8202,3.8202,3.8202,3.8202,3.8202,3.8202,3.8783,3.9479,3.9973,4.0278,4.0408,4.0292,3.9784,3.932,3.9218,3.8667,3.8202,3.8202,3.8202,3.8202,3.8202,3.8202,3.8202,3.8202,3.8202,3.8202,3.8202,3.8202,3.8202,3.8202,3.8202,3.8202,3.8202,3.8202,3.8202,3.8202,3.8202,3.8202,3.8202,3.8202,3.8202,3.8202,3.8202,3.8202,3.8202,3.8202,3.826,2.2665,2.3218,2.3355,2.2987,2.3896,2.4878,2.4905,2.5892,2.6792,2.6792,2.7229,2.7782,2.8448,2.9073,2.9697,3.035,3.0539,3.0598,3.0598,3.0598,3.0598,3.0598,3.0598,3.0598,3.0598,3.0598,3.0598,3.0598,3.0598,3.0598,3.0598,3.0598,3.0598,3.0598,3.1845,3.2497,3.2497,3.3759,3.4397,3.4397,3.4397,3.4397,3.4397,3.4397,3.4397,3.4426,3.5012,3.5665,3.6359,3.6939,3.7578,3.8202,3.8202,3.8202,3.8202,3.8202,3.8202,3.8202,3.8202,3.8202,3.8202,3.8202,3.8202,3.8202,3.8202,3.8202,3.8202,3.8202,3.8202,3.8202,3.8202,3.9088,4.0002,4.0075,4.0989,4.1671,4.1091,4.0437,3.9828,3.9305,3.8667,3.8202,3.8202,3.8202,3.8202,3.8202,3.8202,3.8202,3.8202,3.8202,3.8202,3.8202,3.8202,3.8202,3.8202,3.8202,3.8202,3.8202,3.8202,3.8202,3.8202,3.8202,3.8202,3.8202,3.8202,3.8202,3.8202,3.8202,3.8202,3.8202,3.8202,3.8507,2.2526,2.3214,2.3565,2.3031,2.3882,2.4851,2.4851,2.5865,2.6792,2.6792,2.7274,2.7912,2.8579,2.9189,2.9827,3.0481,3.0598,3.0598,3.0598,3.0598,3.0598,3.0598,3.0598,3.0598,3.0598,3.0598,3.0598,3.0598,3.0598,3.0598,3.0598,3.0598,3.0598,3.0598,3.1845,3.2497,3.2497,3.3759,3.4397,3.4397,3.4397,3.4397,3.4397,3.4397,3.4397,3.4426,3.5099,3.5738,3.6341,3.7027,3.7665,3.8202,3.8202,3.8202,3.8202,3.8202,3.8202,3.8202,3.8202,3.8202,3.8202,3.8202,3.8202,3.8202,3.8202,3.8202,3.8202,3.8202,3.8202,3.8202,3.8202,3.9146,4.0104,4.0104,4.112,4.1918,4.1236,4.0568,3.9813,3.8826,3.8405,3.8202,3.8202,3.8202,3.8202,3.8202,3.8202,3.8202,3.8202,3.8202,3.8202,3.8202,3.8202,3.8202,3.8202,3.8202,3.8202,3.8202,3.8202,3.8202,3.8202,3.8202,3.8202,3.8202,3.8202,3.8202,3.8202,3.8202,3.8391,3.8754,3.8754,3.9102,2.2427,2.3184,2.38,2.312,2.3917,2.4861,2.4837,2.585,2.6792,2.6792,2.7274,2.7912,2.8579,2.9189,2.9827,3.0481,3.0598,3.0598,3.0598,3.0598,3.0598,3.0598,3.0598,3.0598,3.0598,3.0598,3.0598,3.0598,3.0598,3.0598,3.0598,3.0598,3.0598,3.0598,3.1845,3.2497,3.2497,3.3759,3.4397,3.4397,3.4397,3.4397,3.4397,3.4397,3.4397,3.4441,3.5273,3.5883,3.6356,3.7201,3.7796,3.8202,3.8202,3.8202,3.8202,3.8202,3.8202,3.8202,3.8202,3.8202,3.8202,3.8202,3.8202,3.8202,3.8202,3.8202,3.8202,3.8202,3.8202,3.8202,3.8202,3.9146,4.006,3.99,4.0887,4.1657,4.0989,4.0321,3.9538,3.842,3.8202,3.8202,3.8202,3.8202,3.8202,3.8202,3.8202,3.8202,3.8202,3.8202,3.8202,3.8202,3.8202,3.8202,3.8202,3.8202,3.8202,3.8202,3.8202,3.8202,3.8202,3.8202,3.8202,3.8202,3.8376,3.8376,3.8202,3.8376,3.871,3.9204,3.9363,3.9755,2.2835,2.3599,2.44,2.3352,2.4046,2.4971,2.4902,2.5878,2.6792,2.6792,2.7274,2.7912,2.8579,2.9189,2.9827,3.0481,3.0598,3.0598,3.0598,3.0598,3.0598,3.0598,3.0598,3.0598,3.0598,3.0598,3.0598,3.0598,3.0598,3.0598,3.0598,3.0598,3.0598,3.0598,3.1845,3.2497,3.2497,3.3759,3.4397,3.4397,3.4397,3.4397,3.4397,3.4397,3.4397,3.447,3.572,3.6272,3.6402,3.7651,3.8173,3.8202,3.8202,3.8202,3.8202,3.8202,3.8202,3.8202,3.8202,3.8202,3.8202,3.8202,3.8202,3.8202,3.8202,3.8202,3.8202,3.8202,3.8202,3.8202,3.8202,3.9146,3.9958,3.9378,4.022,4.096,4.0292,3.9683,3.9044,3.8333,3.8202,3.8202,3.8202,3.8202,3.8202,3.8202,3.8202,3.8202,3.8202,3.8202,3.8202,3.8202,3.8202,3.8202,3.8202,3.8202,3.8202,3.8202,3.8202,3.8202,3.8202,3.8202,3.8202,3.8202,3.8826,3.8841,3.8202,3.8841,3.9175,3.9218,3.9784,4.0408,2.2984,2.3573,2.4131,2.3418,2.4113,2.4995,2.4973,2.5928,2.6792,2.6792,2.6981,2.746,2.8506,2.9189,2.9827,3.0481,3.0598,3.0598,3.0598,3.0598,3.0598,3.0598,3.0598,3.0598,3.0598,3.0598,3.0598,3.0598,3.0598,3.0598,3.0598,3.0598,3.0598,3.0598,3.1845,3.2888,3.3701,3.4165,3.4397,3.4397,3.4397,3.4397,3.4397,3.4397,3.4397,3.447,3.5746,3.6301,3.6402,3.768,3.8202,3.8202,3.8202,3.8202,3.8202,3.8202,3.8202,3.8202,3.8202,3.8202,3.8202,3.8202,3.8202,3.8202,3.8202,3.8202,3.8202,3.8202,3.8202,3.8202,3.8202,3.8855,3.9567,3.9741,3.9828,3.9813,3.9567,3.9015,3.8492,3.8246,3.8202,3.8202,3.8202,3.8202,3.8202,3.8202,3.8202,3.8202,3.8202,3.8202,3.8202,3.8202,3.8202,3.8202,3.8202,3.8202,3.8202,3.8202,3.8202,3.8202,3.8202,3.8609,3.8841,3.8841,3.9465,3.9465,3.8841,3.9465,4.0002,4.0423,4.0641,4.1091,2.3406,0.0,0.0,2.3523,2.404,2.4777,2.4961,2.5752,2.6531,2.6749,2.6792,2.7112,2.8172,2.8884,2.9581,3.0467,3.0598,3.0598,3.0598,3.0598,3.0598,3.0598,3.0598,3.0598,3.0598,3.0598,3.0598,3.0598,3.0598,3.0598,3.0598,3.0598,3.08,3.1222,3.2063,3.3106,3.4382,3.4397,3.4397,3.4397,3.4397,3.4397,3.4397,3.4397,3.4397,3.447,3.5746,3.6301,3.6402,3.768,3.8202,3.8202,3.8202,3.8202,3.8202,3.8202,3.8202,3.8202,3.8202,3.8202,3.8202,3.8202,3.8202,3.8202,3.8202,3.8202,3.8202,3.8202,3.8202,3.8202,3.8202,3.8536,3.903,3.9654,3.932,3.887,3.887,3.8507,3.8202,3.8202,3.8202,3.8202,3.8202,3.8202,3.8202,3.8202,3.8202,3.8202,3.8202,3.8202,3.8202,3.8202,3.8202,3.8202,3.8202,3.8202,3.8202,3.8202,3.8405,3.8536,3.8536,3.916,3.9509,3.9509,4.0118,4.0234,3.9842,4.0234,4.0655,4.1105,4.1323,4.1671,0.0,0.0,0.0,0.0,2.3866,2.4367,2.4897,2.5444,2.6021,2.6662,2.6792,2.6968,2.7579,2.8245,2.9101,3.0365,3.0598,3.0598,3.0598,3.0598,3.0598,3.0598,3.0598,3.0598,3.0598,3.0598,3.0598,3.0598,3.0598,3.0598,3.0598,3.0598,3.1178,3.2468,3.2497,3.3106,3.4382,3.4397,3.4397,3.4397,3.4397,3.4397,3.4397,3.4397,3.4397,3.447,3.5746,3.6301,3.6402,3.768,3.8202,3.8202,3.8202,3.8202,3.8202,3.8202,3.8202,3.8202,3.8202,3.8202,3.8202,3.8202,3.8202,3.8202,3.8202,3.8202,3.8202,3.8202,3.8202,3.8202,3.8202,3.8202,3.8362,3.9015,3.8681,3.8202,3.8202,3.8202,3.8202,3.8202,3.8202,3.8202,3.8202,3.8202,3.8202,3.8202,3.8202,3.8202,3.8202,3.8202,3.8202,3.8202,3.8202,3.8202,3.8202,3.8202,3.8217,3.8231,3.8841,3.9218,3.9233,3.9813,4.0133,4.0133,4.0786,4.1134,4.1134,4.1134,4.1134,4.1149,4.1802,4.2092,2.4163,0.0,0.0,0.0,0.0,0.0,2.512,2.5933,2.6692,2.6777,2.6792,2.6968,2.7579,2.8245,2.8956,2.9755,3.0277,3.0598,3.0598,3.0598,3.0598,3.0598,3.0598,3.0598,3.0598,3.0598,3.0598,0.0,3.0598,3.0598,3.0598,3.0598,3.1178,3.2468,3.2497,3.3106,3.4382,3.4397,3.4397,3.4397,3.4397,3.4397,3.4397,3.4397,3.4397,3.447,3.5746,3.6301,3.6402,3.768,3.8202,3.8202,3.8202,3.8202,3.8202,3.8202,3.8202,3.8202,3.8202,3.8202,3.8202,3.8202,3.8202,3.8202,3.8202,3.8202,3.8202,3.8202,3.8202,3.8202,3.8202,3.8202,3.8246,3.8434,3.8333,3.8202,3.8202,3.8202,3.8202,3.8202,3.8202,3.8202,3.8202,3.8202,3.8202,3.8202,3.8202,3.8202,3.8202,3.8202,3.8202,3.8202,3.8202,3.8202,3.8202,3.8202,3.8405,3.8884,3.9102,3.9392,3.9828,4.0481,4.0815,4.0815,4.1482,4.1816,4.1816,4.1816,4.1816,4.1831,4.2005,4.2092,0.0,0.0,0.0,0.0,0.0,0.0,2.5081,2.5821,2.6564,2.6747,2.6792,2.6909,2.7259,2.8071,2.8825,2.9174,3.0002,3.0598,3.0598,3.0598,3.0598,3.0598,3.0598,3.0598,3.0598,3.0598,3.0598,3.0598,3.0598,3.0598,3.0598,3.0598,3.1178,3.2468,3.2497,3.3106,3.4382,3.4397,3.4397,3.4397,3.4397,3.4397,3.4397,3.4397,3.4559,3.4864,3.5865,3.646,3.6794,3.7796,3.8202,3.8202,3.8202,3.8202,3.8202,3.8202,3.8202,3.8202,3.8202,3.8202,3.8202,3.8202,3.8202,3.8202,3.8202,3.8202,3.8202,3.8202,3.8202,3.8202,3.8202,3.8202,3.8202,3.8202,3.8202,3.8202,3.8202,3.8202,3.8202,3.8202,3.8202,3.8202,3.8202,3.8202,3.8202,3.8202,3.8202,3.8202,3.8202,3.8202,3.8202,3.8202,3.8202,3.8318,3.8594,3.8623,3.8884,3.9538,3.9842,4.0147,4.0495,4.1149,4.1512,4.1512,4.1903,4.2092,4.2092,4.2092,4.2092,4.2092,4.2092,4.2092,0.0,0.0,0.0,0.0,2.4301,0.0,2.5026,2.5556,2.6106,2.6676,2.6792,2.6792,2.6792,2.778,2.8608,2.8694,2.9711,3.051,3.0598,3.0598,3.0598,3.0598,3.0598,3.0598,3.0598,3.0598,3.0598,3.0598,3.0598,3.0598,3.0598,3.0598,3.1178,3.2468,3.2497,3.3106,3.4382,3.4397,3.4397,3.4397,3.4397,3.4397,3.4397,3.4397,3.4762,3.5436,3.604,3.6693,3.736,3.7955,3.8202,3.8202,3.8202,3.8202,3.8202,3.8202,3.8202,3.8202,3.8202,3.8202,3.8202,3.8202,3.8202,3.8202,3.8202,3.8202,3.8202,3.8202,3.8202,3.8202,3.8202,3.8202,3.8202,3.8202,3.8202,3.8202,3.8202,3.8202,3.8202,3.8202,3.8202,3.8202,3.8202,3.8202,3.8202,3.8202,3.8202,3.8202,3.8202,3.8202,3.8202,3.8202,3.8275,3.8551,3.9146,3.9262,3.9567,4.0176,4.0771,4.1134,4.1207,4.1787,4.2092,4.2092,4.2092,4.2092,4.2092,4.2092,4.2092,4.2092,4.2092,4.2092,0.0,0.0,0.0,0.0,2.5237,0.0,2.5977,2.6381,2.6765,2.6804,2.6792,2.6792,2.6792,2.7403,2.8072,2.8608,2.9319,2.9972,3.051,3.0598,3.0598,3.0598,3.0598,3.0598,3.0598,3.0598,3.0598,3.0598,3.0598,3.0598,3.0598,3.0598,3.1178,3.2468,3.2497,3.3106,3.4382,3.4397,3.4397,3.4397,3.4397,3.4397,3.4397,3.4397,3.4762,3.5436,3.604,3.6693,3.736,3.7955,3.8202,3.8202,3.8202,3.8202,3.8202,3.8202,3.8202,3.8202,3.8202,3.8202,3.8202,3.8202,3.8202,3.8202,3.8202,3.8202,3.8202,3.8202,3.8202,3.8202,3.8202,3.8202,3.8202,3.8202,3.8202,3.8202,3.8202,3.8202,3.8202,3.8202,3.8202,3.8202,3.8202,3.8202,3.8202,3.8202,3.8202,3.8202,3.8202,3.8202,3.8202,3.8202,3.8681,3.9059,3.9189,3.9654,4.0205,4.0858,4.1018,4.1337,4.1874,4.2034,4.2092,4.2092,4.2092,4.2092,4.2092,4.2092,4.2092,4.2092,4.2092,4.2092,0.0,0.0,0.0,2.5319,0.0,0.0,0.0,2.6469,2.6886,2.6806,2.6792,2.6792,2.6792,2.7288,2.7927,2.8593,2.9218,2.9827,3.051,3.0598,3.0598,3.0598,3.0598,3.0598,3.0598,3.0598,3.0598,3.0598,3.0598,3.0598,3.0598,3.0598,3.1178,3.2468,3.2497,3.3106,3.4382,3.4397,3.4397,3.4397,3.4397,3.4397,3.4397,3.4397,3.4936,3.5868,3.617,3.6852,3.7781,3.8086,3.8202,3.8202,3.8202,3.8202,3.8202,3.8202,3.8202,3.8202,3.8202,3.8202,3.8202,3.8202,3.8202,3.8202,3.8202,3.8202,3.8202,3.8202,3.8202,3.8202,3.8202,3.8202,3.8202,3.8202,3.8202,3.8202,3.8202,3.8202,3.8202,3.8202,3.8202,3.8202,3.8202,3.8202,3.8202,3.8202,3.8202,3.8202,3.8202,3.8202,3.8333,3.8667,3.9,3.9465,4.0089,4.0423,4.0887,4.1555,4.1599,4.1744,4.2092,4.2092,4.2092,4.2092,4.2092,4.2092,4.2092,4.2092,4.2092,4.2092,4.2092,4.2092,0.0,0.0,0.0,0.0,0.0,2.63,0.0,0.0,0.0,2.6792,2.6792,2.6792,2.6792,2.72,2.7695,2.8245,2.8956,2.9624,3.0162,3.0452,3.0598,3.0598,3.0598,3.0598,3.0598,3.0598,3.0598,3.0598,3.0598,3.0598,3.0598,3.0598,3.1178,3.2468,3.2497,3.3106,3.4382,3.4397,3.4397,3.4397,3.4397,3.4397,3.4397,3.4528,3.5227,3.6315,3.6446,3.7143,3.8202,3.8202,3.8202,3.8202,3.8202,3.8202,3.8202,3.8202,3.8202,3.8202,3.8202,3.8202,3.8202,3.8202,3.8202,3.8202,3.8202,3.8202,3.8202,3.8202,3.8202,3.8202,3.8202,3.8202,3.8202,3.8202,3.8202,3.8202,3.8202,3.8202,3.8202,3.8202,3.8202,3.8202,3.8202,3.8202,3.8202,3.8202,3.8202,3.8202,3.8202,3.8318,3.8609,3.9146,3.9421,3.9987,4.1004,4.1221,4.1512,4.2063,4.2092,4.2092,4.2092,4.2092,4.2092,4.2092,4.2092,4.2092,4.2092,4.2092,4.2092,4.2092,4.2092,4.2092,0.0,0.0,0.0,0.0,2.6543,0.0,2.6873,0.0,2.6792,2.6792,0.0,2.6792,2.6792,0.0,0.0,2.6996,2.8012,2.8825,2.8912,2.9886,3.0598,3.0598,3.0598,3.0598,3.0598,3.0598,3.0598,3.0598,3.0598,3.0598,3.0598,3.0598,3.1178,3.2468,3.2497,3.3106,3.4382,3.4397,3.4397,3.4397,3.4397,3.4397,3.4412,3.5012,3.5665,3.6326,3.6939,3.7578,3.8202,3.8202,3.8202,3.8202,3.8202,3.8202,3.8202,3.8202,3.8202,3.8202,3.8202,3.8202,3.8202,3.8202,3.8202,3.8202,3.8202,3.8202,3.8202,3.8202,3.8202,3.8202,3.8202,3.8202,3.8202,3.8202,3.8202,3.8202,3.8202,3.8202,3.8202,3.8202,3.8202,3.8202,3.8202,3.8202,3.8202,3.8202,3.8202,3.8202,3.8202,3.8725,3.9117,3.9189,4.0205,4.0945,4.1091,4.1642,4.202,4.2092,4.2092,4.2092,4.2092,4.2092,4.2092,4.2092,4.2092,4.2092,4.2092,4.2092,4.2092,4.2092,4.2092,4.2092,0.0,0.0,0.0,0.0,0.0,0.0,2.6899,0.0,2.6792,0.0,0.0,0.0,0.0,0.0,0.0,0.0,2.8346,2.897,2.9697,3.0263,3.0598,3.0598,3.0598,3.0598,3.0598,3.0598,3.0598,3.0598,3.0598,3.0598,3.0598,3.0598,3.1178,3.2468,3.2497,3.3106,3.4382,3.4397,3.4397,3.4397,3.4397,3.4397,3.4412,3.5084,3.5723,3.6344,3.7012,3.7651,3.8202,3.8202,3.8202,3.8202,3.8202,3.8202,3.8202,3.8202,3.8202,3.8202,3.8202,3.8202,3.8202,3.8202,3.8202,3.8202,3.8202,3.8202,3.8202,3.8202,3.8202,3.8202,3.8202,3.8202,3.8202,3.8202,3.8202,3.8202,3.8202,3.8202,3.8202,3.8202,3.8202,3.8202,3.8202,3.8202,3.8202,3.8202,3.8536,3.8783,3.8783,3.9334,3.9871,4.0263,4.0771,4.125,4.1642,4.1932,4.2092,4.2092,4.2092,4.2092,4.2092,4.2092,4.2092,4.2092,4.2092,4.2092,4.2092,4.2092,4.2092,4.2092,4.2092,4.2092,2.9041,0.0,0.0,0.0,0.0,0.0,0.0,0.0,0.0,0.0,0.0,0.0,0.0,0.0,0.0,0.0,0.0,2.9218,2.9973,3.038,3.0598,3.0598,3.0598,3.0598,3.0598,3.0598,3.0598,3.0598,3.0598,3.0598,3.0598,3.0598,3.1178,3.2468,3.2497,3.3106,3.4382,3.4397,3.4397,3.4397,3.4397,3.4397,3.4426,3.5273,3.5897,3.6359,3.7186,3.7796,3.8202,3.8202,3.8202,3.8202,3.8202,3.8202,3.8202,3.8202,3.8202,3.8202,3.8202,3.8202,3.8202,3.8202,3.8202,3.8202,3.8202,3.8202,3.8202,3.8202,3.8202,3.8202,3.8202,3.8202,3.8202,3.8202,3.8202,3.8202,3.8202,3.8202,3.8202,3.8202,3.8202,3.826,3.8449,3.8318,3.826,3.8449,3.8884,3.9262,3.9421,3.9987,4.0554,4.1047,4.1265,4.157,4.2049,4.2092,4.2092,4.2092,4.2092,4.2092,4.2092,4.2092,4.2092,4.2092,4.2092,4.2092,4.2092,4.2092,4.2092,4.2092,4.2092,4.2092,0.0,0.0,0.0,2.8996,0.0,0.0,0.0,0.0,2.8637,0.0,0.0,0.0,0.0,0.0,0.0,0.0,0.0,0.0,0.0,2.9828,3.0598,3.0598,3.0598,3.0598,3.0598,3.0598,3.0598,3.0598,3.0598,3.0598,3.0598,3.0598,3.1178,3.2468,3.2497,3.3106,3.4382,3.4397,3.4397,3.4397,3.4397,3.4397,3.4441,3.5706,3.6286,3.6373,3.7636,3.8188,3.8202,3.8202,3.8202,3.8202,3.8202,3.8202,3.8202,3.8202,3.8202,3.8202,3.8202,3.8202,3.8202,3.8202,3.8202,3.8202,3.8202,3.8202,3.8202,3.8202,3.8202,3.8202,3.8202,3.8202,3.8202,3.8202,3.8202,3.8202,3.8202,3.8202,3.8202,3.8202,3.8202,3.8405,3.9059,3.8638,3.842,3.9073,3.9189,3.9407,4.0002,4.0655,4.1076,4.1091,4.1671,4.2078,4.2092,4.2092,4.2092,4.2092,4.2092,4.2092,4.2092,4.2092,4.2092,4.2092,4.2092,4.2092,4.2092,4.2092,4.2092,4.2092,4.2092,4.2092,0.0,0.0,2.914,2.8848,0.0,0.0,0.0,0.0,0.0,0.0,0.0,0.0,0.0,0.0,0.0,0.0,0.0,0.0,0.0,3.0336,3.0598,3.0598,3.0598,3.0598,3.0598,3.0598,3.0598,3.0598,3.0598,3.0598,3.0598,3.0598,3.1178,3.2468,3.2497,3.3106,3.4382,3.4397,3.4397,3.4397,3.4397,3.4632,3.5084,3.5923,3.653,3.7012,3.7839,3.8202,3.8202,3.8202,3.8202,3.8202,3.8202,3.8202,3.8202,3.8202,3.8202,3.8202,3.8202,3.8202,3.8202,3.8202,3.8202,3.8202,3.8202,3.8202,3.8202,3.8202,3.8202,3.8202,3.8202,3.8202,3.8202,3.8202,3.8202,3.8202,3.8202,3.8551,3.887,3.887,3.9175,3.9523,3.9755,3.961,3.9523,3.9755,4.0176,4.0525,4.0728,4.1337,4.1758,4.1758,4.1961,4.2092,4.2092,4.2092,4.2092,4.2092,4.2092,4.2092,4.2092,4.2092,4.2092,4.2092,4.2092,4.2092,4.2092,4.2092,4.2092,4.2092,4.2092,4.2092,3.1572,3.0804,0.0,2.9564,2.9406,0.0,2.9377,0.0,2.9377,0.0,0.0,0.0,0.0,0.0,0.0,0.0,0.0,0.0,0.0,3.0598,3.0598,3.0598,3.0598,3.0598,3.0598,3.0598,3.0598,3.0598,3.0598,3.0598,3.0598,3.0598,3.1178,3.2468,3.2497,3.3106,3.4382,3.4397,3.4397,3.4397,3.4397,3.4748,3.5421,3.6011,3.6678,3.7346,3.7941,3.8202,3.8202,3.8202,3.8202,3.8202,3.8202,3.8202,3.8202,3.8202,3.8202,3.8202,3.8202,3.8202,3.8202,3.8202,3.8202,3.8202,3.8202,3.8202,3.8246,3.8492,3.8391,3.826,3.8492,3.8376,3.8202,3.8202,3.8376,3.8565,3.8565,3.9059,3.9523,3.9523,3.9828,4.0176,4.0408,4.0452,4.0452,4.0452,4.0815,4.1192,4.1424,4.1831,4.2092,4.2092,4.2092,4.2092,4.2092,4.2092,4.2092,4.2092,4.2092,4.2092,4.2092,4.2092,4.2092,4.2092,4.2092,4.2092,4.2092,4.2092,4.2092,4.2092,4.2092,4.2092]}]]